<?xml version="1.0" encoding="UTF-8"?>
<gpx version="1.1" creator="https://www.youtrack.es" xsi:schemaLocation="http://www.topografix.com/GPX/1/1 http://www.topografix.com/GPX/1/1/gpx.xsd http://www.garmin.com/xmlschemas/GpxExtensions/v3 http://www.garmin.com/xmlschemas/GpxExtensionsv3.xsd http://www.garmin.com/xmlschemas/TrackPointExtension/v1 http://www.garmin.com/xmlschemas/TrackPointExtensionv1.xsd" xmlns:gpxtpx="http://www.garmin.com/xmlschemas/TrackPointExtension/v1" xmlns:gpxx="http://www.garmin.com/xmlschemas/GpxExtensions/v3" xmlns:xsi="http://www.w3.org/2001/XMLSchema-instance">
  <metadata>
    <link href="https://www.youtrack.es">
      <text>YouTrack.es</text>
    </link>
    <time>2026-05-07T22:10:42Z</time>
  </metadata>
  <trk>
    <src>https://www.youtrack.es</src>
    <link href="https://www.youtrack.es/ruta/23333-6--simi-gaun-tempathang">
      <text>YouTrack.es</text>
    </link>
    <trkseg>
      <trkpt lat="27.87236184" lon="86.23121738">
        <ele>1993.0000</ele>
        <time>2010-01-01T00:00:00Z</time>
      </trkpt>
      <trkpt lat="27.87241000" lon="86.23123000">
        <ele>1995.0000</ele>
        <time>2010-01-01T00:00:03Z</time>
      </trkpt>
      <trkpt lat="27.87234000" lon="86.23151000">
        <ele>1991.0000</ele>
        <time>2010-01-01T00:00:24Z</time>
      </trkpt>
      <trkpt lat="27.87232000" lon="86.23171000">
        <ele>1990.0000</ele>
        <time>2010-01-01T00:00:38Z</time>
      </trkpt>
      <trkpt lat="27.87227000" lon="86.23175000">
        <ele>1988.0000</ele>
        <time>2010-01-01T00:00:43Z</time>
      </trkpt>
      <trkpt lat="27.87223000" lon="86.23185000">
        <ele>1987.0000</ele>
        <time>2010-01-01T00:00:51Z</time>
      </trkpt>
      <trkpt lat="27.87215000" lon="86.23193000">
        <ele>1986.0000</ele>
        <time>2010-01-01T00:01:00Z</time>
      </trkpt>
      <trkpt lat="27.87217000" lon="86.23213000">
        <ele>1987.0000</ele>
        <time>2010-01-01T00:01:14Z</time>
      </trkpt>
      <trkpt lat="27.87212000" lon="86.23219000">
        <ele>1985.0000</ele>
        <time>2010-01-01T00:01:20Z</time>
      </trkpt>
      <trkpt lat="27.87192000" lon="86.23206000">
        <ele>1978.0000</ele>
        <time>2010-01-01T00:01:38Z</time>
      </trkpt>
      <trkpt lat="27.87181000" lon="86.23202000">
        <ele>1973.0000</ele>
        <time>2010-01-01T00:01:47Z</time>
      </trkpt>
      <trkpt lat="27.87168000" lon="86.23201000">
        <ele>1965.0000</ele>
        <time>2010-01-01T00:01:58Z</time>
      </trkpt>
      <trkpt lat="27.87163000" lon="86.23194000">
        <ele>1962.0000</ele>
        <time>2010-01-01T00:02:04Z</time>
      </trkpt>
      <trkpt lat="27.87157000" lon="86.23205000">
        <ele>1959.0000</ele>
        <time>2010-01-01T00:02:13Z</time>
      </trkpt>
      <trkpt lat="27.87149000" lon="86.23207000">
        <ele>1954.0000</ele>
        <time>2010-01-01T00:02:20Z</time>
      </trkpt>
      <trkpt lat="27.87142000" lon="86.23220000">
        <ele>1952.0000</ele>
        <time>2010-01-01T00:02:31Z</time>
      </trkpt>
      <trkpt lat="27.87131000" lon="86.23224000">
        <ele>1948.0000</ele>
        <time>2010-01-01T00:02:40Z</time>
      </trkpt>
      <trkpt lat="27.87132000" lon="86.23207000">
        <ele>1945.0000</ele>
        <time>2010-01-01T00:02:52Z</time>
      </trkpt>
      <trkpt lat="27.87130000" lon="86.23196000">
        <ele>1941.0000</ele>
        <time>2010-01-01T00:03:00Z</time>
      </trkpt>
      <trkpt lat="27.87125000" lon="86.23192000">
        <ele>1939.0000</ele>
        <time>2010-01-01T00:03:05Z</time>
      </trkpt>
      <trkpt lat="27.87123000" lon="86.23181000">
        <ele>1936.0000</ele>
        <time>2010-01-01T00:03:13Z</time>
      </trkpt>
      <trkpt lat="27.87116000" lon="86.23180000">
        <ele>1932.0000</ele>
        <time>2010-01-01T00:03:18Z</time>
      </trkpt>
      <trkpt lat="27.87116000" lon="86.23170000">
        <ele>1930.0000</ele>
        <time>2010-01-01T00:03:25Z</time>
      </trkpt>
      <trkpt lat="27.87118000" lon="86.23160000">
        <ele>1930.0000</ele>
        <time>2010-01-01T00:03:33Z</time>
      </trkpt>
      <trkpt lat="27.87108000" lon="86.23121000">
        <ele>1923.0000</ele>
        <time>2010-01-01T00:04:01Z</time>
      </trkpt>
      <trkpt lat="27.87107000" lon="86.23113000">
        <ele>1922.0000</ele>
        <time>2010-01-01T00:04:07Z</time>
      </trkpt>
      <trkpt lat="27.87110000" lon="86.23107000">
        <ele>1924.0000</ele>
        <time>2010-01-01T00:04:12Z</time>
      </trkpt>
      <trkpt lat="27.87106000" lon="86.23097000">
        <ele>1920.0000</ele>
        <time>2010-01-01T00:04:20Z</time>
      </trkpt>
      <trkpt lat="27.87104000" lon="86.23096000">
        <ele>1919.0000</ele>
        <time>2010-01-01T00:04:22Z</time>
      </trkpt>
      <trkpt lat="27.87099000" lon="86.23097000">
        <ele>1916.0000</ele>
        <time>2010-01-01T00:04:26Z</time>
      </trkpt>
      <trkpt lat="27.87095000" lon="86.23103000">
        <ele>1914.0000</ele>
        <time>2010-01-01T00:04:31Z</time>
      </trkpt>
      <trkpt lat="27.87092000" lon="86.23101000">
        <ele>1912.0000</ele>
        <time>2010-01-01T00:04:34Z</time>
      </trkpt>
      <trkpt lat="27.87091000" lon="86.23097000">
        <ele>1911.0000</ele>
        <time>2010-01-01T00:04:37Z</time>
      </trkpt>
      <trkpt lat="27.87092000" lon="86.23086000">
        <ele>1909.0000</ele>
        <time>2010-01-01T00:04:44Z</time>
      </trkpt>
      <trkpt lat="27.87086000" lon="86.23090000">
        <ele>1906.0000</ele>
        <time>2010-01-01T00:04:50Z</time>
      </trkpt>
      <trkpt lat="27.87087000" lon="86.23084000">
        <ele>1905.0000</ele>
        <time>2010-01-01T00:04:54Z</time>
      </trkpt>
      <trkpt lat="27.87085000" lon="86.23082000">
        <ele>1903.0000</ele>
        <time>2010-01-01T00:04:57Z</time>
      </trkpt>
      <trkpt lat="27.87082000" lon="86.23083000">
        <ele>1901.0000</ele>
        <time>2010-01-01T00:04:59Z</time>
      </trkpt>
      <trkpt lat="27.87081000" lon="86.23080000">
        <ele>1900.0000</ele>
        <time>2010-01-01T00:05:01Z</time>
      </trkpt>
      <trkpt lat="27.87075000" lon="86.23085000">
        <ele>1898.0000</ele>
        <time>2010-01-01T00:05:07Z</time>
      </trkpt>
      <trkpt lat="27.87076000" lon="86.23079000">
        <ele>1897.0000</ele>
        <time>2010-01-01T00:05:12Z</time>
      </trkpt>
      <trkpt lat="27.87074000" lon="86.23078000">
        <ele>1896.0000</ele>
        <time>2010-01-01T00:05:13Z</time>
      </trkpt>
      <trkpt lat="27.87074000" lon="86.23070000">
        <ele>1894.0000</ele>
        <time>2010-01-01T00:05:19Z</time>
      </trkpt>
      <trkpt lat="27.87066000" lon="86.23065000">
        <ele>1888.0000</ele>
        <time>2010-01-01T00:05:26Z</time>
      </trkpt>
      <trkpt lat="27.87065000" lon="86.23043000">
        <ele>1884.0000</ele>
        <time>2010-01-01T00:05:42Z</time>
      </trkpt>
      <trkpt lat="27.87058000" lon="86.23030000">
        <ele>1879.0000</ele>
        <time>2010-01-01T00:05:53Z</time>
      </trkpt>
      <trkpt lat="27.87051000" lon="86.23026000">
        <ele>1876.0000</ele>
        <time>2010-01-01T00:05:59Z</time>
      </trkpt>
      <trkpt lat="27.87037000" lon="86.23024000">
        <ele>1871.0000</ele>
        <time>2010-01-01T00:06:10Z</time>
      </trkpt>
      <trkpt lat="27.87030000" lon="86.23019000">
        <ele>1869.0000</ele>
        <time>2010-01-01T00:06:17Z</time>
      </trkpt>
      <trkpt lat="27.87021000" lon="86.23018000">
        <ele>1865.0000</ele>
        <time>2010-01-01T00:06:24Z</time>
      </trkpt>
      <trkpt lat="27.87030000" lon="86.22996000">
        <ele>1868.0000</ele>
        <time>2010-01-01T00:06:41Z</time>
      </trkpt>
      <trkpt lat="27.87036000" lon="86.22972000">
        <ele>1868.0000</ele>
        <time>2010-01-01T00:06:59Z</time>
      </trkpt>
      <trkpt lat="27.87034000" lon="86.22938000">
        <ele>1865.0000</ele>
        <time>2010-01-01T00:07:23Z</time>
      </trkpt>
      <trkpt lat="27.87037000" lon="86.22936000">
        <ele>1866.0000</ele>
        <time>2010-01-01T00:07:26Z</time>
      </trkpt>
      <trkpt lat="27.87046000" lon="86.22915000">
        <ele>1867.0000</ele>
        <time>2010-01-01T00:07:42Z</time>
      </trkpt>
      <trkpt lat="27.87039000" lon="86.22906000">
        <ele>1863.0000</ele>
        <time>2010-01-01T00:07:51Z</time>
      </trkpt>
      <trkpt lat="27.87039000" lon="86.22898000">
        <ele>1861.0000</ele>
        <time>2010-01-01T00:07:56Z</time>
      </trkpt>
      <trkpt lat="27.87036000" lon="86.22886000">
        <ele>1857.0000</ele>
        <time>2010-01-01T00:08:05Z</time>
      </trkpt>
      <trkpt lat="27.87037000" lon="86.22875000">
        <ele>1854.0000</ele>
        <time>2010-01-01T00:08:13Z</time>
      </trkpt>
      <trkpt lat="27.87033000" lon="86.22867000">
        <ele>1850.0000</ele>
        <time>2010-01-01T00:08:20Z</time>
      </trkpt>
      <trkpt lat="27.87032000" lon="86.22863000">
        <ele>1848.0000</ele>
        <time>2010-01-01T00:08:23Z</time>
      </trkpt>
      <trkpt lat="27.87025000" lon="86.22859000">
        <ele>1844.0000</ele>
        <time>2010-01-01T00:08:29Z</time>
      </trkpt>
      <trkpt lat="27.87023000" lon="86.22851000">
        <ele>1840.0000</ele>
        <time>2010-01-01T00:08:35Z</time>
      </trkpt>
      <trkpt lat="27.87026000" lon="86.22846000">
        <ele>1840.0000</ele>
        <time>2010-01-01T00:08:39Z</time>
      </trkpt>
      <trkpt lat="27.87036000" lon="86.22822000">
        <ele>1837.0000</ele>
        <time>2010-01-01T00:08:58Z</time>
      </trkpt>
      <trkpt lat="27.87036000" lon="86.22816000">
        <ele>1835.0000</ele>
        <time>2010-01-01T00:09:02Z</time>
      </trkpt>
      <trkpt lat="27.87033000" lon="86.22812000">
        <ele>1832.0000</ele>
        <time>2010-01-01T00:09:06Z</time>
      </trkpt>
      <trkpt lat="27.87033000" lon="86.22802000">
        <ele>1829.0000</ele>
        <time>2010-01-01T00:09:13Z</time>
      </trkpt>
      <trkpt lat="27.87041000" lon="86.22785000">
        <ele>1828.0000</ele>
        <time>2010-01-01T00:09:26Z</time>
      </trkpt>
      <trkpt lat="27.87040000" lon="86.22773000">
        <ele>1822.0000</ele>
        <time>2010-01-01T00:09:35Z</time>
      </trkpt>
      <trkpt lat="27.87037000" lon="86.22769000">
        <ele>1819.0000</ele>
        <time>2010-01-01T00:09:39Z</time>
      </trkpt>
      <trkpt lat="27.87033000" lon="86.22751000">
        <ele>1808.0000</ele>
        <time>2010-01-01T00:09:52Z</time>
      </trkpt>
      <trkpt lat="27.87035000" lon="86.22731000">
        <ele>1803.0000</ele>
        <time>2010-01-01T00:10:06Z</time>
      </trkpt>
      <trkpt lat="27.87034000" lon="86.22728000">
        <ele>1802.0000</ele>
        <time>2010-01-01T00:10:08Z</time>
      </trkpt>
      <trkpt lat="27.87030000" lon="86.22727000">
        <ele>1800.0000</ele>
        <time>2010-01-01T00:10:12Z</time>
      </trkpt>
      <trkpt lat="27.87024000" lon="86.22718000">
        <ele>1796.0000</ele>
        <time>2010-01-01T00:10:20Z</time>
      </trkpt>
      <trkpt lat="27.87020000" lon="86.22715000">
        <ele>1794.0000</ele>
        <time>2010-01-01T00:10:23Z</time>
      </trkpt>
      <trkpt lat="27.87015000" lon="86.22719000">
        <ele>1793.0000</ele>
        <time>2010-01-01T00:10:28Z</time>
      </trkpt>
      <trkpt lat="27.87012000" lon="86.22720000">
        <ele>1792.0000</ele>
        <time>2010-01-01T00:10:31Z</time>
      </trkpt>
      <trkpt lat="27.87006000" lon="86.22712000">
        <ele>1790.0000</ele>
        <time>2010-01-01T00:10:38Z</time>
      </trkpt>
      <trkpt lat="27.87001000" lon="86.22702000">
        <ele>1787.0000</ele>
        <time>2010-01-01T00:10:46Z</time>
      </trkpt>
      <trkpt lat="27.86997000" lon="86.22697000">
        <ele>1786.0000</ele>
        <time>2010-01-01T00:10:51Z</time>
      </trkpt>
      <trkpt lat="27.86973000" lon="86.22677000">
        <ele>1777.0000</ele>
        <time>2010-01-01T00:11:15Z</time>
      </trkpt>
      <trkpt lat="27.86966000" lon="86.22661000">
        <ele>1770.0000</ele>
        <time>2010-01-01T00:11:28Z</time>
      </trkpt>
      <trkpt lat="27.86967000" lon="86.22656000">
        <ele>1770.0000</ele>
        <time>2010-01-01T00:11:31Z</time>
      </trkpt>
      <trkpt lat="27.86988000" lon="86.22644000">
        <ele>1774.0000</ele>
        <time>2010-01-01T00:11:50Z</time>
      </trkpt>
      <trkpt lat="27.86984000" lon="86.22633000">
        <ele>1770.0000</ele>
        <time>2010-01-01T00:11:59Z</time>
      </trkpt>
      <trkpt lat="27.86985000" lon="86.22625000">
        <ele>1767.0000</ele>
        <time>2010-01-01T00:12:04Z</time>
      </trkpt>
      <trkpt lat="27.86966000" lon="86.22614000">
        <ele>1760.0000</ele>
        <time>2010-01-01T00:12:21Z</time>
      </trkpt>
      <trkpt lat="27.86965000" lon="86.22609000">
        <ele>1757.0000</ele>
        <time>2010-01-01T00:12:25Z</time>
      </trkpt>
      <trkpt lat="27.86959000" lon="86.22605000">
        <ele>1754.0000</ele>
        <time>2010-01-01T00:12:31Z</time>
      </trkpt>
      <trkpt lat="27.86959000" lon="86.22601000">
        <ele>1752.0000</ele>
        <time>2010-01-01T00:12:33Z</time>
      </trkpt>
      <trkpt lat="27.86966000" lon="86.22592000">
        <ele>1750.0000</ele>
        <time>2010-01-01T00:12:42Z</time>
      </trkpt>
      <trkpt lat="27.86956000" lon="86.22583000">
        <ele>1742.0000</ele>
        <time>2010-01-01T00:12:52Z</time>
      </trkpt>
      <trkpt lat="27.86957000" lon="86.22580000">
        <ele>1741.0000</ele>
        <time>2010-01-01T00:12:54Z</time>
      </trkpt>
      <trkpt lat="27.86962000" lon="86.22577000">
        <ele>1740.0000</ele>
        <time>2010-01-01T00:12:59Z</time>
      </trkpt>
      <trkpt lat="27.86960000" lon="86.22575000">
        <ele>1739.0000</ele>
        <time>2010-01-01T00:13:01Z</time>
      </trkpt>
      <trkpt lat="27.86957000" lon="86.22574000">
        <ele>1737.0000</ele>
        <time>2010-01-01T00:13:04Z</time>
      </trkpt>
      <trkpt lat="27.86961000" lon="86.22570000">
        <ele>1735.0000</ele>
        <time>2010-01-01T00:13:08Z</time>
      </trkpt>
      <trkpt lat="27.86966000" lon="86.22571000">
        <ele>1737.0000</ele>
        <time>2010-01-01T00:13:12Z</time>
      </trkpt>
      <trkpt lat="27.86966000" lon="86.22569000">
        <ele>1736.0000</ele>
        <time>2010-01-01T00:13:13Z</time>
      </trkpt>
      <trkpt lat="27.86963000" lon="86.22566000">
        <ele>1733.0000</ele>
        <time>2010-01-01T00:13:17Z</time>
      </trkpt>
      <trkpt lat="27.86961000" lon="86.22566000">
        <ele>1732.0000</ele>
        <time>2010-01-01T00:13:18Z</time>
      </trkpt>
      <trkpt lat="27.86960000" lon="86.22563000">
        <ele>1730.0000</ele>
        <time>2010-01-01T00:13:20Z</time>
      </trkpt>
      <trkpt lat="27.86963000" lon="86.22560000">
        <ele>1728.0000</ele>
        <time>2010-01-01T00:13:24Z</time>
      </trkpt>
      <trkpt lat="27.86969000" lon="86.22563000">
        <ele>1732.0000</ele>
        <time>2010-01-01T00:13:29Z</time>
      </trkpt>
      <trkpt lat="27.86966000" lon="86.22550000">
        <ele>1723.0000</ele>
        <time>2010-01-01T00:13:38Z</time>
      </trkpt>
      <trkpt lat="27.86975000" lon="86.22552000">
        <ele>1724.0000</ele>
        <time>2010-01-01T00:13:46Z</time>
      </trkpt>
      <trkpt lat="27.86979000" lon="86.22544000">
        <ele>1720.0000</ele>
        <time>2010-01-01T00:13:52Z</time>
      </trkpt>
      <trkpt lat="27.86973000" lon="86.22527000">
        <ele>1713.0000</ele>
        <time>2010-01-01T00:14:05Z</time>
      </trkpt>
      <trkpt lat="27.86971000" lon="86.22525000">
        <ele>1712.0000</ele>
        <time>2010-01-01T00:14:07Z</time>
      </trkpt>
      <trkpt lat="27.86976000" lon="86.22523000">
        <ele>1711.0000</ele>
        <time>2010-01-01T00:14:12Z</time>
      </trkpt>
      <trkpt lat="27.86974000" lon="86.22518000">
        <ele>1708.0000</ele>
        <time>2010-01-01T00:14:15Z</time>
      </trkpt>
      <trkpt lat="27.86975000" lon="86.22515000">
        <ele>1707.0000</ele>
        <time>2010-01-01T00:14:18Z</time>
      </trkpt>
      <trkpt lat="27.86979000" lon="86.22516000">
        <ele>1707.0000</ele>
        <time>2010-01-01T00:14:21Z</time>
      </trkpt>
      <trkpt lat="27.86979000" lon="86.22512000">
        <ele>1705.0000</ele>
        <time>2010-01-01T00:14:24Z</time>
      </trkpt>
      <trkpt lat="27.86977000" lon="86.22508000">
        <ele>1703.0000</ele>
        <time>2010-01-01T00:14:27Z</time>
      </trkpt>
      <trkpt lat="27.86974000" lon="86.22507000">
        <ele>1702.0000</ele>
        <time>2010-01-01T00:14:30Z</time>
      </trkpt>
      <trkpt lat="27.86971000" lon="86.22508000">
        <ele>1703.0000</ele>
        <time>2010-01-01T00:14:32Z</time>
      </trkpt>
      <trkpt lat="27.86970000" lon="86.22505000">
        <ele>1701.0000</ele>
        <time>2010-01-01T00:14:34Z</time>
      </trkpt>
      <trkpt lat="27.86974000" lon="86.22504000">
        <ele>1701.0000</ele>
        <time>2010-01-01T00:14:38Z</time>
      </trkpt>
      <trkpt lat="27.86980000" lon="86.22498000">
        <ele>1698.0000</ele>
        <time>2010-01-01T00:14:44Z</time>
      </trkpt>
      <trkpt lat="27.86979000" lon="86.22496000">
        <ele>1697.0000</ele>
        <time>2010-01-01T00:14:46Z</time>
      </trkpt>
      <trkpt lat="27.86976000" lon="86.22497000">
        <ele>1697.0000</ele>
        <time>2010-01-01T00:14:48Z</time>
      </trkpt>
      <trkpt lat="27.86977000" lon="86.22495000">
        <ele>1696.0000</ele>
        <time>2010-01-01T00:14:50Z</time>
      </trkpt>
      <trkpt lat="27.86982000" lon="86.22488000">
        <ele>1691.0000</ele>
        <time>2010-01-01T00:14:56Z</time>
      </trkpt>
      <trkpt lat="27.86983000" lon="86.22485000">
        <ele>1689.0000</ele>
        <time>2010-01-01T00:14:58Z</time>
      </trkpt>
      <trkpt lat="27.86982000" lon="86.22482000">
        <ele>1687.0000</ele>
        <time>2010-01-01T00:15:01Z</time>
      </trkpt>
      <trkpt lat="27.86984000" lon="86.22468000">
        <ele>1676.0000</ele>
        <time>2010-01-01T00:15:11Z</time>
      </trkpt>
      <trkpt lat="27.86990000" lon="86.22464000">
        <ele>1672.0000</ele>
        <time>2010-01-01T00:15:16Z</time>
      </trkpt>
      <trkpt lat="27.86982000" lon="86.22461000">
        <ele>1672.0000</ele>
        <time>2010-01-01T00:15:23Z</time>
      </trkpt>
      <trkpt lat="27.86992000" lon="86.22454000">
        <ele>1663.0000</ele>
        <time>2010-01-01T00:15:32Z</time>
      </trkpt>
      <trkpt lat="27.86992000" lon="86.22451000">
        <ele>1661.0000</ele>
        <time>2010-01-01T00:15:35Z</time>
      </trkpt>
      <trkpt lat="27.86989000" lon="86.22451000">
        <ele>1662.0000</ele>
        <time>2010-01-01T00:15:37Z</time>
      </trkpt>
      <trkpt lat="27.86992000" lon="86.22448000">
        <ele>1659.0000</ele>
        <time>2010-01-01T00:15:40Z</time>
      </trkpt>
      <trkpt lat="27.86996000" lon="86.22448000">
        <ele>1657.0000</ele>
        <time>2010-01-01T00:15:43Z</time>
      </trkpt>
      <trkpt lat="27.87000000" lon="86.22449000">
        <ele>1656.0000</ele>
        <time>2010-01-01T00:15:47Z</time>
      </trkpt>
      <trkpt lat="27.86999000" lon="86.22448000">
        <ele>1656.0000</ele>
        <time>2010-01-01T00:15:48Z</time>
      </trkpt>
      <trkpt lat="27.87002000" lon="86.22448000">
        <ele>1654.0000</ele>
        <time>2010-01-01T00:15:50Z</time>
      </trkpt>
      <trkpt lat="27.87004000" lon="86.22453000">
        <ele>1658.0000</ele>
        <time>2010-01-01T00:15:54Z</time>
      </trkpt>
      <trkpt lat="27.87003000" lon="86.22444000">
        <ele>1651.0000</ele>
        <time>2010-01-01T00:16:00Z</time>
      </trkpt>
      <trkpt lat="27.87006000" lon="86.22443000">
        <ele>1649.0000</ele>
        <time>2010-01-01T00:16:03Z</time>
      </trkpt>
      <trkpt lat="27.87014000" lon="86.22451000">
        <ele>1652.0000</ele>
        <time>2010-01-01T00:16:12Z</time>
      </trkpt>
      <trkpt lat="27.87017000" lon="86.22451000">
        <ele>1650.0000</ele>
        <time>2010-01-01T00:16:14Z</time>
      </trkpt>
      <trkpt lat="27.87014000" lon="86.22447000">
        <ele>1647.0000</ele>
        <time>2010-01-01T00:16:18Z</time>
      </trkpt>
      <trkpt lat="27.87013000" lon="86.22443000">
        <ele>1645.0000</ele>
        <time>2010-01-01T00:16:21Z</time>
      </trkpt>
      <trkpt lat="27.87016000" lon="86.22444000">
        <ele>1643.0000</ele>
        <time>2010-01-01T00:16:23Z</time>
      </trkpt>
      <trkpt lat="27.87021000" lon="86.22453000">
        <ele>1651.0000</ele>
        <time>2010-01-01T00:16:31Z</time>
      </trkpt>
      <trkpt lat="27.87025000" lon="86.22455000">
        <ele>1651.0000</ele>
        <time>2010-01-01T00:16:34Z</time>
      </trkpt>
      <trkpt lat="27.87026000" lon="86.22454000">
        <ele>1650.0000</ele>
        <time>2010-01-01T00:16:35Z</time>
      </trkpt>
      <trkpt lat="27.87025000" lon="86.22451000">
        <ele>1646.0000</ele>
        <time>2010-01-01T00:16:37Z</time>
      </trkpt>
      <trkpt lat="27.87028000" lon="86.22448000">
        <ele>1641.0000</ele>
        <time>2010-01-01T00:16:41Z</time>
      </trkpt>
      <trkpt lat="27.87033000" lon="86.22457000">
        <ele>1652.0000</ele>
        <time>2010-01-01T00:16:48Z</time>
      </trkpt>
      <trkpt lat="27.87037000" lon="86.22459000">
        <ele>1653.0000</ele>
        <time>2010-01-01T00:16:52Z</time>
      </trkpt>
      <trkpt lat="27.87039000" lon="86.22462000">
        <ele>1656.0000</ele>
        <time>2010-01-01T00:16:54Z</time>
      </trkpt>
      <trkpt lat="27.87041000" lon="86.22460000">
        <ele>1654.0000</ele>
        <time>2010-01-01T00:16:56Z</time>
      </trkpt>
      <trkpt lat="27.87039000" lon="86.22451000">
        <ele>1643.0000</ele>
        <time>2010-01-01T00:17:03Z</time>
      </trkpt>
      <trkpt lat="27.87043000" lon="86.22451000">
        <ele>1642.0000</ele>
        <time>2010-01-01T00:17:06Z</time>
      </trkpt>
      <trkpt lat="27.87046000" lon="86.22454000">
        <ele>1645.0000</ele>
        <time>2010-01-01T00:17:09Z</time>
      </trkpt>
      <trkpt lat="27.87048000" lon="86.22452000">
        <ele>1642.0000</ele>
        <time>2010-01-01T00:17:12Z</time>
      </trkpt>
      <trkpt lat="27.87044000" lon="86.22444000">
        <ele>1634.0000</ele>
        <time>2010-01-01T00:17:18Z</time>
      </trkpt>
      <trkpt lat="27.87043000" lon="86.22439000">
        <ele>1632.0000</ele>
        <time>2010-01-01T00:17:22Z</time>
      </trkpt>
      <trkpt lat="27.87041000" lon="86.22435000">
        <ele>1631.0000</ele>
        <time>2010-01-01T00:17:25Z</time>
      </trkpt>
      <trkpt lat="27.87041000" lon="86.22431000">
        <ele>1630.0000</ele>
        <time>2010-01-01T00:17:28Z</time>
      </trkpt>
      <trkpt lat="27.87044000" lon="86.22433000">
        <ele>1629.0000</ele>
        <time>2010-01-01T00:17:31Z</time>
      </trkpt>
      <trkpt lat="27.87046000" lon="86.22437000">
        <ele>1631.0000</ele>
        <time>2010-01-01T00:17:34Z</time>
      </trkpt>
      <trkpt lat="27.87052000" lon="86.22442000">
        <ele>1632.0000</ele>
        <time>2010-01-01T00:17:40Z</time>
      </trkpt>
      <trkpt lat="27.87053000" lon="86.22437000">
        <ele>1629.0000</ele>
        <time>2010-01-01T00:17:43Z</time>
      </trkpt>
      <trkpt lat="27.87052000" lon="86.22412000">
        <ele>1617.0000</ele>
        <time>2010-01-01T00:18:01Z</time>
      </trkpt>
      <trkpt lat="27.87050000" lon="86.22398000">
        <ele>1614.0000</ele>
        <time>2010-01-01T00:18:11Z</time>
      </trkpt>
      <trkpt lat="27.87053000" lon="86.22395000">
        <ele>1612.0000</ele>
        <time>2010-01-01T00:18:14Z</time>
      </trkpt>
      <trkpt lat="27.87056000" lon="86.22397000">
        <ele>1611.0000</ele>
        <time>2010-01-01T00:18:17Z</time>
      </trkpt>
      <trkpt lat="27.87058000" lon="86.22396000">
        <ele>1609.0000</ele>
        <time>2010-01-01T00:18:19Z</time>
      </trkpt>
      <trkpt lat="27.87052000" lon="86.22379000">
        <ele>1602.0000</ele>
        <time>2010-01-01T00:18:32Z</time>
      </trkpt>
      <trkpt lat="27.87057000" lon="86.22381000">
        <ele>1601.0000</ele>
        <time>2010-01-01T00:18:36Z</time>
      </trkpt>
      <trkpt lat="27.87058000" lon="86.22383000">
        <ele>1602.0000</ele>
        <time>2010-01-01T00:18:38Z</time>
      </trkpt>
      <trkpt lat="27.87060000" lon="86.22383000">
        <ele>1601.0000</ele>
        <time>2010-01-01T00:18:39Z</time>
      </trkpt>
      <trkpt lat="27.87060000" lon="86.22380000">
        <ele>1599.0000</ele>
        <time>2010-01-01T00:18:41Z</time>
      </trkpt>
      <trkpt lat="27.87070000" lon="86.22387000">
        <ele>1599.0000</ele>
        <time>2010-01-01T00:18:51Z</time>
      </trkpt>
      <trkpt lat="27.87071000" lon="86.22383000">
        <ele>1595.0000</ele>
        <time>2010-01-01T00:18:54Z</time>
      </trkpt>
      <trkpt lat="27.87078000" lon="86.22385000">
        <ele>1593.0000</ele>
        <time>2010-01-01T00:19:00Z</time>
      </trkpt>
      <trkpt lat="27.87082000" lon="86.22381000">
        <ele>1588.0000</ele>
        <time>2010-01-01T00:19:04Z</time>
      </trkpt>
      <trkpt lat="27.87085000" lon="86.22373000">
        <ele>1582.0000</ele>
        <time>2010-01-01T00:19:10Z</time>
      </trkpt>
      <trkpt lat="27.87091000" lon="86.22371000">
        <ele>1576.0000</ele>
        <time>2010-01-01T00:19:15Z</time>
      </trkpt>
      <trkpt lat="27.87091000" lon="86.22368000">
        <ele>1574.0000</ele>
        <time>2010-01-01T00:19:17Z</time>
      </trkpt>
      <trkpt lat="27.87087000" lon="86.22365000">
        <ele>1575.0000</ele>
        <time>2010-01-01T00:19:21Z</time>
      </trkpt>
      <trkpt lat="27.87093000" lon="86.22362000">
        <ele>1569.0000</ele>
        <time>2010-01-01T00:19:26Z</time>
      </trkpt>
      <trkpt lat="27.87097000" lon="86.22367000">
        <ele>1569.0000</ele>
        <time>2010-01-01T00:19:31Z</time>
      </trkpt>
      <trkpt lat="27.87094000" lon="86.22353000">
        <ele>1564.0000</ele>
        <time>2010-01-01T00:19:41Z</time>
      </trkpt>
      <trkpt lat="27.87090000" lon="86.22352000">
        <ele>1566.0000</ele>
        <time>2010-01-01T00:19:45Z</time>
      </trkpt>
      <trkpt lat="27.87085000" lon="86.22352000">
        <ele>1569.0000</ele>
        <time>2010-01-01T00:19:49Z</time>
      </trkpt>
      <trkpt lat="27.87077000" lon="86.22343000">
        <ele>1567.0000</ele>
        <time>2010-01-01T00:19:58Z</time>
      </trkpt>
      <trkpt lat="27.87071000" lon="86.22342000">
        <ele>1568.0000</ele>
        <time>2010-01-01T00:20:02Z</time>
      </trkpt>
      <trkpt lat="27.87068000" lon="86.22339000">
        <ele>1567.0000</ele>
        <time>2010-01-01T00:20:06Z</time>
      </trkpt>
      <trkpt lat="27.87065000" lon="86.22333000">
        <ele>1564.0000</ele>
        <time>2010-01-01T00:20:10Z</time>
      </trkpt>
      <trkpt lat="27.87058000" lon="86.22330000">
        <ele>1563.0000</ele>
        <time>2010-01-01T00:20:16Z</time>
      </trkpt>
      <trkpt lat="27.87053000" lon="86.22322000">
        <ele>1558.0000</ele>
        <time>2010-01-01T00:20:23Z</time>
      </trkpt>
      <trkpt lat="27.87049000" lon="86.22310000">
        <ele>1549.0000</ele>
        <time>2010-01-01T00:20:32Z</time>
      </trkpt>
      <trkpt lat="27.87061000" lon="86.22313000">
        <ele>1551.0000</ele>
        <time>2010-01-01T00:20:42Z</time>
      </trkpt>
      <trkpt lat="27.87065000" lon="86.22318000">
        <ele>1555.0000</ele>
        <time>2010-01-01T00:20:47Z</time>
      </trkpt>
      <trkpt lat="27.87063000" lon="86.22307000">
        <ele>1548.0000</ele>
        <time>2010-01-01T00:20:55Z</time>
      </trkpt>
      <trkpt lat="27.87066000" lon="86.22302000">
        <ele>1543.0000</ele>
        <time>2010-01-01T00:20:59Z</time>
      </trkpt>
      <trkpt lat="27.87076000" lon="86.22308000">
        <ele>1550.0000</ele>
        <time>2010-01-01T00:21:08Z</time>
      </trkpt>
      <trkpt lat="27.87080000" lon="86.22305000">
        <ele>1549.0000</ele>
        <time>2010-01-01T00:21:12Z</time>
      </trkpt>
      <trkpt lat="27.87078000" lon="86.22299000">
        <ele>1537.0000</ele>
        <time>2010-01-01T00:21:17Z</time>
      </trkpt>
      <trkpt lat="27.87080000" lon="86.22297000">
        <ele>1532.0000</ele>
        <time>2010-01-01T00:21:19Z</time>
      </trkpt>
      <trkpt lat="27.87086000" lon="86.22298000">
        <ele>1532.0000</ele>
        <time>2010-01-01T00:21:24Z</time>
      </trkpt>
      <trkpt lat="27.87085000" lon="86.22294000">
        <ele>1525.0000</ele>
        <time>2010-01-01T00:21:27Z</time>
      </trkpt>
      <trkpt lat="27.87093000" lon="86.22299000">
        <ele>1533.0000</ele>
        <time>2010-01-01T00:21:34Z</time>
      </trkpt>
      <trkpt lat="27.87104000" lon="86.22301000">
        <ele>1532.0000</ele>
        <time>2010-01-01T00:21:43Z</time>
      </trkpt>
      <trkpt lat="27.87107000" lon="86.22297000">
        <ele>1525.0000</ele>
        <time>2010-01-01T00:21:47Z</time>
      </trkpt>
      <trkpt lat="27.87109000" lon="86.22298000">
        <ele>1526.0000</ele>
        <time>2010-01-01T00:21:48Z</time>
      </trkpt>
      <trkpt lat="27.87109000" lon="86.22296000">
        <ele>1524.0000</ele>
        <time>2010-01-01T00:21:50Z</time>
      </trkpt>
      <trkpt lat="27.87102000" lon="86.22286000">
        <ele>1510.0000</ele>
        <time>2010-01-01T00:21:59Z</time>
      </trkpt>
      <trkpt lat="27.87110000" lon="86.22283000">
        <ele>1508.0000</ele>
        <time>2010-01-01T00:22:06Z</time>
      </trkpt>
      <trkpt lat="27.87115000" lon="86.22287000">
        <ele>1513.0000</ele>
        <time>2010-01-01T00:22:10Z</time>
      </trkpt>
      <trkpt lat="27.87122000" lon="86.22299000">
        <ele>1527.0000</ele>
        <time>2010-01-01T00:22:21Z</time>
      </trkpt>
      <trkpt lat="27.87130000" lon="86.22302000">
        <ele>1529.0000</ele>
        <time>2010-01-01T00:22:27Z</time>
      </trkpt>
      <trkpt lat="27.87133000" lon="86.22300000">
        <ele>1527.0000</ele>
        <time>2010-01-01T00:22:30Z</time>
      </trkpt>
      <trkpt lat="27.87132000" lon="86.22296000">
        <ele>1523.0000</ele>
        <time>2010-01-01T00:22:33Z</time>
      </trkpt>
      <trkpt lat="27.87137000" lon="86.22295000">
        <ele>1523.0000</ele>
        <time>2010-01-01T00:22:37Z</time>
      </trkpt>
      <trkpt lat="27.87135000" lon="86.22289000">
        <ele>1517.0000</ele>
        <time>2010-01-01T00:22:42Z</time>
      </trkpt>
      <trkpt lat="27.87149000" lon="86.22286000">
        <ele>1515.0000</ele>
        <time>2010-01-01T00:22:53Z</time>
      </trkpt>
      <trkpt lat="27.87156000" lon="86.22288000">
        <ele>1516.0000</ele>
        <time>2010-01-01T00:22:59Z</time>
      </trkpt>
      <trkpt lat="27.87160000" lon="86.22286000">
        <ele>1514.0000</ele>
        <time>2010-01-01T00:23:02Z</time>
      </trkpt>
      <trkpt lat="27.87165000" lon="86.22286000">
        <ele>1514.0000</ele>
        <time>2010-01-01T00:23:06Z</time>
      </trkpt>
      <trkpt lat="27.87182000" lon="86.22281000">
        <ele>1511.0000</ele>
        <time>2010-01-01T00:23:21Z</time>
      </trkpt>
      <trkpt lat="27.87210000" lon="86.22289000">
        <ele>1536.0000</ele>
        <time>2010-01-01T00:23:44Z</time>
      </trkpt>
      <trkpt lat="27.87219000" lon="86.22286000">
        <ele>1535.0000</ele>
        <time>2010-01-01T00:23:51Z</time>
      </trkpt>
      <trkpt lat="27.87219000" lon="86.22289000">
        <ele>1540.0000</ele>
        <time>2010-01-01T00:23:53Z</time>
      </trkpt>
      <trkpt lat="27.87223000" lon="86.22288000">
        <ele>1540.0000</ele>
        <time>2010-01-01T00:23:57Z</time>
      </trkpt>
      <trkpt lat="27.87228000" lon="86.22291000">
        <ele>1555.0000</ele>
        <time>2010-01-01T00:24:01Z</time>
      </trkpt>
      <trkpt lat="27.87229000" lon="86.22296000">
        <ele>1568.0000</ele>
        <time>2010-01-01T00:24:05Z</time>
      </trkpt>
      <trkpt lat="27.87227000" lon="86.22298000">
        <ele>1567.0000</ele>
        <time>2010-01-01T00:24:07Z</time>
      </trkpt>
      <trkpt lat="27.87233000" lon="86.22300000">
        <ele>1586.0000</ele>
        <time>2010-01-01T00:24:12Z</time>
      </trkpt>
      <trkpt lat="27.87236000" lon="86.22299000">
        <ele>1591.0000</ele>
        <time>2010-01-01T00:24:14Z</time>
      </trkpt>
      <trkpt lat="27.87237000" lon="86.22295000">
        <ele>1583.0000</ele>
        <time>2010-01-01T00:24:17Z</time>
      </trkpt>
      <trkpt lat="27.87242000" lon="86.22272000">
        <ele>1528.0000</ele>
        <time>2010-01-01T00:24:34Z</time>
      </trkpt>
      <trkpt lat="27.87243000" lon="86.22268000">
        <ele>1521.0000</ele>
        <time>2010-01-01T00:24:37Z</time>
      </trkpt>
      <trkpt lat="27.87240000" lon="86.22262000">
        <ele>1505.0000</ele>
        <time>2010-01-01T00:24:42Z</time>
      </trkpt>
      <trkpt lat="27.87242000" lon="86.22262000">
        <ele>1506.0000</ele>
        <time>2010-01-01T00:24:43Z</time>
      </trkpt>
      <trkpt lat="27.87245000" lon="86.22267000">
        <ele>1520.0000</ele>
        <time>2010-01-01T00:24:48Z</time>
      </trkpt>
      <trkpt lat="27.87247000" lon="86.22263000">
        <ele>1513.0000</ele>
        <time>2010-01-01T00:24:51Z</time>
      </trkpt>
      <trkpt lat="27.87247000" lon="86.22253000">
        <ele>1487.0000</ele>
        <time>2010-01-01T00:24:58Z</time>
      </trkpt>
      <trkpt lat="27.87242000" lon="86.22249000">
        <ele>1478.0000</ele>
        <time>2010-01-01T00:25:03Z</time>
      </trkpt>
      <trkpt lat="27.87240000" lon="86.22250000">
        <ele>1480.0000</ele>
        <time>2010-01-01T00:25:05Z</time>
      </trkpt>
      <trkpt lat="27.87238000" lon="86.22246000">
        <ele>1474.0000</ele>
        <time>2010-01-01T00:25:08Z</time>
      </trkpt>
      <trkpt lat="27.87235000" lon="86.22245000">
        <ele>1472.0000</ele>
        <time>2010-01-01T00:25:10Z</time>
      </trkpt>
      <trkpt lat="27.87236000" lon="86.22238000">
        <ele>1465.0000</ele>
        <time>2010-01-01T00:25:16Z</time>
      </trkpt>
      <trkpt lat="27.87232000" lon="86.22237000">
        <ele>1463.0000</ele>
        <time>2010-01-01T00:25:19Z</time>
      </trkpt>
      <trkpt lat="27.87222000" lon="86.22241000">
        <ele>1466.0000</ele>
        <time>2010-01-01T00:25:27Z</time>
      </trkpt>
      <trkpt lat="27.87216000" lon="86.22241000">
        <ele>1464.0000</ele>
        <time>2010-01-01T00:25:32Z</time>
      </trkpt>
      <trkpt lat="27.87208000" lon="86.22238000">
        <ele>1460.0000</ele>
        <time>2010-01-01T00:25:39Z</time>
      </trkpt>
      <trkpt lat="27.87189000" lon="86.22238000">
        <ele>1458.0000</ele>
        <time>2010-01-01T00:25:54Z</time>
      </trkpt>
      <trkpt lat="27.87183000" lon="86.22233000">
        <ele>1458.0000</ele>
        <time>2010-01-01T00:26:00Z</time>
      </trkpt>
      <trkpt lat="27.87174000" lon="86.22222000">
        <ele>1453.0000</ele>
        <time>2010-01-01T00:26:11Z</time>
      </trkpt>
      <trkpt lat="27.87161000" lon="86.22216000">
        <ele>1450.0000</ele>
        <time>2010-01-01T00:26:22Z</time>
      </trkpt>
      <trkpt lat="27.87159000" lon="86.22197000">
        <ele>1440.0000</ele>
        <time>2010-01-01T00:26:35Z</time>
      </trkpt>
      <trkpt lat="27.87158000" lon="86.22131000">
        <ele>1423.0000</ele>
        <time>2010-01-01T00:27:22Z</time>
      </trkpt>
      <trkpt lat="27.87141000" lon="86.22118000">
        <ele>1414.0000</ele>
        <time>2010-01-01T00:27:39Z</time>
      </trkpt>
      <trkpt lat="27.87133000" lon="86.22123000">
        <ele>1412.0000</ele>
        <time>2010-01-01T00:27:46Z</time>
      </trkpt>
      <trkpt lat="27.87130000" lon="86.22108000">
        <ele>1410.0000</ele>
        <time>2010-01-01T00:27:57Z</time>
      </trkpt>
      <trkpt lat="27.87138000" lon="86.22110000">
        <ele>1411.0000</ele>
        <time>2010-01-01T00:28:03Z</time>
      </trkpt>
      <trkpt lat="27.87149000" lon="86.22102000">
        <ele>1416.0000</ele>
        <time>2010-01-01T00:28:14Z</time>
      </trkpt>
      <trkpt lat="27.87142000" lon="86.22100000">
        <ele>1411.0000</ele>
        <time>2010-01-01T00:28:20Z</time>
      </trkpt>
      <trkpt lat="27.87140000" lon="86.22093000">
        <ele>1409.0000</ele>
        <time>2010-01-01T00:28:25Z</time>
      </trkpt>
      <trkpt lat="27.87124000" lon="86.22084000">
        <ele>1403.0000</ele>
        <time>2010-01-01T00:28:39Z</time>
      </trkpt>
      <trkpt lat="27.87112000" lon="86.22084000">
        <ele>1401.0000</ele>
        <time>2010-01-01T00:28:49Z</time>
      </trkpt>
      <trkpt lat="27.87083000" lon="86.22072000">
        <ele>1400.0000</ele>
        <time>2010-01-01T00:29:13Z</time>
      </trkpt>
      <trkpt lat="27.87065000" lon="86.22071000">
        <ele>1396.0000</ele>
        <time>2010-01-01T00:29:28Z</time>
      </trkpt>
      <trkpt lat="27.87047000" lon="86.22065000">
        <ele>1398.0000</ele>
        <time>2010-01-01T00:29:43Z</time>
      </trkpt>
      <trkpt lat="27.87046000" lon="86.22065000">
        <ele>1398.0000</ele>
        <time>2010-01-01T00:29:44Z</time>
      </trkpt>
      <trkpt lat="27.87020000" lon="86.22057000">
        <ele>1405.0000</ele>
        <time>2010-01-01T00:30:05Z</time>
      </trkpt>
      <trkpt lat="27.87003000" lon="86.22060000">
        <ele>1401.0000</ele>
        <time>2010-01-01T00:30:19Z</time>
      </trkpt>
      <trkpt lat="27.86990000" lon="86.22069000">
        <ele>1396.0000</ele>
        <time>2010-01-01T00:30:31Z</time>
      </trkpt>
      <trkpt lat="27.86971000" lon="86.22071000">
        <ele>1393.0000</ele>
        <time>2010-01-01T00:30:46Z</time>
      </trkpt>
      <trkpt lat="27.86921000" lon="86.22072000">
        <ele>1390.0000</ele>
        <time>2010-01-01T00:31:27Z</time>
      </trkpt>
      <trkpt lat="27.86789000" lon="86.22080000">
        <ele>1390.0000</ele>
        <time>2010-01-01T00:33:12Z</time>
      </trkpt>
      <trkpt lat="27.86769000" lon="86.22089000">
        <ele>1384.0000</ele>
        <time>2010-01-01T00:33:30Z</time>
      </trkpt>
      <trkpt lat="27.86756000" lon="86.22112000">
        <ele>1380.0000</ele>
        <time>2010-01-01T00:33:49Z</time>
      </trkpt>
      <trkpt lat="27.86719000" lon="86.22122000">
        <ele>1377.0000</ele>
        <time>2010-01-01T00:34:19Z</time>
      </trkpt>
      <trkpt lat="27.86681000" lon="86.22108000">
        <ele>1383.0000</ele>
        <time>2010-01-01T00:34:51Z</time>
      </trkpt>
      <trkpt lat="27.86646000" lon="86.22106000">
        <ele>1377.0000</ele>
        <time>2010-01-01T00:35:19Z</time>
      </trkpt>
      <trkpt lat="27.86585000" lon="86.22116000">
        <ele>1378.0000</ele>
        <time>2010-01-01T00:36:09Z</time>
      </trkpt>
      <trkpt lat="27.86513000" lon="86.22123000">
        <ele>1386.0000</ele>
        <time>2010-01-01T00:37:07Z</time>
      </trkpt>
      <trkpt lat="27.86487000" lon="86.22119000">
        <ele>1384.0000</ele>
        <time>2010-01-01T00:37:28Z</time>
      </trkpt>
      <trkpt lat="27.86456000" lon="86.22122000">
        <ele>1373.0000</ele>
        <time>2010-01-01T00:37:53Z</time>
      </trkpt>
      <trkpt lat="27.86435000" lon="86.22093000">
        <ele>1382.0000</ele>
        <time>2010-01-01T00:38:19Z</time>
      </trkpt>
      <trkpt lat="27.86394000" lon="86.22084000">
        <ele>1362.0000</ele>
        <time>2010-01-01T00:38:53Z</time>
      </trkpt>
      <trkpt lat="27.86360000" lon="86.22084000">
        <ele>1361.0000</ele>
        <time>2010-01-01T00:39:20Z</time>
      </trkpt>
      <trkpt lat="27.86339000" lon="86.22077000">
        <ele>1371.0000</ele>
        <time>2010-01-01T00:39:37Z</time>
      </trkpt>
      <trkpt lat="27.86323000" lon="86.22061000">
        <ele>1402.0000</ele>
        <time>2010-01-01T00:39:54Z</time>
      </trkpt>
      <trkpt lat="27.86304000" lon="86.22073000">
        <ele>1388.0000</ele>
        <time>2010-01-01T00:40:12Z</time>
      </trkpt>
      <trkpt lat="27.86282000" lon="86.22071000">
        <ele>1389.0000</ele>
        <time>2010-01-01T00:40:29Z</time>
      </trkpt>
      <trkpt lat="27.86244000" lon="86.22062000">
        <ele>1385.0000</ele>
        <time>2010-01-01T00:41:01Z</time>
      </trkpt>
      <trkpt lat="27.86207000" lon="86.22031000">
        <ele>1418.0000</ele>
        <time>2010-01-01T00:41:37Z</time>
      </trkpt>
      <trkpt lat="27.86183000" lon="86.22042000">
        <ele>1399.0000</ele>
        <time>2010-01-01T00:41:58Z</time>
      </trkpt>
      <trkpt lat="27.86151000" lon="86.22053000">
        <ele>1387.0000</ele>
        <time>2010-01-01T00:42:25Z</time>
      </trkpt>
      <trkpt lat="27.86121000" lon="86.22079000">
        <ele>1364.0000</ele>
        <time>2010-01-01T00:42:55Z</time>
      </trkpt>
      <trkpt lat="27.86086000" lon="86.22086000">
        <ele>1356.0000</ele>
        <time>2010-01-01T00:43:24Z</time>
      </trkpt>
      <trkpt lat="27.86055000" lon="86.22066000">
        <ele>1390.0000</ele>
        <time>2010-01-01T00:43:52Z</time>
      </trkpt>
      <trkpt lat="27.86033000" lon="86.22082000">
        <ele>1378.0000</ele>
        <time>2010-01-01T00:44:13Z</time>
      </trkpt>
      <trkpt lat="27.86017000" lon="86.22091000">
        <ele>1376.0000</ele>
        <time>2010-01-01T00:44:27Z</time>
      </trkpt>
      <trkpt lat="27.85973000" lon="86.22102000">
        <ele>1371.0000</ele>
        <time>2010-01-01T00:45:04Z</time>
      </trkpt>
      <trkpt lat="27.85926000" lon="86.22108000">
        <ele>1358.0000</ele>
        <time>2010-01-01T00:45:41Z</time>
      </trkpt>
      <trkpt lat="27.85899000" lon="86.22105000">
        <ele>1362.0000</ele>
        <time>2010-01-01T00:46:03Z</time>
      </trkpt>
      <trkpt lat="27.85845000" lon="86.22075000">
        <ele>1378.0000</ele>
        <time>2010-01-01T00:46:51Z</time>
      </trkpt>
      <trkpt lat="27.85738000" lon="86.22027000">
        <ele>1383.0000</ele>
        <time>2010-01-01T00:48:23Z</time>
      </trkpt>
      <trkpt lat="27.85695000" lon="86.22030000">
        <ele>1386.0000</ele>
        <time>2010-01-01T00:48:58Z</time>
      </trkpt>
      <trkpt lat="27.85672000" lon="86.22039000">
        <ele>1375.0000</ele>
        <time>2010-01-01T00:49:17Z</time>
      </trkpt>
      <trkpt lat="27.85615000" lon="86.22045000">
        <ele>1373.0000</ele>
        <time>2010-01-01T00:50:03Z</time>
      </trkpt>
      <trkpt lat="27.85582000" lon="86.22043000">
        <ele>1371.0000</ele>
        <time>2010-01-01T00:50:30Z</time>
      </trkpt>
      <trkpt lat="27.85544000" lon="86.22025000">
        <ele>1349.0000</ele>
        <time>2010-01-01T00:51:03Z</time>
      </trkpt>
      <trkpt lat="27.85447000" lon="86.21968000">
        <ele>1339.0000</ele>
        <time>2010-01-01T00:52:30Z</time>
      </trkpt>
      <trkpt lat="27.85403000" lon="86.21927000">
        <ele>1331.0000</ele>
        <time>2010-01-01T00:53:16Z</time>
      </trkpt>
      <trkpt lat="27.85377000" lon="86.21884000">
        <ele>1332.0000</ele>
        <time>2010-01-01T00:53:53Z</time>
      </trkpt>
      <trkpt lat="27.85342000" lon="86.21870000">
        <ele>1333.0000</ele>
        <time>2010-01-01T00:54:22Z</time>
      </trkpt>
      <trkpt lat="27.85307000" lon="86.21864000">
        <ele>1328.0000</ele>
        <time>2010-01-01T00:54:51Z</time>
      </trkpt>
      <trkpt lat="27.85271000" lon="86.21872000">
        <ele>1317.0000</ele>
        <time>2010-01-01T00:55:20Z</time>
      </trkpt>
      <trkpt lat="27.85236000" lon="86.21876000">
        <ele>1315.0000</ele>
        <time>2010-01-01T00:55:48Z</time>
      </trkpt>
      <trkpt lat="27.85175000" lon="86.21898000">
        <ele>1323.0000</ele>
        <time>2010-01-01T00:56:40Z</time>
      </trkpt>
      <trkpt lat="27.85122000" lon="86.21881000">
        <ele>1338.0000</ele>
        <time>2010-01-01T00:57:24Z</time>
      </trkpt>
      <trkpt lat="27.85021000" lon="86.21867000">
        <ele>1349.0000</ele>
        <time>2010-01-01T00:58:45Z</time>
      </trkpt>
      <trkpt lat="27.84957000" lon="86.21870000">
        <ele>1315.0000</ele>
        <time>2010-01-01T00:59:36Z</time>
      </trkpt>
      <trkpt lat="27.84862000" lon="86.21842000">
        <ele>1286.0000</ele>
        <time>2010-01-01T01:00:55Z</time>
      </trkpt>
      <trkpt lat="27.84818000" lon="86.21837000">
        <ele>1278.0000</ele>
        <time>2010-01-01T01:01:30Z</time>
      </trkpt>
      <trkpt lat="27.84731000" lon="86.21835000">
        <ele>1266.0000</ele>
        <time>2010-01-01T01:02:40Z</time>
      </trkpt>
      <trkpt lat="27.84707000" lon="86.21845000">
        <ele>1268.0000</ele>
        <time>2010-01-01T01:03:01Z</time>
      </trkpt>
      <trkpt lat="27.84604000" lon="86.21807000">
        <ele>1271.0000</ele>
        <time>2010-01-01T01:04:27Z</time>
      </trkpt>
      <trkpt lat="27.84558000" lon="86.21802000">
        <ele>1272.0000</ele>
        <time>2010-01-01T01:05:04Z</time>
      </trkpt>
      <trkpt lat="27.84548000" lon="86.21795000">
        <ele>1270.0000</ele>
        <time>2010-01-01T01:05:14Z</time>
      </trkpt>
      <trkpt lat="27.84541000" lon="86.21779000">
        <ele>1270.0000</ele>
        <time>2010-01-01T01:05:26Z</time>
      </trkpt>
      <trkpt lat="27.84573000" lon="86.21728000">
        <ele>1282.0000</ele>
        <time>2010-01-01T01:06:11Z</time>
      </trkpt>
      <trkpt lat="27.84579000" lon="86.21701000">
        <ele>1286.0000</ele>
        <time>2010-01-01T01:06:30Z</time>
      </trkpt>
      <trkpt lat="27.84579000" lon="86.21679000">
        <ele>1288.0000</ele>
        <time>2010-01-01T01:06:46Z</time>
      </trkpt>
      <trkpt lat="27.84598000" lon="86.21631000">
        <ele>1307.0000</ele>
        <time>2010-01-01T01:07:23Z</time>
      </trkpt>
      <trkpt lat="27.84600000" lon="86.21601000">
        <ele>1319.0000</ele>
        <time>2010-01-01T01:07:44Z</time>
      </trkpt>
      <trkpt lat="27.84610000" lon="86.21531000">
        <ele>1311.0000</ele>
        <time>2010-01-01T01:08:35Z</time>
      </trkpt>
      <trkpt lat="27.84602000" lon="86.21516000">
        <ele>1314.0000</ele>
        <time>2010-01-01T01:08:47Z</time>
      </trkpt>
      <trkpt lat="27.84568000" lon="86.21486000">
        <ele>1319.0000</ele>
        <time>2010-01-01T01:09:22Z</time>
      </trkpt>
      <trkpt lat="27.84548000" lon="86.21482000">
        <ele>1322.0000</ele>
        <time>2010-01-01T01:09:38Z</time>
      </trkpt>
      <trkpt lat="27.84531000" lon="86.21485000">
        <ele>1323.0000</ele>
        <time>2010-01-01T01:09:52Z</time>
      </trkpt>
      <trkpt lat="27.84474034" lon="86.21482372">
        <ele>1362.0000</ele>
        <time>2010-01-01T01:10:37Z</time>
      </trkpt>
      <trkpt lat="27.84409525" lon="86.21478080">
        <ele>1419.0000</ele>
        <time>2010-01-01T01:11:29Z</time>
      </trkpt>
      <trkpt lat="27.84341221" lon="86.21478080">
        <ele>1423.0000</ele>
        <time>2010-01-01T01:12:24Z</time>
      </trkpt>
      <trkpt lat="27.84284300" lon="86.21478080">
        <ele>1419.0000</ele>
        <time>2010-01-01T01:13:09Z</time>
      </trkpt>
      <trkpt lat="27.84234969" lon="86.21473789">
        <ele>1423.0000</ele>
        <time>2010-01-01T01:13:49Z</time>
      </trkpt>
      <trkpt lat="27.84208405" lon="86.21426582">
        <ele>1462.0000</ele>
        <time>2010-01-01T01:14:28Z</time>
      </trkpt>
      <trkpt lat="27.84178048" lon="86.21349334">
        <ele>1530.0000</ele>
        <time>2010-01-01T01:15:28Z</time>
      </trkpt>
      <trkpt lat="27.84113537" lon="86.21327877">
        <ele>1536.0000</ele>
        <time>2010-01-01T01:16:22Z</time>
      </trkpt>
      <trkpt lat="27.84064204" lon="86.21336460">
        <ele>1519.0000</ele>
        <time>2010-01-01T01:17:02Z</time>
      </trkpt>
      <trkpt lat="27.83969334" lon="86.21349334">
        <ele>1552.0000</ele>
        <time>2010-01-01T01:18:19Z</time>
      </trkpt>
      <trkpt lat="27.83889643" lon="86.21383666">
        <ele>1509.0000</ele>
        <time>2010-01-01T01:19:27Z</time>
      </trkpt>
      <trkpt lat="27.83768207" lon="86.21422290">
        <ele>1533.0000</ele>
        <time>2010-01-01T01:21:08Z</time>
      </trkpt>
      <trkpt lat="27.83658154" lon="86.21443748">
        <ele>1575.0000</ele>
        <time>2010-01-01T01:22:37Z</time>
      </trkpt>
      <trkpt lat="27.83601230" lon="86.21422290">
        <ele>1568.0000</ele>
        <time>2010-01-01T01:23:25Z</time>
      </trkpt>
      <trkpt lat="27.83548101" lon="86.21353626">
        <ele>1550.0000</ele>
        <time>2010-01-01T01:24:30Z</time>
      </trkpt>
      <trkpt lat="27.83510151" lon="86.21293544">
        <ele>1554.0000</ele>
        <time>2010-01-01T01:25:22Z</time>
      </trkpt>
      <trkpt lat="27.83472201" lon="86.21254920">
        <ele>1549.0000</ele>
        <time>2010-01-01T01:26:03Z</time>
      </trkpt>
      <trkpt lat="27.83430456" lon="86.21216297">
        <ele>1547.0000</ele>
        <time>2010-01-01T01:26:46Z</time>
      </trkpt>
      <trkpt lat="27.83373531" lon="86.21212005">
        <ele>1549.0000</ele>
        <time>2010-01-01T01:27:32Z</time>
      </trkpt>
      <trkpt lat="27.83327990" lon="86.21224880">
        <ele>1574.0000</ele>
        <time>2010-01-01T01:28:09Z</time>
      </trkpt>
      <trkpt lat="27.83290040" lon="86.21254920">
        <ele>1574.0000</ele>
        <time>2010-01-01T01:28:47Z</time>
      </trkpt>
      <trkpt lat="27.83252089" lon="86.21280670">
        <ele>1557.0000</ele>
        <time>2010-01-01T01:29:22Z</time>
      </trkpt>
      <trkpt lat="27.83217933" lon="86.21310710">
        <ele>1557.0000</ele>
        <time>2010-01-01T01:29:57Z</time>
      </trkpt>
      <trkpt lat="27.83198958" lon="86.21362209">
        <ele>1573.0000</ele>
        <time>2010-01-01T01:30:36Z</time>
      </trkpt>
      <trkpt lat="27.83198958" lon="86.21409416">
        <ele>1583.0000</ele>
        <time>2010-01-01T01:31:10Z</time>
      </trkpt>
      <trkpt lat="27.83221729" lon="86.21460914">
        <ele>1572.0000</ele>
        <time>2010-01-01T01:31:50Z</time>
      </trkpt>
      <trkpt lat="27.83267269" lon="86.21482372">
        <ele>1561.0000</ele>
        <time>2010-01-01T01:32:30Z</time>
      </trkpt>
      <trkpt lat="27.83278655" lon="86.21525287">
        <ele>1541.0000</ele>
        <time>2010-01-01T01:33:02Z</time>
      </trkpt>
      <trkpt lat="27.83244499" lon="86.21546745">
        <ele>1524.0000</ele>
        <time>2010-01-01T01:33:33Z</time>
      </trkpt>
      <trkpt lat="27.83202753" lon="86.21568202">
        <ele>1523.0000</ele>
        <time>2010-01-01T01:34:10Z</time>
      </trkpt>
      <trkpt lat="27.83153417" lon="86.21593952">
        <ele>1532.0000</ele>
        <time>2010-01-01T01:34:53Z</time>
      </trkpt>
      <trkpt lat="27.83092695" lon="86.21645450">
        <ele>1533.0000</ele>
        <time>2010-01-01T01:35:54Z</time>
      </trkpt>
      <trkpt lat="27.83031973" lon="86.21692657">
        <ele>1522.0000</ele>
        <time>2010-01-01T01:36:53Z</time>
      </trkpt>
      <trkpt lat="27.82967455" lon="86.21714115">
        <ele>1521.0000</ele>
        <time>2010-01-01T01:37:47Z</time>
      </trkpt>
      <trkpt lat="27.82902937" lon="86.21735572">
        <ele>1530.0000</ele>
        <time>2010-01-01T01:38:40Z</time>
      </trkpt>
      <trkpt lat="27.82864985" lon="86.21787071">
        <ele>1526.0000</ele>
        <time>2010-01-01T01:39:28Z</time>
      </trkpt>
      <trkpt lat="27.82830828" lon="86.21851444">
        <ele>1529.0000</ele>
        <time>2010-01-01T01:40:21Z</time>
      </trkpt>
      <trkpt lat="27.82800466" lon="86.21924400">
        <ele>1519.0000</ele>
        <time>2010-01-01T01:41:18Z</time>
      </trkpt>
      <trkpt lat="27.82758718" lon="86.21988773">
        <ele>1515.0000</ele>
        <time>2010-01-01T01:42:15Z</time>
      </trkpt>
      <trkpt lat="27.82690404" lon="86.22053146">
        <ele>1495.0000</ele>
        <time>2010-01-01T01:43:26Z</time>
      </trkpt>
      <trkpt lat="27.82618294" lon="86.22108936">
        <ele>1520.0000</ele>
        <time>2010-01-01T01:44:36Z</time>
      </trkpt>
      <trkpt lat="27.82568955" lon="86.22164726">
        <ele>1508.0000</ele>
        <time>2010-01-01T01:45:32Z</time>
      </trkpt>
      <trkpt lat="27.82538592" lon="86.22203350">
        <ele>1496.0000</ele>
        <time>2010-01-01T01:46:08Z</time>
      </trkpt>
      <trkpt lat="27.82477867" lon="86.22216224">
        <ele>1494.0000</ele>
        <time>2010-01-01T01:46:58Z</time>
      </trkpt>
      <trkpt lat="27.82401960" lon="86.22254848">
        <ele>1500.0000</ele>
        <time>2010-01-01T01:48:04Z</time>
      </trkpt>
      <trkpt lat="27.82337438" lon="86.22280597">
        <ele>1475.0000</ele>
        <time>2010-01-01T01:48:59Z</time>
      </trkpt>
      <trkpt lat="27.82288098" lon="86.22314929">
        <ele>1462.0000</ele>
        <time>2010-01-01T01:49:46Z</time>
      </trkpt>
      <trkpt lat="27.82261530" lon="86.22349262">
        <ele>1457.0000</ele>
        <time>2010-01-01T01:50:18Z</time>
      </trkpt>
      <trkpt lat="27.82197008" lon="86.22383594">
        <ele>1461.0000</ele>
        <time>2010-01-01T01:51:15Z</time>
      </trkpt>
      <trkpt lat="27.82140076" lon="86.22387886">
        <ele>1431.0000</ele>
        <time>2010-01-01T01:52:01Z</time>
      </trkpt>
      <trkpt lat="27.82113508" lon="86.22370719">
        <ele>1433.0000</ele>
        <time>2010-01-01T01:52:25Z</time>
      </trkpt>
      <trkpt lat="27.82041393" lon="86.22344970">
        <ele>1409.0000</ele>
        <time>2010-01-01T01:53:26Z</time>
      </trkpt>
      <trkpt lat="27.81973074" lon="86.22302055">
        <ele>1420.0000</ele>
        <time>2010-01-01T01:54:28Z</time>
      </trkpt>
      <trkpt lat="27.81916141" lon="86.22246265">
        <ele>1419.0000</ele>
        <time>2010-01-01T01:55:29Z</time>
      </trkpt>
      <trkpt lat="27.81847821" lon="86.22199058">
        <ele>1439.0000</ele>
        <time>2010-01-01T01:56:33Z</time>
      </trkpt>
      <trkpt lat="27.81779501" lon="86.22126102">
        <ele>1458.0000</ele>
        <time>2010-01-01T01:57:48Z</time>
      </trkpt>
      <trkpt lat="27.81722567" lon="86.22057437">
        <ele>1465.0000</ele>
        <time>2010-01-01T01:58:55Z</time>
      </trkpt>
      <trkpt lat="27.81661837" lon="86.22001647">
        <ele>1458.0000</ele>
        <time>2010-01-01T01:59:57Z</time>
      </trkpt>
      <trkpt lat="27.81593516" lon="86.21937274">
        <ele>1465.0000</ele>
        <time>2010-01-01T02:01:08Z</time>
      </trkpt>
      <trkpt lat="27.81498624" lon="86.21894359">
        <ele>1473.0000</ele>
        <time>2010-01-01T02:02:30Z</time>
      </trkpt>
      <trkpt lat="27.81422710" lon="86.21782779">
        <ele>1475.0000</ele>
        <time>2010-01-01T02:04:10Z</time>
      </trkpt>
      <trkpt lat="27.81278472" lon="86.21722698">
        <ele>1465.0000</ele>
        <time>2010-01-01T02:06:13Z</time>
      </trkpt>
      <trkpt lat="27.81160803" lon="86.21658325">
        <ele>1466.0000</ele>
        <time>2010-01-01T02:07:58Z</time>
      </trkpt>
      <trkpt lat="27.81065907" lon="86.21593952">
        <ele>1469.0000</ele>
        <time>2010-01-01T02:09:26Z</time>
      </trkpt>
      <trkpt lat="27.81001378" lon="86.21555328">
        <ele>1464.0000</ele>
        <time>2010-01-01T02:10:25Z</time>
      </trkpt>
      <trkpt lat="27.80933052" lon="86.21546745">
        <ele>1465.0000</ele>
        <time>2010-01-01T02:11:20Z</time>
      </trkpt>
      <trkpt lat="27.80838154" lon="86.21555328">
        <ele>1447.0000</ele>
        <time>2010-01-01T02:12:36Z</time>
      </trkpt>
      <trkpt lat="27.80754644" lon="86.21516704">
        <ele>1481.0000</ele>
        <time>2010-01-01T02:13:48Z</time>
      </trkpt>
      <trkpt lat="27.80716684" lon="86.21392250">
        <ele>1487.0000</ele>
        <time>2010-01-01T02:15:21Z</time>
      </trkpt>
      <trkpt lat="27.80701501" lon="86.21284961">
        <ele>1491.0000</ele>
        <time>2010-01-01T02:16:38Z</time>
      </trkpt>
      <trkpt lat="27.80678725" lon="86.21229171">
        <ele>1480.0000</ele>
        <time>2010-01-01T02:17:22Z</time>
      </trkpt>
      <trkpt lat="27.80648357" lon="86.21207714">
        <ele>1467.0000</ele>
        <time>2010-01-01T02:17:51Z</time>
      </trkpt>
      <trkpt lat="27.80610397" lon="86.21181964">
        <ele>1447.0000</ele>
        <time>2010-01-01T02:18:26Z</time>
      </trkpt>
      <trkpt lat="27.80542069" lon="86.21220588">
        <ele>1431.0000</ele>
        <time>2010-01-01T02:19:27Z</time>
      </trkpt>
      <trkpt lat="27.80469944" lon="86.21267795">
        <ele>1412.0000</ele>
        <time>2010-01-01T02:20:34Z</time>
      </trkpt>
      <trkpt lat="27.80416799" lon="86.21315002">
        <ele>1419.0000</ele>
        <time>2010-01-01T02:21:28Z</time>
      </trkpt>
      <trkpt lat="27.80359858" lon="86.21379375">
        <ele>1414.0000</ele>
        <time>2010-01-01T02:22:32Z</time>
      </trkpt>
      <trkpt lat="27.80321897" lon="86.21409416">
        <ele>1417.0000</ele>
        <time>2010-01-01T02:23:10Z</time>
      </trkpt>
      <trkpt lat="27.80280140" lon="86.21405124">
        <ele>1436.0000</ele>
        <time>2010-01-01T02:23:43Z</time>
      </trkpt>
      <trkpt lat="27.80238383" lon="86.21366500">
        <ele>1431.0000</ele>
        <time>2010-01-01T02:24:26Z</time>
      </trkpt>
      <trkpt lat="27.80223198" lon="86.21284961">
        <ele>1424.0000</ele>
        <time>2010-01-01T02:25:25Z</time>
      </trkpt>
      <trkpt lat="27.80215606" lon="86.21207714">
        <ele>1439.0000</ele>
        <time>2010-01-01T02:26:20Z</time>
      </trkpt>
      <trkpt lat="27.80185237" lon="86.21126174">
        <ele>1481.0000</ele>
        <time>2010-01-01T02:27:23Z</time>
      </trkpt>
      <trkpt lat="27.80128295" lon="86.21006011">
        <ele>1548.0000</ele>
        <time>2010-01-01T02:29:00Z</time>
      </trkpt>
      <trkpt lat="27.80078944" lon="86.20890140">
        <ele>1607.0000</ele>
        <time>2010-01-01T02:30:31Z</time>
      </trkpt>
      <trkpt lat="27.80025798" lon="86.20778560">
        <ele>1675.0000</ele>
        <time>2010-01-01T02:32:00Z</time>
      </trkpt>
      <trkpt lat="27.79983031" lon="86.20707750">
        <ele>1714.0000</ele>
        <time>2010-01-01T02:33:01Z</time>
      </trkpt>
      <trkpt lat="27.79937476" lon="86.20641231">
        <ele>1778.0000</ele>
        <time>2010-01-01T02:34:01Z</time>
      </trkpt>
      <trkpt lat="27.79901412" lon="86.20555400">
        <ele>1822.0000</ele>
        <time>2010-01-01T02:35:08Z</time>
      </trkpt>
      <trkpt lat="27.79882431" lon="86.20493173">
        <ele>1859.0000</ele>
        <time>2010-01-01T02:35:55Z</time>
      </trkpt>
      <trkpt lat="27.79874838" lon="86.20373010">
        <ele>1881.0000</ele>
        <time>2010-01-01T02:37:20Z</time>
      </trkpt>
      <trkpt lat="27.79888125" lon="86.20263576">
        <ele>1931.0000</ele>
        <time>2010-01-01T02:38:38Z</time>
      </trkpt>
      <trkpt lat="27.79878635" lon="86.20149850">
        <ele>1963.0000</ele>
        <time>2010-01-01T02:39:59Z</time>
      </trkpt>
      <trkpt lat="27.79881541" lon="86.20143413">
        <ele>1965.0000</ele>
        <time>2010-01-01T00:00:00Z</time>
      </trkpt>
      <trkpt lat="27.79827622" lon="86.19924545">
        <ele>1980.0000</ele>
        <time>2010-01-01T00:02:40Z</time>
      </trkpt>
      <trkpt lat="27.79766882" lon="86.19787216">
        <ele>1904.0000</ele>
        <time>2010-01-01T00:04:29Z</time>
      </trkpt>
      <trkpt lat="27.79660585" lon="86.19684219">
        <ele>1768.0000</ele>
        <time>2010-01-01T00:06:21Z</time>
      </trkpt>
      <trkpt lat="27.79523917" lon="86.19615554">
        <ele>1720.0000</ele>
        <time>2010-01-01T00:08:21Z</time>
      </trkpt>
      <trkpt lat="27.79402432" lon="86.19512557">
        <ele>1732.0000</ele>
        <time>2010-01-01T00:10:23Z</time>
      </trkpt>
      <trkpt lat="27.79265760" lon="86.19358062">
        <ele>1653.0000</ele>
        <time>2010-01-01T00:12:57Z</time>
      </trkpt>
      <trkpt lat="27.79174644" lon="86.19186401">
        <ele>1622.0000</ele>
        <time>2010-01-01T00:15:19Z</time>
      </trkpt>
      <trkpt lat="27.79129086" lon="86.19031906">
        <ele>1628.0000</ele>
        <time>2010-01-01T00:17:14Z</time>
      </trkpt>
      <trkpt lat="27.79022783" lon="86.18740081">
        <ele>1556.0000</ele>
        <time>2010-01-01T00:20:58Z</time>
      </trkpt>
      <trkpt lat="27.79022783" lon="86.18499755">
        <ele>1644.0000</ele>
        <time>2010-01-01T00:23:48Z</time>
      </trkpt>
      <trkpt lat="27.78992411" lon="86.18328094">
        <ele>1708.0000</ele>
        <time>2010-01-01T00:25:52Z</time>
      </trkpt>
      <trkpt lat="27.78825361" lon="86.18190765">
        <ele>1766.0000</ele>
        <time>2010-01-01T00:28:38Z</time>
      </trkpt>
      <trkpt lat="27.78688682" lon="86.18122100">
        <ele>1809.0000</ele>
        <time>2010-01-01T00:30:37Z</time>
      </trkpt>
      <trkpt lat="27.78506440" lon="86.18087768">
        <ele>1827.0000</ele>
        <time>2010-01-01T00:33:05Z</time>
      </trkpt>
      <trkpt lat="27.78384944" lon="86.18087768">
        <ele>1838.0000</ele>
        <time>2010-01-01T00:34:42Z</time>
      </trkpt>
      <trkpt lat="27.78157135" lon="86.18070602">
        <ele>1883.0000</ele>
        <time>2010-01-01T00:37:45Z</time>
      </trkpt>
      <trkpt lat="27.78005260" lon="86.18070602">
        <ele>1917.0000</ele>
        <time>2010-01-01T00:39:47Z</time>
      </trkpt>
      <trkpt lat="27.77868571" lon="86.18036270">
        <ele>1959.0000</ele>
        <time>2010-01-01T00:41:39Z</time>
      </trkpt>
      <trkpt lat="27.77716691" lon="86.18036270">
        <ele>1996.0000</ele>
        <time>2010-01-01T00:43:41Z</time>
      </trkpt>
      <trkpt lat="27.77610375" lon="86.18019104">
        <ele>2002.0000</ele>
        <time>2010-01-01T00:45:06Z</time>
      </trkpt>
      <trkpt lat="27.77608000" lon="86.18011000">
        <ele>2004.0000</ele>
        <time>2010-01-01T00:45:13Z</time>
      </trkpt>
      <trkpt lat="27.77597000" lon="86.18014000">
        <ele>2005.0000</ele>
        <time>2010-01-01T00:45:22Z</time>
      </trkpt>
      <trkpt lat="27.77590000" lon="86.18023000">
        <ele>2003.0000</ele>
        <time>2010-01-01T00:45:30Z</time>
      </trkpt>
      <trkpt lat="27.77576000" lon="86.18030000">
        <ele>2002.0000</ele>
        <time>2010-01-01T00:45:42Z</time>
      </trkpt>
      <trkpt lat="27.77570000" lon="86.18028000">
        <ele>2004.0000</ele>
        <time>2010-01-01T00:45:47Z</time>
      </trkpt>
      <trkpt lat="27.77561000" lon="86.18021000">
        <ele>2007.0000</ele>
        <time>2010-01-01T00:45:56Z</time>
      </trkpt>
      <trkpt lat="27.77539000" lon="86.18021000">
        <ele>2010.0000</ele>
        <time>2010-01-01T00:46:14Z</time>
      </trkpt>
      <trkpt lat="27.77522000" lon="86.18013000">
        <ele>2011.0000</ele>
        <time>2010-01-01T00:46:28Z</time>
      </trkpt>
      <trkpt lat="27.77491000" lon="86.17944000">
        <ele>2016.0000</ele>
        <time>2010-01-01T00:47:23Z</time>
      </trkpt>
      <trkpt lat="27.77494000" lon="86.17918000">
        <ele>2019.0000</ele>
        <time>2010-01-01T00:47:42Z</time>
      </trkpt>
      <trkpt lat="27.77499000" lon="86.17893000">
        <ele>2020.0000</ele>
        <time>2010-01-01T00:48:00Z</time>
      </trkpt>
      <trkpt lat="27.77496000" lon="86.17875000">
        <ele>2019.0000</ele>
        <time>2010-01-01T00:48:13Z</time>
      </trkpt>
      <trkpt lat="27.77502000" lon="86.17834000">
        <ele>2025.0000</ele>
        <time>2010-01-01T00:48:42Z</time>
      </trkpt>
      <trkpt lat="27.77491000" lon="86.17810000">
        <ele>2029.0000</ele>
        <time>2010-01-01T00:49:02Z</time>
      </trkpt>
      <trkpt lat="27.77453000" lon="86.17774000">
        <ele>2022.0000</ele>
        <time>2010-01-01T00:49:41Z</time>
      </trkpt>
      <trkpt lat="27.77441000" lon="86.17760000">
        <ele>2018.0000</ele>
        <time>2010-01-01T00:49:55Z</time>
      </trkpt>
      <trkpt lat="27.77428000" lon="86.17736000">
        <ele>2016.0000</ele>
        <time>2010-01-01T00:50:15Z</time>
      </trkpt>
      <trkpt lat="27.77427000" lon="86.17718000">
        <ele>2022.0000</ele>
        <time>2010-01-01T00:50:28Z</time>
      </trkpt>
      <trkpt lat="27.77428000" lon="86.17701000">
        <ele>2029.0000</ele>
        <time>2010-01-01T00:50:40Z</time>
      </trkpt>
      <trkpt lat="27.77421000" lon="86.17688000">
        <ele>2030.0000</ele>
        <time>2010-01-01T00:50:51Z</time>
      </trkpt>
      <trkpt lat="27.77410000" lon="86.17675000">
        <ele>2028.0000</ele>
        <time>2010-01-01T00:51:03Z</time>
      </trkpt>
      <trkpt lat="27.77396000" lon="86.17663000">
        <ele>2027.0000</ele>
        <time>2010-01-01T00:51:17Z</time>
      </trkpt>
      <trkpt lat="27.77363000" lon="86.17644000">
        <ele>2026.0000</ele>
        <time>2010-01-01T00:51:47Z</time>
      </trkpt>
      <trkpt lat="27.77350000" lon="86.17643000">
        <ele>2024.0000</ele>
        <time>2010-01-01T00:51:58Z</time>
      </trkpt>
      <trkpt lat="27.77346000" lon="86.17635000">
        <ele>2026.0000</ele>
        <time>2010-01-01T00:52:04Z</time>
      </trkpt>
      <trkpt lat="27.77333000" lon="86.17622000">
        <ele>2030.0000</ele>
        <time>2010-01-01T00:52:18Z</time>
      </trkpt>
      <trkpt lat="27.77323000" lon="86.17621000">
        <ele>2029.0000</ele>
        <time>2010-01-01T00:52:26Z</time>
      </trkpt>
      <trkpt lat="27.77314000" lon="86.17616000">
        <ele>2029.0000</ele>
        <time>2010-01-01T00:52:34Z</time>
      </trkpt>
      <trkpt lat="27.77289000" lon="86.17632000">
        <ele>2018.0000</ele>
        <time>2010-01-01T00:52:57Z</time>
      </trkpt>
      <trkpt lat="27.77273000" lon="86.17639000">
        <ele>2013.0000</ele>
        <time>2010-01-01T00:53:11Z</time>
      </trkpt>
      <trkpt lat="27.77261000" lon="86.17642000">
        <ele>2012.0000</ele>
        <time>2010-01-01T00:53:21Z</time>
      </trkpt>
      <trkpt lat="27.77241000" lon="86.17643000">
        <ele>2013.0000</ele>
        <time>2010-01-01T00:53:37Z</time>
      </trkpt>
      <trkpt lat="27.77193000" lon="86.17669000">
        <ele>2015.0000</ele>
        <time>2010-01-01T00:54:19Z</time>
      </trkpt>
      <trkpt lat="27.77175000" lon="86.17670000">
        <ele>2016.0000</ele>
        <time>2010-01-01T00:54:34Z</time>
      </trkpt>
      <trkpt lat="27.77133000" lon="86.17684000">
        <ele>2013.0000</ele>
        <time>2010-01-01T00:55:09Z</time>
      </trkpt>
      <trkpt lat="27.77123000" lon="86.17696000">
        <ele>2011.0000</ele>
        <time>2010-01-01T00:55:20Z</time>
      </trkpt>
      <trkpt lat="27.77112000" lon="86.17705000">
        <ele>2010.0000</ele>
        <time>2010-01-01T00:55:31Z</time>
      </trkpt>
      <trkpt lat="27.77078000" lon="86.17724000">
        <ele>2007.0000</ele>
        <time>2010-01-01T00:56:02Z</time>
      </trkpt>
      <trkpt lat="27.77066000" lon="86.17734000">
        <ele>2006.0000</ele>
        <time>2010-01-01T00:56:14Z</time>
      </trkpt>
      <trkpt lat="27.77059000" lon="86.17737000">
        <ele>2008.0000</ele>
        <time>2010-01-01T00:56:20Z</time>
      </trkpt>
      <trkpt lat="27.77033000" lon="86.17744000">
        <ele>2018.0000</ele>
        <time>2010-01-01T00:56:41Z</time>
      </trkpt>
      <trkpt lat="27.77022000" lon="86.17750000">
        <ele>2022.0000</ele>
        <time>2010-01-01T00:56:51Z</time>
      </trkpt>
      <trkpt lat="27.77009000" lon="86.17751000">
        <ele>2023.0000</ele>
        <time>2010-01-01T00:57:01Z</time>
      </trkpt>
      <trkpt lat="27.76975000" lon="86.17731000">
        <ele>2024.0000</ele>
        <time>2010-01-01T00:57:32Z</time>
      </trkpt>
      <trkpt lat="27.76943000" lon="86.17716000">
        <ele>2018.0000</ele>
        <time>2010-01-01T00:58:00Z</time>
      </trkpt>
      <trkpt lat="27.76908000" lon="86.17690000">
        <ele>2023.0000</ele>
        <time>2010-01-01T00:58:33Z</time>
      </trkpt>
      <trkpt lat="27.76895000" lon="86.17693000">
        <ele>2021.0000</ele>
        <time>2010-01-01T00:58:44Z</time>
      </trkpt>
      <trkpt lat="27.76870000" lon="86.17678000">
        <ele>2026.0000</ele>
        <time>2010-01-01T00:59:06Z</time>
      </trkpt>
      <trkpt lat="27.76854000" lon="86.17675000">
        <ele>2026.0000</ele>
        <time>2010-01-01T00:59:19Z</time>
      </trkpt>
      <trkpt lat="27.76818000" lon="86.17660000">
        <ele>2034.0000</ele>
        <time>2010-01-01T00:59:50Z</time>
      </trkpt>
      <trkpt lat="27.76801000" lon="86.17667000">
        <ele>2031.0000</ele>
        <time>2010-01-01T01:00:05Z</time>
      </trkpt>
      <trkpt lat="27.76787000" lon="86.17682000">
        <ele>2022.0000</ele>
        <time>2010-01-01T01:00:20Z</time>
      </trkpt>
      <trkpt lat="27.76774000" lon="86.17678000">
        <ele>2023.0000</ele>
        <time>2010-01-01T01:00:31Z</time>
      </trkpt>
      <trkpt lat="27.76746000" lon="86.17668000">
        <ele>2027.0000</ele>
        <time>2010-01-01T01:00:54Z</time>
      </trkpt>
      <trkpt lat="27.76707000" lon="86.17644000">
        <ele>2041.0000</ele>
        <time>2010-01-01T01:01:30Z</time>
      </trkpt>
      <trkpt lat="27.76684000" lon="86.17632000">
        <ele>2040.0000</ele>
        <time>2010-01-01T01:01:50Z</time>
      </trkpt>
      <trkpt lat="27.76660000" lon="86.17612000">
        <ele>2038.0000</ele>
        <time>2010-01-01T01:02:14Z</time>
      </trkpt>
      <trkpt lat="27.76646000" lon="86.17596000">
        <ele>2027.0000</ele>
        <time>2010-01-01T01:02:30Z</time>
      </trkpt>
      <trkpt lat="27.76642000" lon="86.17602000">
        <ele>2027.0000</ele>
        <time>2010-01-01T01:02:35Z</time>
      </trkpt>
      <trkpt lat="27.76647000" lon="86.17609000">
        <ele>2031.0000</ele>
        <time>2010-01-01T01:02:42Z</time>
      </trkpt>
      <trkpt lat="27.76646000" lon="86.17617000">
        <ele>2028.0000</ele>
        <time>2010-01-01T01:02:47Z</time>
      </trkpt>
      <trkpt lat="27.76648000" lon="86.17626000">
        <ele>2024.0000</ele>
        <time>2010-01-01T01:02:54Z</time>
      </trkpt>
      <trkpt lat="27.76645000" lon="86.17641000">
        <ele>2015.0000</ele>
        <time>2010-01-01T01:03:05Z</time>
      </trkpt>
      <trkpt lat="27.76648000" lon="86.17626000">
        <ele>2024.0000</ele>
        <time>2010-01-01T01:03:16Z</time>
      </trkpt>
      <trkpt lat="27.76646000" lon="86.17617000">
        <ele>2028.0000</ele>
        <time>2010-01-01T01:03:22Z</time>
      </trkpt>
      <trkpt lat="27.76647000" lon="86.17609000">
        <ele>2031.0000</ele>
        <time>2010-01-01T01:03:28Z</time>
      </trkpt>
      <trkpt lat="27.76642000" lon="86.17602000">
        <ele>2027.0000</ele>
        <time>2010-01-01T01:03:34Z</time>
      </trkpt>
      <trkpt lat="27.76646000" lon="86.17596000">
        <ele>2027.0000</ele>
        <time>2010-01-01T01:03:40Z</time>
      </trkpt>
      <trkpt lat="27.76637000" lon="86.17587000">
        <ele>2019.0000</ele>
        <time>2010-01-01T01:03:49Z</time>
      </trkpt>
      <trkpt lat="27.76622000" lon="86.17563000">
        <ele>2008.0000</ele>
        <time>2010-01-01T01:04:10Z</time>
      </trkpt>
      <trkpt lat="27.76622000" lon="86.17553000">
        <ele>2008.0000</ele>
        <time>2010-01-01T01:04:17Z</time>
      </trkpt>
      <trkpt lat="27.76636000" lon="86.17534000">
        <ele>2018.0000</ele>
        <time>2010-01-01T01:04:35Z</time>
      </trkpt>
      <trkpt lat="27.76645000" lon="86.17515000">
        <ele>2021.0000</ele>
        <time>2010-01-01T01:04:50Z</time>
      </trkpt>
      <trkpt lat="27.76646000" lon="86.17499000">
        <ele>2020.0000</ele>
        <time>2010-01-01T01:05:01Z</time>
      </trkpt>
      <trkpt lat="27.76640000" lon="86.17427000">
        <ele>2030.0000</ele>
        <time>2010-01-01T01:05:53Z</time>
      </trkpt>
      <trkpt lat="27.76634000" lon="86.17401000">
        <ele>2033.0000</ele>
        <time>2010-01-01T01:06:12Z</time>
      </trkpt>
      <trkpt lat="27.76623000" lon="86.17385000">
        <ele>2031.0000</ele>
        <time>2010-01-01T01:06:26Z</time>
      </trkpt>
      <trkpt lat="27.76609000" lon="86.17371000">
        <ele>2028.0000</ele>
        <time>2010-01-01T01:06:41Z</time>
      </trkpt>
      <trkpt lat="27.76602000" lon="86.17356000">
        <ele>2030.0000</ele>
        <time>2010-01-01T01:06:53Z</time>
      </trkpt>
      <trkpt lat="27.76577000" lon="86.17320000">
        <ele>2034.0000</ele>
        <time>2010-01-01T01:07:25Z</time>
      </trkpt>
      <trkpt lat="27.76563000" lon="86.17308000">
        <ele>2033.0000</ele>
        <time>2010-01-01T01:07:39Z</time>
      </trkpt>
      <trkpt lat="27.76525000" lon="86.17296000">
        <ele>2023.0000</ele>
        <time>2010-01-01T01:08:11Z</time>
      </trkpt>
      <trkpt lat="27.76505000" lon="86.17282000">
        <ele>2016.0000</ele>
        <time>2010-01-01T01:08:30Z</time>
      </trkpt>
      <trkpt lat="27.76494000" lon="86.17266000">
        <ele>2013.0000</ele>
        <time>2010-01-01T01:08:44Z</time>
      </trkpt>
      <trkpt lat="27.76494000" lon="86.17249000">
        <ele>2014.0000</ele>
        <time>2010-01-01T01:08:56Z</time>
      </trkpt>
      <trkpt lat="27.76498000" lon="86.17233000">
        <ele>2016.0000</ele>
        <time>2010-01-01T01:09:08Z</time>
      </trkpt>
      <trkpt lat="27.76499000" lon="86.17202000">
        <ele>2015.0000</ele>
        <time>2010-01-01T01:09:30Z</time>
      </trkpt>
      <trkpt lat="27.76505000" lon="86.17164000">
        <ele>2015.0000</ele>
        <time>2010-01-01T01:09:57Z</time>
      </trkpt>
      <trkpt lat="27.76496000" lon="86.17147000">
        <ele>2010.0000</ele>
        <time>2010-01-01T01:10:11Z</time>
      </trkpt>
      <trkpt lat="27.76481000" lon="86.17113000">
        <ele>2006.0000</ele>
        <time>2010-01-01T01:10:38Z</time>
      </trkpt>
      <trkpt lat="27.76481000" lon="86.17100000">
        <ele>2007.0000</ele>
        <time>2010-01-01T01:10:48Z</time>
      </trkpt>
      <trkpt lat="27.76477000" lon="86.17088000">
        <ele>2005.0000</ele>
        <time>2010-01-01T01:10:57Z</time>
      </trkpt>
      <trkpt lat="27.76445000" lon="86.17050000">
        <ele>2000.0000</ele>
        <time>2010-01-01T01:11:34Z</time>
      </trkpt>
      <trkpt lat="27.76432000" lon="86.17044000">
        <ele>1996.0000</ele>
        <time>2010-01-01T01:11:45Z</time>
      </trkpt>
      <trkpt lat="27.76417000" lon="86.17034000">
        <ele>1991.0000</ele>
        <time>2010-01-01T01:11:59Z</time>
      </trkpt>
      <trkpt lat="27.76414000" lon="86.17022000">
        <ele>1991.0000</ele>
        <time>2010-01-01T01:12:08Z</time>
      </trkpt>
      <trkpt lat="27.76414000" lon="86.17021000">
        <ele>1991.0000</ele>
        <time>2010-01-01T01:12:09Z</time>
      </trkpt>
      <trkpt lat="27.76413000" lon="86.17016000">
        <ele>1992.0000</ele>
        <time>2010-01-01T01:12:12Z</time>
      </trkpt>
      <trkpt lat="27.76401000" lon="86.17001000">
        <ele>1989.0000</ele>
        <time>2010-01-01T01:12:27Z</time>
      </trkpt>
      <trkpt lat="27.76389000" lon="86.16990000">
        <ele>1987.0000</ele>
        <time>2010-01-01T01:12:39Z</time>
      </trkpt>
      <trkpt lat="27.76379000" lon="86.16986000">
        <ele>1984.0000</ele>
        <time>2010-01-01T01:12:47Z</time>
      </trkpt>
      <trkpt lat="27.76358000" lon="86.16986000">
        <ele>1979.0000</ele>
        <time>2010-01-01T01:13:04Z</time>
      </trkpt>
      <trkpt lat="27.76337000" lon="86.16997000">
        <ele>1979.0000</ele>
        <time>2010-01-01T01:13:23Z</time>
      </trkpt>
      <trkpt lat="27.76321000" lon="86.17008000">
        <ele>1977.0000</ele>
        <time>2010-01-01T01:13:38Z</time>
      </trkpt>
      <trkpt lat="27.76275000" lon="86.17021000">
        <ele>1969.0000</ele>
        <time>2010-01-01T01:14:16Z</time>
      </trkpt>
      <trkpt lat="27.76238000" lon="86.17041000">
        <ele>1963.0000</ele>
        <time>2010-01-01T01:14:49Z</time>
      </trkpt>
      <trkpt lat="27.76219000" lon="86.17047000">
        <ele>1960.0000</ele>
        <time>2010-01-01T01:15:04Z</time>
      </trkpt>
      <trkpt lat="27.76207000" lon="86.17055000">
        <ele>1961.0000</ele>
        <time>2010-01-01T01:15:15Z</time>
      </trkpt>
      <trkpt lat="27.76189000" lon="86.17060000">
        <ele>1958.0000</ele>
        <time>2010-01-01T01:15:30Z</time>
      </trkpt>
      <trkpt lat="27.76175000" lon="86.17068000">
        <ele>1957.0000</ele>
        <time>2010-01-01T01:15:43Z</time>
      </trkpt>
      <trkpt lat="27.76155000" lon="86.17092000">
        <ele>1955.0000</ele>
        <time>2010-01-01T01:16:06Z</time>
      </trkpt>
      <trkpt lat="27.76149000" lon="86.17113000">
        <ele>1953.0000</ele>
        <time>2010-01-01T01:16:22Z</time>
      </trkpt>
      <trkpt lat="27.76139000" lon="86.17122000">
        <ele>1951.0000</ele>
        <time>2010-01-01T01:16:32Z</time>
      </trkpt>
      <trkpt lat="27.76094000" lon="86.17172000">
        <ele>1941.0000</ele>
        <time>2010-01-01T01:17:23Z</time>
      </trkpt>
      <trkpt lat="27.76056000" lon="86.17186000">
        <ele>1936.0000</ele>
        <time>2010-01-01T01:17:55Z</time>
      </trkpt>
      <trkpt lat="27.76040000" lon="86.17196000">
        <ele>1933.0000</ele>
        <time>2010-01-01T01:18:09Z</time>
      </trkpt>
      <trkpt lat="27.76022000" lon="86.17201000">
        <ele>1929.0000</ele>
        <time>2010-01-01T01:18:24Z</time>
      </trkpt>
      <trkpt lat="27.76001000" lon="86.17205000">
        <ele>1924.0000</ele>
        <time>2010-01-01T01:18:41Z</time>
      </trkpt>
      <trkpt lat="27.75988000" lon="86.17203000">
        <ele>1919.0000</ele>
        <time>2010-01-01T01:18:52Z</time>
      </trkpt>
      <trkpt lat="27.75983000" lon="86.17196000">
        <ele>1916.0000</ele>
        <time>2010-01-01T01:18:58Z</time>
      </trkpt>
      <trkpt lat="27.75983000" lon="86.17195000">
        <ele>1916.0000</ele>
        <time>2010-01-01T01:18:59Z</time>
      </trkpt>
      <trkpt lat="27.75978000" lon="86.17190000">
        <ele>1915.0000</ele>
        <time>2010-01-01T01:19:04Z</time>
      </trkpt>
      <trkpt lat="27.75977000" lon="86.17179000">
        <ele>1917.0000</ele>
        <time>2010-01-01T01:19:12Z</time>
      </trkpt>
      <trkpt lat="27.75987000" lon="86.17173000">
        <ele>1922.0000</ele>
        <time>2010-01-01T01:19:21Z</time>
      </trkpt>
      <trkpt lat="27.75988000" lon="86.17142000">
        <ele>1921.0000</ele>
        <time>2010-01-01T01:19:43Z</time>
      </trkpt>
      <trkpt lat="27.75987000" lon="86.17123000">
        <ele>1917.0000</ele>
        <time>2010-01-01T01:19:56Z</time>
      </trkpt>
      <trkpt lat="27.76002000" lon="86.17100000">
        <ele>1917.0000</ele>
        <time>2010-01-01T01:20:17Z</time>
      </trkpt>
      <trkpt lat="27.76008000" lon="86.17084000">
        <ele>1914.0000</ele>
        <time>2010-01-01T01:20:29Z</time>
      </trkpt>
      <trkpt lat="27.76020000" lon="86.17065000">
        <ele>1914.0000</ele>
        <time>2010-01-01T01:20:46Z</time>
      </trkpt>
      <trkpt lat="27.76025000" lon="86.17050000">
        <ele>1911.0000</ele>
        <time>2010-01-01T01:20:57Z</time>
      </trkpt>
      <trkpt lat="27.76030000" lon="86.17027000">
        <ele>1902.0000</ele>
        <time>2010-01-01T01:21:14Z</time>
      </trkpt>
      <trkpt lat="27.76037000" lon="86.17008000">
        <ele>1898.0000</ele>
        <time>2010-01-01T01:21:28Z</time>
      </trkpt>
      <trkpt lat="27.76047000" lon="86.17001000">
        <ele>1901.0000</ele>
        <time>2010-01-01T01:21:38Z</time>
      </trkpt>
      <trkpt lat="27.76065000" lon="86.16965000">
        <ele>1891.0000</ele>
        <time>2010-01-01T01:22:07Z</time>
      </trkpt>
      <trkpt lat="27.76065000" lon="86.16951000">
        <ele>1886.0000</ele>
        <time>2010-01-01T01:22:17Z</time>
      </trkpt>
      <trkpt lat="27.76069000" lon="86.16938000">
        <ele>1883.0000</ele>
        <time>2010-01-01T01:22:27Z</time>
      </trkpt>
      <trkpt lat="27.76080000" lon="86.16927000">
        <ele>1882.0000</ele>
        <time>2010-01-01T01:22:38Z</time>
      </trkpt>
      <trkpt lat="27.76093000" lon="86.16926000">
        <ele>1885.0000</ele>
        <time>2010-01-01T01:22:49Z</time>
      </trkpt>
      <trkpt lat="27.76104000" lon="86.16916000">
        <ele>1884.0000</ele>
        <time>2010-01-01T01:23:00Z</time>
      </trkpt>
      <trkpt lat="27.76117000" lon="86.16918000">
        <ele>1889.0000</ele>
        <time>2010-01-01T01:23:11Z</time>
      </trkpt>
      <trkpt lat="27.76128000" lon="86.16923000">
        <ele>1894.0000</ele>
        <time>2010-01-01T01:23:20Z</time>
      </trkpt>
      <trkpt lat="27.76137000" lon="86.16922000">
        <ele>1896.0000</ele>
        <time>2010-01-01T01:23:27Z</time>
      </trkpt>
      <trkpt lat="27.76157000" lon="86.16915000">
        <ele>1903.0000</ele>
        <time>2010-01-01T01:23:44Z</time>
      </trkpt>
      <trkpt lat="27.76171000" lon="86.16902000">
        <ele>1904.0000</ele>
        <time>2010-01-01T01:23:59Z</time>
      </trkpt>
      <trkpt lat="27.76181000" lon="86.16883000">
        <ele>1900.0000</ele>
        <time>2010-01-01T01:24:14Z</time>
      </trkpt>
      <trkpt lat="27.76190000" lon="86.16876000">
        <ele>1899.0000</ele>
        <time>2010-01-01T01:24:23Z</time>
      </trkpt>
      <trkpt lat="27.76207000" lon="86.16873000">
        <ele>1899.0000</ele>
        <time>2010-01-01T01:24:37Z</time>
      </trkpt>
      <trkpt lat="27.76230000" lon="86.16875000">
        <ele>1901.0000</ele>
        <time>2010-01-01T01:24:55Z</time>
      </trkpt>
      <trkpt lat="27.76262000" lon="86.16840000">
        <ele>1894.0000</ele>
        <time>2010-01-01T01:25:31Z</time>
      </trkpt>
      <trkpt lat="27.76276000" lon="86.16819000">
        <ele>1895.0000</ele>
        <time>2010-01-01T01:25:50Z</time>
      </trkpt>
      <trkpt lat="27.76284000" lon="86.16802000">
        <ele>1896.0000</ele>
        <time>2010-01-01T01:26:03Z</time>
      </trkpt>
      <trkpt lat="27.76291000" lon="86.16776000">
        <ele>1893.0000</ele>
        <time>2010-01-01T01:26:22Z</time>
      </trkpt>
      <trkpt lat="27.76304000" lon="86.16757000">
        <ele>1891.0000</ele>
        <time>2010-01-01T01:26:39Z</time>
      </trkpt>
      <trkpt lat="27.76322000" lon="86.16735000">
        <ele>1893.0000</ele>
        <time>2010-01-01T01:27:01Z</time>
      </trkpt>
      <trkpt lat="27.76339000" lon="86.16719000">
        <ele>1897.0000</ele>
        <time>2010-01-01T01:27:18Z</time>
      </trkpt>
      <trkpt lat="27.76365000" lon="86.16709000">
        <ele>1906.0000</ele>
        <time>2010-01-01T01:27:40Z</time>
      </trkpt>
      <trkpt lat="27.76380000" lon="86.16701000">
        <ele>1907.0000</ele>
        <time>2010-01-01T01:27:54Z</time>
      </trkpt>
      <trkpt lat="27.76388000" lon="86.16693000">
        <ele>1908.0000</ele>
        <time>2010-01-01T01:28:02Z</time>
      </trkpt>
      <trkpt lat="27.76397000" lon="86.16682000">
        <ele>1905.0000</ele>
        <time>2010-01-01T01:28:13Z</time>
      </trkpt>
      <trkpt lat="27.76402000" lon="86.16679000">
        <ele>1906.0000</ele>
        <time>2010-01-01T01:28:17Z</time>
      </trkpt>
      <trkpt lat="27.76406000" lon="86.16677000">
        <ele>1906.0000</ele>
        <time>2010-01-01T01:28:21Z</time>
      </trkpt>
      <trkpt lat="27.76414000" lon="86.16677000">
        <ele>1909.0000</ele>
        <time>2010-01-01T01:28:27Z</time>
      </trkpt>
      <trkpt lat="27.76422000" lon="86.16670000">
        <ele>1910.0000</ele>
        <time>2010-01-01T01:28:35Z</time>
      </trkpt>
      <trkpt lat="27.76435000" lon="86.16651000">
        <ele>1910.0000</ele>
        <time>2010-01-01T01:28:52Z</time>
      </trkpt>
      <trkpt lat="27.76444000" lon="86.16644000">
        <ele>1912.0000</ele>
        <time>2010-01-01T01:29:01Z</time>
      </trkpt>
      <trkpt lat="27.76456000" lon="86.16623000">
        <ele>1908.0000</ele>
        <time>2010-01-01T01:29:19Z</time>
      </trkpt>
      <trkpt lat="27.76479000" lon="86.16590000">
        <ele>1908.0000</ele>
        <time>2010-01-01T01:29:49Z</time>
      </trkpt>
      <trkpt lat="27.76496000" lon="86.16570000">
        <ele>1909.0000</ele>
        <time>2010-01-01T01:30:08Z</time>
      </trkpt>
      <trkpt lat="27.76527000" lon="86.16537000">
        <ele>1912.0000</ele>
        <time>2010-01-01T01:30:42Z</time>
      </trkpt>
      <trkpt lat="27.76587000" lon="86.16521000">
        <ele>1923.0000</ele>
        <time>2010-01-01T01:31:32Z</time>
      </trkpt>
      <trkpt lat="27.76641000" lon="86.16501000">
        <ele>1929.0000</ele>
        <time>2010-01-01T01:32:17Z</time>
      </trkpt>
      <trkpt lat="27.76669000" lon="86.16496000">
        <ele>1935.0000</ele>
        <time>2010-01-01T01:32:40Z</time>
      </trkpt>
      <trkpt lat="27.76706000" lon="86.16477000">
        <ele>1939.0000</ele>
        <time>2010-01-01T01:33:12Z</time>
      </trkpt>
      <trkpt lat="27.76731000" lon="86.16472000">
        <ele>1942.0000</ele>
        <time>2010-01-01T01:33:33Z</time>
      </trkpt>
      <trkpt lat="27.76749000" lon="86.16466000">
        <ele>1939.0000</ele>
        <time>2010-01-01T01:33:48Z</time>
      </trkpt>
      <trkpt lat="27.76771000" lon="86.16469000">
        <ele>1946.0000</ele>
        <time>2010-01-01T01:34:05Z</time>
      </trkpt>
      <trkpt lat="27.76830000" lon="86.16472000">
        <ele>1953.0000</ele>
        <time>2010-01-01T00:00:00Z</time>
      </trkpt>
      <trkpt lat="27.76848000" lon="86.16465000">
        <ele>1954.0000</ele>
        <time>2010-01-01T00:00:15Z</time>
      </trkpt>
      <trkpt lat="27.76870000" lon="86.16472000">
        <ele>1964.0000</ele>
        <time>2010-01-01T00:00:33Z</time>
      </trkpt>
      <trkpt lat="27.76886000" lon="86.16472000">
        <ele>1963.0000</ele>
        <time>2010-01-01T00:00:46Z</time>
      </trkpt>
      <trkpt lat="27.76909000" lon="86.16467000">
        <ele>1961.0000</ele>
        <time>2010-01-01T00:01:05Z</time>
      </trkpt>
      <trkpt lat="27.76931000" lon="86.16467000">
        <ele>1964.0000</ele>
        <time>2010-01-01T00:01:22Z</time>
      </trkpt>
      <trkpt lat="27.76948000" lon="86.16474000">
        <ele>1971.0000</ele>
        <time>2010-01-01T00:01:37Z</time>
      </trkpt>
      <trkpt lat="27.76962000" lon="86.16485000">
        <ele>1980.0000</ele>
        <time>2010-01-01T00:01:50Z</time>
      </trkpt>
      <trkpt lat="27.76981000" lon="86.16482000">
        <ele>1980.0000</ele>
        <time>2010-01-01T00:02:06Z</time>
      </trkpt>
      <trkpt lat="27.77025000" lon="86.16441000">
        <ele>1969.0000</ele>
        <time>2010-01-01T00:02:51Z</time>
      </trkpt>
      <trkpt lat="27.77040000" lon="86.16432000">
        <ele>1971.0000</ele>
        <time>2010-01-01T00:03:05Z</time>
      </trkpt>
      <trkpt lat="27.77079000" lon="86.16436000">
        <ele>1985.0000</ele>
        <time>2010-01-01T00:03:36Z</time>
      </trkpt>
      <trkpt lat="27.77110000" lon="86.16389000">
        <ele>1976.0000</ele>
        <time>2010-01-01T00:04:18Z</time>
      </trkpt>
      <trkpt lat="27.77125000" lon="86.16378000">
        <ele>1977.0000</ele>
        <time>2010-01-01T00:04:32Z</time>
      </trkpt>
      <trkpt lat="27.77145000" lon="86.16373000">
        <ele>1984.0000</ele>
        <time>2010-01-01T00:04:49Z</time>
      </trkpt>
      <trkpt lat="27.77172000" lon="86.16355000">
        <ele>1995.0000</ele>
        <time>2010-01-01T00:05:14Z</time>
      </trkpt>
      <trkpt lat="27.77193000" lon="86.16337000">
        <ele>1995.0000</ele>
        <time>2010-01-01T00:05:35Z</time>
      </trkpt>
      <trkpt lat="27.77215000" lon="86.16315000">
        <ele>1991.0000</ele>
        <time>2010-01-01T00:05:58Z</time>
      </trkpt>
      <trkpt lat="27.77249000" lon="86.16296000">
        <ele>1992.0000</ele>
        <time>2010-01-01T00:06:29Z</time>
      </trkpt>
      <trkpt lat="27.77280000" lon="86.16286000">
        <ele>1997.0000</ele>
        <time>2010-01-01T00:06:54Z</time>
      </trkpt>
      <trkpt lat="27.77297000" lon="86.16284000">
        <ele>2002.0000</ele>
        <time>2010-01-01T00:07:08Z</time>
      </trkpt>
      <trkpt lat="27.77312000" lon="86.16280000">
        <ele>2005.0000</ele>
        <time>2010-01-01T00:07:20Z</time>
      </trkpt>
      <trkpt lat="27.77331000" lon="86.16271000">
        <ele>2005.0000</ele>
        <time>2010-01-01T00:07:37Z</time>
      </trkpt>
      <trkpt lat="27.77345000" lon="86.16271000">
        <ele>2008.0000</ele>
        <time>2010-01-01T00:07:48Z</time>
      </trkpt>
      <trkpt lat="27.77360000" lon="86.16266000">
        <ele>2010.0000</ele>
        <time>2010-01-01T00:08:01Z</time>
      </trkpt>
      <trkpt lat="27.77374000" lon="86.16268000">
        <ele>2013.0000</ele>
        <time>2010-01-01T00:08:12Z</time>
      </trkpt>
      <trkpt lat="27.77392000" lon="86.16277000">
        <ele>2017.0000</ele>
        <time>2010-01-01T00:08:28Z</time>
      </trkpt>
      <trkpt lat="27.77407000" lon="86.16282000">
        <ele>2016.0000</ele>
        <time>2010-01-01T00:08:40Z</time>
      </trkpt>
      <trkpt lat="27.77427000" lon="86.16270000">
        <ele>2012.0000</ele>
        <time>2010-01-01T00:08:58Z</time>
      </trkpt>
      <trkpt lat="27.77450000" lon="86.16263000">
        <ele>2012.0000</ele>
        <time>2010-01-01T00:09:17Z</time>
      </trkpt>
      <trkpt lat="27.77461000" lon="86.16257000">
        <ele>2014.0000</ele>
        <time>2010-01-01T00:09:27Z</time>
      </trkpt>
      <trkpt lat="27.77480000" lon="86.16246000">
        <ele>2017.0000</ele>
        <time>2010-01-01T00:09:44Z</time>
      </trkpt>
      <trkpt lat="27.77562790" lon="86.16113660">
        <ele>1990.0000</ele>
        <time>2010-01-01T00:11:39Z</time>
      </trkpt>
      <trkpt lat="27.77608350" lon="86.15924830">
        <ele>1960.0000</ele>
        <time>2010-01-01T00:13:58Z</time>
      </trkpt>
      <trkpt lat="27.77722260" lon="86.15684500">
        <ele>1927.0000</ele>
        <time>2010-01-01T00:17:11Z</time>
      </trkpt>
      <trkpt lat="27.77798200" lon="86.15598670">
        <ele>1917.0000</ele>
        <time>2010-01-01T00:18:37Z</time>
      </trkpt>
      <trkpt lat="27.77874140" lon="86.15598670">
        <ele>1936.0000</ele>
        <time>2010-01-01T00:19:38Z</time>
      </trkpt>
      <trkpt lat="27.77950080" lon="86.15452760">
        <ele>1896.0000</ele>
        <time>2010-01-01T00:21:38Z</time>
      </trkpt>
      <trkpt lat="27.78056400" lon="86.15349760">
        <ele>1888.0000</ele>
        <time>2010-01-01T00:23:30Z</time>
      </trkpt>
      <trkpt lat="27.78071580" lon="86.14980690">
        <ele>1844.0000</ele>
        <time>2010-01-01T00:27:51Z</time>
      </trkpt>
      <trkpt lat="27.78132330" lon="86.14740370">
        <ele>1822.0000</ele>
        <time>2010-01-01T00:30:48Z</time>
      </trkpt>
      <trkpt lat="27.78200680" lon="86.14628790">
        <ele>1827.0000</ele>
        <time>2010-01-01T00:32:25Z</time>
      </trkpt>
      <trkpt lat="27.78291800" lon="86.14620200">
        <ele>1804.0000</ele>
        <time>2010-01-01T00:33:38Z</time>
      </trkpt>
      <trkpt lat="27.78428480" lon="86.14688870">
        <ele>1783.0000</ele>
        <time>2010-01-01T00:35:38Z</time>
      </trkpt>
      <trkpt lat="27.78610730" lon="86.14783280">
        <ele>1791.0000</ele>
        <time>2010-01-01T00:38:18Z</time>
      </trkpt>
      <trkpt lat="27.78838530" lon="86.14894860">
        <ele>1793.0000</ele>
        <time>2010-01-01T00:41:37Z</time>
      </trkpt>
      <trkpt lat="27.78997980" lon="86.14894860">
        <ele>1783.0000</ele>
        <time>2010-01-01T00:43:44Z</time>
      </trkpt>
      <trkpt lat="27.79278920" lon="86.14791870">
        <ele>1816.0000</ele>
        <time>2010-01-01T00:47:41Z</time>
      </trkpt>
      <trkpt lat="27.79423190" lon="86.14697450">
        <ele>1803.0000</ele>
        <time>2010-01-01T00:49:54Z</time>
      </trkpt>
      <trkpt lat="27.79521900" lon="86.14594450">
        <ele>1785.0000</ele>
        <time>2010-01-01T00:51:42Z</time>
      </trkpt>
      <trkpt lat="27.79620600" lon="86.14508620">
        <ele>1813.0000</ele>
        <time>2010-01-01T00:53:22Z</time>
      </trkpt>
      <trkpt lat="27.79658560" lon="86.14431380">
        <ele>1787.0000</ele>
        <time>2010-01-01T00:54:24Z</time>
      </trkpt>
      <trkpt lat="27.79597820" lon="86.14311210">
        <ele>1734.0000</ele>
        <time>2010-01-01T00:56:02Z</time>
      </trkpt>
      <trkpt lat="27.79483930" lon="86.14225380">
        <ele>1766.0000</ele>
        <time>2010-01-01T00:57:52Z</time>
      </trkpt>
      <trkpt lat="27.79354850" lon="86.14148130">
        <ele>1712.0000</ele>
        <time>2010-01-01T00:59:49Z</time>
      </trkpt>
      <trkpt lat="27.79119470" lon="86.13882060">
        <ele>1793.0000</ele>
        <time>2010-01-01T01:04:15Z</time>
      </trkpt>
      <trkpt lat="27.79104290" lon="86.13650320">
        <ele>1938.0000</ele>
        <time>2010-01-01T01:07:00Z</time>
      </trkpt>
      <trkpt lat="27.79165030" lon="86.13298410">
        <ele>1964.0000</ele>
        <time>2010-01-01T01:11:14Z</time>
      </trkpt>
      <trkpt lat="27.79286520" lon="86.12946510">
        <ele>1880.0000</ele>
        <time>2010-01-01T01:15:41Z</time>
      </trkpt>
      <trkpt lat="27.79423190" lon="86.12860670">
        <ele>1948.0000</ele>
        <time>2010-01-01T01:17:46Z</time>
      </trkpt>
      <trkpt lat="27.79567450" lon="86.12731930">
        <ele>1925.0000</ele>
        <time>2010-01-01T01:20:14Z</time>
      </trkpt>
      <trkpt lat="27.79681340" lon="86.12663260">
        <ele>1918.0000</ele>
        <time>2010-01-01T01:21:57Z</time>
      </trkpt>
      <trkpt lat="27.79795230" lon="86.12586020">
        <ele>1881.0000</ele>
        <time>2010-01-01T01:23:43Z</time>
      </trkpt>
      <trkpt lat="27.79796000" lon="86.12581000">
        <ele>1880.0000</ele>
        <time>2010-01-01T01:23:47Z</time>
      </trkpt>
      <trkpt lat="27.79826000" lon="86.12595000">
        <ele>1874.0000</ele>
        <time>2010-01-01T01:24:13Z</time>
      </trkpt>
      <trkpt lat="27.79847000" lon="86.12609000">
        <ele>1874.0000</ele>
        <time>2010-01-01T01:24:32Z</time>
      </trkpt>
      <trkpt lat="27.79857000" lon="86.12625000">
        <ele>1876.0000</ele>
        <time>2010-01-01T01:24:46Z</time>
      </trkpt>
      <trkpt lat="27.79866000" lon="86.12636000">
        <ele>1875.0000</ele>
        <time>2010-01-01T01:24:57Z</time>
      </trkpt>
      <trkpt lat="27.79884000" lon="86.12637000">
        <ele>1871.0000</ele>
        <time>2010-01-01T01:25:11Z</time>
      </trkpt>
      <trkpt lat="27.79892000" lon="86.12641000">
        <ele>1870.0000</ele>
        <time>2010-01-01T01:25:18Z</time>
      </trkpt>
      <trkpt lat="27.79896000" lon="86.12651000">
        <ele>1872.0000</ele>
        <time>2010-01-01T01:25:26Z</time>
      </trkpt>
      <trkpt lat="27.79903000" lon="86.12651000">
        <ele>1871.0000</ele>
        <time>2010-01-01T01:25:32Z</time>
      </trkpt>
      <trkpt lat="27.79922000" lon="86.12644000">
        <ele>1867.0000</ele>
        <time>2010-01-01T01:25:48Z</time>
      </trkpt>
      <trkpt lat="27.79932000" lon="86.12648000">
        <ele>1866.0000</ele>
        <time>2010-01-01T01:25:56Z</time>
      </trkpt>
      <trkpt lat="27.79939000" lon="86.12646000">
        <ele>1865.0000</ele>
        <time>2010-01-01T01:26:02Z</time>
      </trkpt>
      <trkpt lat="27.79952000" lon="86.12625000">
        <ele>1863.0000</ele>
        <time>2010-01-01T01:26:20Z</time>
      </trkpt>
      <trkpt lat="27.79962000" lon="86.12619000">
        <ele>1863.0000</ele>
        <time>2010-01-01T01:26:29Z</time>
      </trkpt>
      <trkpt lat="27.80002000" lon="86.12616000">
        <ele>1861.0000</ele>
        <time>2010-01-01T01:27:01Z</time>
      </trkpt>
      <trkpt lat="27.80021000" lon="86.12617000">
        <ele>1858.0000</ele>
        <time>2010-01-01T01:27:17Z</time>
      </trkpt>
      <trkpt lat="27.80038000" lon="86.12615000">
        <ele>1854.0000</ele>
        <time>2010-01-01T01:27:30Z</time>
      </trkpt>
      <trkpt lat="27.80051000" lon="86.12606000">
        <ele>1850.0000</ele>
        <time>2010-01-01T01:27:42Z</time>
      </trkpt>
      <trkpt lat="27.80064000" lon="86.12602000">
        <ele>1848.0000</ele>
        <time>2010-01-01T01:27:53Z</time>
      </trkpt>
      <trkpt lat="27.80077000" lon="86.12589000">
        <ele>1846.0000</ele>
        <time>2010-01-01T01:28:07Z</time>
      </trkpt>
      <trkpt lat="27.80094000" lon="86.12584000">
        <ele>1846.0000</ele>
        <time>2010-01-01T01:28:21Z</time>
      </trkpt>
      <trkpt lat="27.80101000" lon="86.12577000">
        <ele>1845.0000</ele>
        <time>2010-01-01T01:28:29Z</time>
      </trkpt>
      <trkpt lat="27.80124000" lon="86.12569000">
        <ele>1844.0000</ele>
        <time>2010-01-01T01:28:48Z</time>
      </trkpt>
      <trkpt lat="27.80141000" lon="86.12559000">
        <ele>1841.0000</ele>
        <time>2010-01-01T01:29:03Z</time>
      </trkpt>
      <trkpt lat="27.80148000" lon="86.12551000">
        <ele>1838.0000</ele>
        <time>2010-01-01T01:29:11Z</time>
      </trkpt>
      <trkpt lat="27.80165000" lon="86.12540000">
        <ele>1835.0000</ele>
        <time>2010-01-01T01:29:27Z</time>
      </trkpt>
      <trkpt lat="27.80181000" lon="86.12521000">
        <ele>1830.0000</ele>
        <time>2010-01-01T01:29:45Z</time>
      </trkpt>
      <trkpt lat="27.80189000" lon="86.12508000">
        <ele>1825.0000</ele>
        <time>2010-01-01T01:29:57Z</time>
      </trkpt>
      <trkpt lat="27.80194000" lon="86.12491000">
        <ele>1819.0000</ele>
        <time>2010-01-01T01:30:09Z</time>
      </trkpt>
      <trkpt lat="27.80209000" lon="86.12481000">
        <ele>1818.0000</ele>
        <time>2010-01-01T01:30:23Z</time>
      </trkpt>
      <trkpt lat="27.80216000" lon="86.12468000">
        <ele>1813.0000</ele>
        <time>2010-01-01T01:30:34Z</time>
      </trkpt>
      <trkpt lat="27.80231000" lon="86.12461000">
        <ele>1813.0000</ele>
        <time>2010-01-01T01:30:47Z</time>
      </trkpt>
      <trkpt lat="27.80259000" lon="86.12461000">
        <ele>1819.0000</ele>
        <time>2010-01-01T01:31:09Z</time>
      </trkpt>
      <trkpt lat="27.80283000" lon="86.12445000">
        <ele>1816.0000</ele>
        <time>2010-01-01T01:31:32Z</time>
      </trkpt>
      <trkpt lat="27.80300000" lon="86.12401000">
        <ele>1801.0000</ele>
        <time>2010-01-01T01:32:06Z</time>
      </trkpt>
      <trkpt lat="27.80310000" lon="86.12391000">
        <ele>1799.0000</ele>
        <time>2010-01-01T01:32:16Z</time>
      </trkpt>
      <trkpt lat="27.80331000" lon="86.12381000">
        <ele>1803.0000</ele>
        <time>2010-01-01T01:32:35Z</time>
      </trkpt>
      <trkpt lat="27.80342000" lon="86.12370000">
        <ele>1804.0000</ele>
        <time>2010-01-01T01:32:46Z</time>
      </trkpt>
      <trkpt lat="27.80347000" lon="86.12349000">
        <ele>1799.0000</ele>
        <time>2010-01-01T01:33:02Z</time>
      </trkpt>
      <trkpt lat="27.80361000" lon="86.12327000">
        <ele>1793.0000</ele>
        <time>2010-01-01T01:33:21Z</time>
      </trkpt>
      <trkpt lat="27.80380000" lon="86.12304000">
        <ele>1783.0000</ele>
        <time>2010-01-01T01:33:43Z</time>
      </trkpt>
      <trkpt lat="27.80398000" lon="86.12287000">
        <ele>1782.0000</ele>
        <time>2010-01-01T01:34:02Z</time>
      </trkpt>
      <trkpt lat="27.80409000" lon="86.12272000">
        <ele>1782.0000</ele>
        <time>2010-01-01T01:34:16Z</time>
      </trkpt>
      <trkpt lat="27.80414000" lon="86.12249000">
        <ele>1777.0000</ele>
        <time>2010-01-01T01:34:33Z</time>
      </trkpt>
      <trkpt lat="27.80424000" lon="86.12228000">
        <ele>1772.0000</ele>
        <time>2010-01-01T01:34:50Z</time>
      </trkpt>
      <trkpt lat="27.80441000" lon="86.12204000">
        <ele>1768.0000</ele>
        <time>2010-01-01T01:35:11Z</time>
      </trkpt>
      <trkpt lat="27.80455000" lon="86.12191000">
        <ele>1770.0000</ele>
        <time>2010-01-01T01:35:26Z</time>
      </trkpt>
      <trkpt lat="27.80460000" lon="86.12177000">
        <ele>1768.0000</ele>
        <time>2010-01-01T01:35:37Z</time>
      </trkpt>
      <trkpt lat="27.80460000" lon="86.12157000">
        <ele>1763.0000</ele>
        <time>2010-01-01T01:35:51Z</time>
      </trkpt>
      <trkpt lat="27.80469000" lon="86.12133000">
        <ele>1760.0000</ele>
        <time>2010-01-01T01:36:09Z</time>
      </trkpt>
      <trkpt lat="27.80469000" lon="86.12107000">
        <ele>1754.0000</ele>
        <time>2010-01-01T01:36:28Z</time>
      </trkpt>
      <trkpt lat="27.80467000" lon="86.12080000">
        <ele>1744.0000</ele>
        <time>2010-01-01T01:36:47Z</time>
      </trkpt>
      <trkpt lat="27.80471000" lon="86.12060000">
        <ele>1740.0000</ele>
        <time>2010-01-01T01:37:01Z</time>
      </trkpt>
      <trkpt lat="27.80487000" lon="86.12037000">
        <ele>1734.0000</ele>
        <time>2010-01-01T01:37:22Z</time>
      </trkpt>
      <trkpt lat="27.80504000" lon="86.12025000">
        <ele>1731.0000</ele>
        <time>2010-01-01T01:37:38Z</time>
      </trkpt>
      <trkpt lat="27.80528000" lon="86.12025000">
        <ele>1730.0000</ele>
        <time>2010-01-01T01:37:57Z</time>
      </trkpt>
      <trkpt lat="27.80551000" lon="86.12017000">
        <ele>1726.0000</ele>
        <time>2010-01-01T01:38:17Z</time>
      </trkpt>
      <trkpt lat="27.80581000" lon="86.12018000">
        <ele>1723.0000</ele>
        <time>2010-01-01T01:38:41Z</time>
      </trkpt>
      <trkpt lat="27.80606000" lon="86.12015000">
        <ele>1723.0000</ele>
        <time>2010-01-01T01:39:01Z</time>
      </trkpt>
      <trkpt lat="27.80632000" lon="86.12008000">
        <ele>1719.0000</ele>
        <time>2010-01-01T01:39:22Z</time>
      </trkpt>
      <trkpt lat="27.80653000" lon="86.11995000">
        <ele>1715.0000</ele>
        <time>2010-01-01T01:39:41Z</time>
      </trkpt>
      <trkpt lat="27.80666000" lon="86.11975000">
        <ele>1710.0000</ele>
        <time>2010-01-01T01:39:59Z</time>
      </trkpt>
      <trkpt lat="27.80681000" lon="86.11970000">
        <ele>1713.0000</ele>
        <time>2010-01-01T01:40:11Z</time>
      </trkpt>
      <trkpt lat="27.80708000" lon="86.11981000">
        <ele>1726.0000</ele>
        <time>2010-01-01T01:40:34Z</time>
      </trkpt>
      <trkpt lat="27.80731000" lon="86.12000000">
        <ele>1737.0000</ele>
        <time>2010-01-01T01:40:57Z</time>
      </trkpt>
      <trkpt lat="27.80747000" lon="86.11998000">
        <ele>1734.0000</ele>
        <time>2010-01-01T01:41:10Z</time>
      </trkpt>
      <trkpt lat="27.80768000" lon="86.11991000">
        <ele>1717.0000</ele>
        <time>2010-01-01T01:41:28Z</time>
      </trkpt>
      <trkpt lat="27.80785000" lon="86.11992000">
        <ele>1711.0000</ele>
        <time>2010-01-01T01:41:41Z</time>
      </trkpt>
      <trkpt lat="27.80805000" lon="86.12001000">
        <ele>1716.0000</ele>
        <time>2010-01-01T01:41:58Z</time>
      </trkpt>
      <trkpt lat="27.80804000" lon="86.12001000">
        <ele>1716.0000</ele>
        <time>2010-01-01T01:41:59Z</time>
      </trkpt>
      <trkpt lat="27.80835000" lon="86.12011000">
        <ele>1715.0000</ele>
        <time>2010-01-01T01:42:25Z</time>
      </trkpt>
      <trkpt lat="27.80865000" lon="86.12015000">
        <ele>1709.0000</ele>
        <time>2010-01-01T01:42:49Z</time>
      </trkpt>
      <trkpt lat="27.80883000" lon="86.12014000">
        <ele>1710.0000</ele>
        <time>2010-01-01T01:43:04Z</time>
      </trkpt>
      <trkpt lat="27.80924000" lon="86.12004000">
        <ele>1706.0000</ele>
        <time>2010-01-01T01:43:37Z</time>
      </trkpt>
      <trkpt lat="27.80936000" lon="86.11998000">
        <ele>1703.0000</ele>
        <time>2010-01-01T01:43:48Z</time>
      </trkpt>
      <trkpt lat="27.80952000" lon="86.11998000">
        <ele>1702.0000</ele>
        <time>2010-01-01T01:44:01Z</time>
      </trkpt>
      <trkpt lat="27.80977000" lon="86.12005000">
        <ele>1704.0000</ele>
        <time>2010-01-01T01:44:21Z</time>
      </trkpt>
      <trkpt lat="27.80991000" lon="86.11999000">
        <ele>1704.0000</ele>
        <time>2010-01-01T01:44:33Z</time>
      </trkpt>
      <trkpt lat="27.81015000" lon="86.11963000">
        <ele>1696.0000</ele>
        <time>2010-01-01T01:45:05Z</time>
      </trkpt>
      <trkpt lat="27.81059000" lon="86.11936000">
        <ele>1694.0000</ele>
        <time>2010-01-01T01:45:45Z</time>
      </trkpt>
      <trkpt lat="27.81073000" lon="86.11922000">
        <ele>1690.0000</ele>
        <time>2010-01-01T01:46:00Z</time>
      </trkpt>
      <trkpt lat="27.81088000" lon="86.11917000">
        <ele>1687.0000</ele>
        <time>2010-01-01T01:46:13Z</time>
      </trkpt>
      <trkpt lat="27.81109000" lon="86.11920000">
        <ele>1679.0000</ele>
        <time>2010-01-01T01:46:30Z</time>
      </trkpt>
      <trkpt lat="27.81145000" lon="86.11922000">
        <ele>1676.0000</ele>
        <time>2010-01-01T01:46:58Z</time>
      </trkpt>
      <trkpt lat="27.81179000" lon="86.11914000">
        <ele>1679.0000</ele>
        <time>2010-01-01T01:47:26Z</time>
      </trkpt>
      <trkpt lat="27.81207000" lon="86.11910000">
        <ele>1680.0000</ele>
        <time>2010-01-01T01:47:49Z</time>
      </trkpt>
      <trkpt lat="27.81227000" lon="86.11903000">
        <ele>1680.0000</ele>
        <time>2010-01-01T01:48:06Z</time>
      </trkpt>
      <trkpt lat="27.81260000" lon="86.11908000">
        <ele>1687.0000</ele>
        <time>2010-01-01T01:48:32Z</time>
      </trkpt>
      <trkpt lat="27.81267000" lon="86.11903000">
        <ele>1687.0000</ele>
        <time>2010-01-01T01:48:39Z</time>
      </trkpt>
      <trkpt lat="27.81270000" lon="86.11893000">
        <ele>1686.0000</ele>
        <time>2010-01-01T01:48:46Z</time>
      </trkpt>
      <trkpt lat="27.81261000" lon="86.11879000">
        <ele>1685.0000</ele>
        <time>2010-01-01T01:48:59Z</time>
      </trkpt>
      <trkpt lat="27.81273000" lon="86.11882000">
        <ele>1684.0000</ele>
        <time>2010-01-01T01:49:08Z</time>
      </trkpt>
      <trkpt lat="27.81273000" lon="86.11871000">
        <ele>1682.0000</ele>
        <time>2010-01-01T01:49:16Z</time>
      </trkpt>
      <trkpt lat="27.81278000" lon="86.11861000">
        <ele>1681.0000</ele>
        <time>2010-01-01T01:49:24Z</time>
      </trkpt>
      <trkpt lat="27.81269000" lon="86.11848000">
        <ele>1683.0000</ele>
        <time>2010-01-01T01:49:36Z</time>
      </trkpt>
      <trkpt lat="27.81268000" lon="86.11839000">
        <ele>1684.0000</ele>
        <time>2010-01-01T01:49:43Z</time>
      </trkpt>
      <trkpt lat="27.81270000" lon="86.11833000">
        <ele>1685.0000</ele>
        <time>2010-01-01T01:49:47Z</time>
      </trkpt>
      <trkpt lat="27.81269000" lon="86.11825000">
        <ele>1687.0000</ele>
        <time>2010-01-01T01:49:53Z</time>
      </trkpt>
      <trkpt lat="27.81271000" lon="86.11814000">
        <ele>1689.0000</ele>
        <time>2010-01-01T01:50:01Z</time>
      </trkpt>
      <trkpt lat="27.81270000" lon="86.11809000">
        <ele>1690.0000</ele>
        <time>2010-01-01T01:50:04Z</time>
      </trkpt>
      <trkpt lat="27.81259000" lon="86.11787000">
        <ele>1688.0000</ele>
        <time>2010-01-01T01:50:22Z</time>
      </trkpt>
      <trkpt lat="27.81261000" lon="86.11745000">
        <ele>1690.0000</ele>
        <time>2010-01-01T01:50:52Z</time>
      </trkpt>
      <trkpt lat="27.81255000" lon="86.11722000">
        <ele>1693.0000</ele>
        <time>2010-01-01T01:51:09Z</time>
      </trkpt>
      <trkpt lat="27.81250000" lon="86.11712000">
        <ele>1696.0000</ele>
        <time>2010-01-01T01:51:17Z</time>
      </trkpt>
      <trkpt lat="27.81239000" lon="86.11651000">
        <ele>1711.0000</ele>
        <time>2010-01-01T01:52:01Z</time>
      </trkpt>
      <trkpt lat="27.81235000" lon="86.11642000">
        <ele>1711.0000</ele>
        <time>2010-01-01T01:52:08Z</time>
      </trkpt>
      <trkpt lat="27.81230000" lon="86.11618000">
        <ele>1707.0000</ele>
        <time>2010-01-01T01:52:26Z</time>
      </trkpt>
      <trkpt lat="27.81233000" lon="86.11604000">
        <ele>1707.0000</ele>
        <time>2010-01-01T01:52:36Z</time>
      </trkpt>
      <trkpt lat="27.81231000" lon="86.11570000">
        <ele>1704.0000</ele>
        <time>2010-01-01T01:53:00Z</time>
      </trkpt>
      <trkpt lat="27.81233000" lon="86.11566000">
        <ele>1705.0000</ele>
        <time>2010-01-01T01:53:03Z</time>
      </trkpt>
      <trkpt lat="27.81234000" lon="86.11555000">
        <ele>1706.0000</ele>
        <time>2010-01-01T01:53:11Z</time>
      </trkpt>
      <trkpt lat="27.81233000" lon="86.11547000">
        <ele>1707.0000</ele>
        <time>2010-01-01T01:53:17Z</time>
      </trkpt>
      <trkpt lat="27.81223000" lon="86.11528000">
        <ele>1702.0000</ele>
        <time>2010-01-01T01:53:33Z</time>
      </trkpt>
      <trkpt lat="27.81214000" lon="86.11504000">
        <ele>1701.0000</ele>
        <time>2010-01-01T01:53:51Z</time>
      </trkpt>
      <trkpt lat="27.81209000" lon="86.11482000">
        <ele>1701.0000</ele>
        <time>2010-01-01T01:54:07Z</time>
      </trkpt>
      <trkpt lat="27.81204000" lon="86.11469000">
        <ele>1698.0000</ele>
        <time>2010-01-01T01:54:17Z</time>
      </trkpt>
      <trkpt lat="27.81201000" lon="86.11445000">
        <ele>1693.0000</ele>
        <time>2010-01-01T01:54:34Z</time>
      </trkpt>
      <trkpt lat="27.81199000" lon="86.11440000">
        <ele>1691.0000</ele>
        <time>2010-01-01T01:54:38Z</time>
      </trkpt>
      <trkpt lat="27.81198000" lon="86.11436000">
        <ele>1690.0000</ele>
        <time>2010-01-01T01:54:41Z</time>
      </trkpt>
      <trkpt lat="27.81202000" lon="86.11432000">
        <ele>1691.0000</ele>
        <time>2010-01-01T01:54:45Z</time>
      </trkpt>
      <trkpt lat="27.81207000" lon="86.11429000">
        <ele>1693.0000</ele>
        <time>2010-01-01T01:54:50Z</time>
      </trkpt>
      <trkpt lat="27.81221000" lon="86.11404000">
        <ele>1695.0000</ele>
        <time>2010-01-01T01:55:11Z</time>
      </trkpt>
      <trkpt lat="27.81223000" lon="86.11396000">
        <ele>1693.0000</ele>
        <time>2010-01-01T01:55:17Z</time>
      </trkpt>
      <trkpt lat="27.81224000" lon="86.11377000">
        <ele>1687.0000</ele>
        <time>2010-01-01T01:55:30Z</time>
      </trkpt>
      <trkpt lat="27.81226000" lon="86.11371000">
        <ele>1685.0000</ele>
        <time>2010-01-01T01:55:35Z</time>
      </trkpt>
      <trkpt lat="27.81227000" lon="86.11356000">
        <ele>1680.0000</ele>
        <time>2010-01-01T01:55:46Z</time>
      </trkpt>
      <trkpt lat="27.81238000" lon="86.11338000">
        <ele>1678.0000</ele>
        <time>2010-01-01T01:56:01Z</time>
      </trkpt>
      <trkpt lat="27.81242000" lon="86.11334000">
        <ele>1679.0000</ele>
        <time>2010-01-01T01:56:05Z</time>
      </trkpt>
      <trkpt lat="27.81243000" lon="86.11327000">
        <ele>1678.0000</ele>
        <time>2010-01-01T01:56:10Z</time>
      </trkpt>
      <trkpt lat="27.81239000" lon="86.11318000">
        <ele>1676.0000</ele>
        <time>2010-01-01T01:56:17Z</time>
      </trkpt>
      <trkpt lat="27.81239000" lon="86.11311000">
        <ele>1675.0000</ele>
        <time>2010-01-01T01:56:22Z</time>
      </trkpt>
      <trkpt lat="27.81247000" lon="86.11291000">
        <ele>1675.0000</ele>
        <time>2010-01-01T01:56:38Z</time>
      </trkpt>
      <trkpt lat="27.81247000" lon="86.11284000">
        <ele>1674.0000</ele>
        <time>2010-01-01T01:56:43Z</time>
      </trkpt>
      <trkpt lat="27.81251000" lon="86.11278000">
        <ele>1675.0000</ele>
        <time>2010-01-01T01:56:48Z</time>
      </trkpt>
      <trkpt lat="27.81258000" lon="86.11270000">
        <ele>1677.0000</ele>
        <time>2010-01-01T01:56:56Z</time>
      </trkpt>
      <trkpt lat="27.81279000" lon="86.11217000">
        <ele>1676.0000</ele>
        <time>2010-01-01T01:57:37Z</time>
      </trkpt>
      <trkpt lat="27.81291000" lon="86.11199000">
        <ele>1679.0000</ele>
        <time>2010-01-01T01:57:53Z</time>
      </trkpt>
      <trkpt lat="27.81295000" lon="86.11163000">
        <ele>1678.0000</ele>
        <time>2010-01-01T01:58:19Z</time>
      </trkpt>
      <trkpt lat="27.81301000" lon="86.11145000">
        <ele>1678.0000</ele>
        <time>2010-01-01T01:58:33Z</time>
      </trkpt>
      <trkpt lat="27.81316000" lon="86.11131000">
        <ele>1681.0000</ele>
        <time>2010-01-01T01:58:48Z</time>
      </trkpt>
      <trkpt lat="27.81322000" lon="86.11115000">
        <ele>1681.0000</ele>
        <time>2010-01-01T01:59:00Z</time>
      </trkpt>
      <trkpt lat="27.81346000" lon="86.11078000">
        <ele>1671.0000</ele>
        <time>2010-01-01T01:59:33Z</time>
      </trkpt>
      <trkpt lat="27.81360000" lon="86.11072000">
        <ele>1671.0000</ele>
        <time>2010-01-01T01:59:45Z</time>
      </trkpt>
      <trkpt lat="27.81395000" lon="86.11065000">
        <ele>1675.0000</ele>
        <time>2010-01-01T02:00:13Z</time>
      </trkpt>
      <trkpt lat="27.81407000" lon="86.11060000">
        <ele>1677.0000</ele>
        <time>2010-01-01T02:00:24Z</time>
      </trkpt>
      <trkpt lat="27.81420000" lon="86.11050000">
        <ele>1677.0000</ele>
        <time>2010-01-01T02:00:36Z</time>
      </trkpt>
      <trkpt lat="27.81429000" lon="86.11038000">
        <ele>1674.0000</ele>
        <time>2010-01-01T02:00:47Z</time>
      </trkpt>
      <trkpt lat="27.81458000" lon="86.11012000">
        <ele>1668.0000</ele>
        <time>2010-01-01T02:01:17Z</time>
      </trkpt>
      <trkpt lat="27.81474000" lon="86.11005000">
        <ele>1665.0000</ele>
        <time>2010-01-01T02:01:31Z</time>
      </trkpt>
      <trkpt lat="27.81500000" lon="86.11009000">
        <ele>1666.0000</ele>
        <time>2010-01-01T02:01:52Z</time>
      </trkpt>
      <trkpt lat="27.81540000" lon="86.11012000">
        <ele>1664.0000</ele>
        <time>2010-01-01T02:02:24Z</time>
      </trkpt>
      <trkpt lat="27.81552000" lon="86.11020000">
        <ele>1665.0000</ele>
        <time>2010-01-01T02:02:35Z</time>
      </trkpt>
      <trkpt lat="27.81563000" lon="86.11036000">
        <ele>1671.0000</ele>
        <time>2010-01-01T02:02:49Z</time>
      </trkpt>
      <trkpt lat="27.81575000" lon="86.11041000">
        <ele>1674.0000</ele>
        <time>2010-01-01T02:03:00Z</time>
      </trkpt>
      <trkpt lat="27.81583000" lon="86.11039000">
        <ele>1673.0000</ele>
        <time>2010-01-01T02:03:06Z</time>
      </trkpt>
      <trkpt lat="27.81589000" lon="86.11027000">
        <ele>1669.0000</ele>
        <time>2010-01-01T02:03:16Z</time>
      </trkpt>
      <trkpt lat="27.81599000" lon="86.11020000">
        <ele>1668.0000</ele>
        <time>2010-01-01T02:03:25Z</time>
      </trkpt>
      <trkpt lat="27.81612000" lon="86.11006000">
        <ele>1665.0000</ele>
        <time>2010-01-01T02:03:40Z</time>
      </trkpt>
      <trkpt lat="27.81626000" lon="86.10995000">
        <ele>1665.0000</ele>
        <time>2010-01-01T02:03:53Z</time>
      </trkpt>
      <trkpt lat="27.81638000" lon="86.10989000">
        <ele>1667.0000</ele>
        <time>2010-01-01T02:04:04Z</time>
      </trkpt>
      <trkpt lat="27.81658000" lon="86.10983000">
        <ele>1670.0000</ele>
        <time>2010-01-01T02:04:20Z</time>
      </trkpt>
      <trkpt lat="27.81667000" lon="86.10983000">
        <ele>1673.0000</ele>
        <time>2010-01-01T02:04:28Z</time>
      </trkpt>
      <trkpt lat="27.81676000" lon="86.10976000">
        <ele>1675.0000</ele>
        <time>2010-01-01T02:04:36Z</time>
      </trkpt>
      <trkpt lat="27.81680000" lon="86.10963000">
        <ele>1674.0000</ele>
        <time>2010-01-01T02:04:46Z</time>
      </trkpt>
      <trkpt lat="27.81694000" lon="86.10946000">
        <ele>1676.0000</ele>
        <time>2010-01-01T02:05:03Z</time>
      </trkpt>
      <trkpt lat="27.81716000" lon="86.10931000">
        <ele>1677.0000</ele>
        <time>2010-01-01T02:05:23Z</time>
      </trkpt>
      <trkpt lat="27.81734000" lon="86.10901000">
        <ele>1677.0000</ele>
        <time>2010-01-01T02:05:49Z</time>
      </trkpt>
      <trkpt lat="27.81739000" lon="86.10887000">
        <ele>1676.0000</ele>
        <time>2010-01-01T02:05:59Z</time>
      </trkpt>
      <trkpt lat="27.81749000" lon="86.10876000">
        <ele>1678.0000</ele>
        <time>2010-01-01T02:06:11Z</time>
      </trkpt>
      <trkpt lat="27.81765000" lon="86.10864000">
        <ele>1683.0000</ele>
        <time>2010-01-01T02:06:26Z</time>
      </trkpt>
      <trkpt lat="27.81770000" lon="86.10855000">
        <ele>1684.0000</ele>
        <time>2010-01-01T02:06:34Z</time>
      </trkpt>
      <trkpt lat="27.81772000" lon="86.10847000">
        <ele>1684.0000</ele>
        <time>2010-01-01T02:06:39Z</time>
      </trkpt>
      <trkpt lat="27.81765000" lon="86.10843000">
        <ele>1683.0000</ele>
        <time>2010-01-01T02:06:46Z</time>
      </trkpt>
      <trkpt lat="27.81761000" lon="86.10833000">
        <ele>1683.0000</ele>
        <time>2010-01-01T02:06:53Z</time>
      </trkpt>
      <trkpt lat="27.81761000" lon="86.10826000">
        <ele>1684.0000</ele>
        <time>2010-01-01T02:06:58Z</time>
      </trkpt>
      <trkpt lat="27.81772000" lon="86.10815000">
        <ele>1686.0000</ele>
        <time>2010-01-01T02:07:10Z</time>
      </trkpt>
      <trkpt lat="27.81772000" lon="86.10807000">
        <ele>1686.0000</ele>
        <time>2010-01-01T02:07:16Z</time>
      </trkpt>
      <trkpt lat="27.81763000" lon="86.10793000">
        <ele>1691.0000</ele>
        <time>2010-01-01T02:07:28Z</time>
      </trkpt>
      <trkpt lat="27.81753000" lon="86.10776000">
        <ele>1695.0000</ele>
        <time>2010-01-01T02:07:43Z</time>
      </trkpt>
      <trkpt lat="27.81741000" lon="86.10745000">
        <ele>1698.0000</ele>
        <time>2010-01-01T02:08:07Z</time>
      </trkpt>
      <trkpt lat="27.81734000" lon="86.10715000">
        <ele>1700.0000</ele>
        <time>2010-01-01T02:08:28Z</time>
      </trkpt>
      <trkpt lat="27.81725000" lon="86.10697000">
        <ele>1702.0000</ele>
        <time>2010-01-01T02:08:43Z</time>
      </trkpt>
      <trkpt lat="27.81725000" lon="86.10686000">
        <ele>1703.0000</ele>
        <time>2010-01-01T02:08:51Z</time>
      </trkpt>
      <trkpt lat="27.81722000" lon="86.10679000">
        <ele>1703.0000</ele>
        <time>2010-01-01T02:08:56Z</time>
      </trkpt>
      <trkpt lat="27.81710000" lon="86.10671000">
        <ele>1700.0000</ele>
        <time>2010-01-01T02:09:08Z</time>
      </trkpt>
      <trkpt lat="27.81706000" lon="86.10660000">
        <ele>1699.0000</ele>
        <time>2010-01-01T02:09:16Z</time>
      </trkpt>
      <trkpt lat="27.81711000" lon="86.10640000">
        <ele>1701.0000</ele>
        <time>2010-01-01T02:09:31Z</time>
      </trkpt>
      <trkpt lat="27.81726000" lon="86.10613000">
        <ele>1701.0000</ele>
        <time>2010-01-01T02:09:53Z</time>
      </trkpt>
      <trkpt lat="27.81741000" lon="86.10593000">
        <ele>1708.0000</ele>
        <time>2010-01-01T02:10:12Z</time>
      </trkpt>
      <trkpt lat="27.81754000" lon="86.10571000">
        <ele>1717.0000</ele>
        <time>2010-01-01T02:10:31Z</time>
      </trkpt>
      <trkpt lat="27.81765000" lon="86.10563000">
        <ele>1725.0000</ele>
        <time>2010-01-01T02:10:41Z</time>
      </trkpt>
      <trkpt lat="27.81777000" lon="86.10544000">
        <ele>1734.0000</ele>
        <time>2010-01-01T02:10:58Z</time>
      </trkpt>
      <trkpt lat="27.81787000" lon="86.10514000">
        <ele>1731.0000</ele>
        <time>2010-01-01T02:11:20Z</time>
      </trkpt>
      <trkpt lat="27.81797000" lon="86.10497000">
        <ele>1732.0000</ele>
        <time>2010-01-01T02:11:35Z</time>
      </trkpt>
      <trkpt lat="27.81806000" lon="86.10492000">
        <ele>1737.0000</ele>
        <time>2010-01-01T02:11:43Z</time>
      </trkpt>
      <trkpt lat="27.81815000" lon="86.10490000">
        <ele>1743.0000</ele>
        <time>2010-01-01T02:11:50Z</time>
      </trkpt>
      <trkpt lat="27.81828000" lon="86.10475000">
        <ele>1750.0000</ele>
        <time>2010-01-01T02:12:05Z</time>
      </trkpt>
      <trkpt lat="27.81830000" lon="86.10467000">
        <ele>1750.0000</ele>
        <time>2010-01-01T02:12:11Z</time>
      </trkpt>
      <trkpt lat="27.81841000" lon="86.10458000">
        <ele>1756.0000</ele>
        <time>2010-01-01T02:12:22Z</time>
      </trkpt>
      <trkpt lat="27.81856000" lon="86.10453000">
        <ele>1764.0000</ele>
        <time>2010-01-01T02:12:34Z</time>
      </trkpt>
      <trkpt lat="27.81864000" lon="86.10440000">
        <ele>1765.0000</ele>
        <time>2010-01-01T02:12:45Z</time>
      </trkpt>
      <trkpt lat="27.81870000" lon="86.10433000">
        <ele>1765.0000</ele>
        <time>2010-01-01T02:12:52Z</time>
      </trkpt>
      <trkpt lat="27.81873000" lon="86.10423000">
        <ele>1763.0000</ele>
        <time>2010-01-01T02:13:00Z</time>
      </trkpt>
      <trkpt lat="27.81884000" lon="86.10413000">
        <ele>1763.0000</ele>
        <time>2010-01-01T02:13:11Z</time>
      </trkpt>
      <trkpt lat="27.81902000" lon="86.10400000">
        <ele>1765.0000</ele>
        <time>2010-01-01T02:13:28Z</time>
      </trkpt>
      <trkpt lat="27.81903000" lon="86.10395000">
        <ele>1764.0000</ele>
        <time>2010-01-01T02:13:32Z</time>
      </trkpt>
      <trkpt lat="27.81911000" lon="86.10372000">
        <ele>1762.0000</ele>
        <time>2010-01-01T02:13:49Z</time>
      </trkpt>
      <trkpt lat="27.81907000" lon="86.10350000">
        <ele>1760.0000</ele>
        <time>2010-01-01T02:14:05Z</time>
      </trkpt>
      <trkpt lat="27.81909000" lon="86.10335000">
        <ele>1760.0000</ele>
        <time>2010-01-01T02:14:16Z</time>
      </trkpt>
      <trkpt lat="27.81914000" lon="86.10320000">
        <ele>1761.0000</ele>
        <time>2010-01-01T02:14:27Z</time>
      </trkpt>
      <trkpt lat="27.81921000" lon="86.10312000">
        <ele>1762.0000</ele>
        <time>2010-01-01T02:14:35Z</time>
      </trkpt>
      <trkpt lat="27.81949000" lon="86.10294000">
        <ele>1762.0000</ele>
        <time>2010-01-01T02:15:01Z</time>
      </trkpt>
      <trkpt lat="27.81969000" lon="86.10271000">
        <ele>1760.0000</ele>
        <time>2010-01-01T02:15:24Z</time>
      </trkpt>
      <trkpt lat="27.81999000" lon="86.10242000">
        <ele>1759.0000</ele>
        <time>2010-01-01T02:15:56Z</time>
      </trkpt>
      <trkpt lat="27.82038000" lon="86.10212000">
        <ele>1759.0000</ele>
        <time>2010-01-01T02:16:33Z</time>
      </trkpt>
      <trkpt lat="27.82042000" lon="86.10205000">
        <ele>1757.0000</ele>
        <time>2010-01-01T02:16:39Z</time>
      </trkpt>
      <trkpt lat="27.82041000" lon="86.10189000">
        <ele>1753.0000</ele>
        <time>2010-01-01T02:16:51Z</time>
      </trkpt>
      <trkpt lat="27.82042000" lon="86.10182000">
        <ele>1752.0000</ele>
        <time>2010-01-01T02:16:56Z</time>
      </trkpt>
      <trkpt lat="27.82061000" lon="86.10169000">
        <ele>1750.0000</ele>
        <time>2010-01-01T02:17:13Z</time>
      </trkpt>
      <trkpt lat="27.82068000" lon="86.10151000">
        <ele>1748.0000</ele>
        <time>2010-01-01T02:17:27Z</time>
      </trkpt>
      <trkpt lat="27.82068000" lon="86.10139000">
        <ele>1747.0000</ele>
        <time>2010-01-01T02:17:36Z</time>
      </trkpt>
      <trkpt lat="27.82071000" lon="86.10127000">
        <ele>1745.0000</ele>
        <time>2010-01-01T02:17:45Z</time>
      </trkpt>
      <trkpt lat="27.82100000" lon="86.10091000">
        <ele>1744.0000</ele>
        <time>2010-01-01T02:18:19Z</time>
      </trkpt>
      <trkpt lat="27.82106000" lon="86.10070000">
        <ele>1742.0000</ele>
        <time>2010-01-01T02:18:35Z</time>
      </trkpt>
      <trkpt lat="27.82127000" lon="86.10037000">
        <ele>1736.0000</ele>
        <time>2010-01-01T02:19:04Z</time>
      </trkpt>
      <trkpt lat="27.82132000" lon="86.10022000">
        <ele>1733.0000</ele>
        <time>2010-01-01T02:19:15Z</time>
      </trkpt>
      <trkpt lat="27.82136000" lon="86.09990000">
        <ele>1725.0000</ele>
        <time>2010-01-01T02:19:38Z</time>
      </trkpt>
      <trkpt lat="27.82147000" lon="86.09973000">
        <ele>1722.0000</ele>
        <time>2010-01-01T02:19:53Z</time>
      </trkpt>
      <trkpt lat="27.82159000" lon="86.09961000">
        <ele>1720.0000</ele>
        <time>2010-01-01T02:20:06Z</time>
      </trkpt>
      <trkpt lat="27.82173000" lon="86.09952000">
        <ele>1721.0000</ele>
        <time>2010-01-01T02:20:18Z</time>
      </trkpt>
      <trkpt lat="27.82187000" lon="86.09924000">
        <ele>1716.0000</ele>
        <time>2010-01-01T02:20:41Z</time>
      </trkpt>
      <trkpt lat="27.82197000" lon="86.09914000">
        <ele>1713.0000</ele>
        <time>2010-01-01T02:20:52Z</time>
      </trkpt>
      <trkpt lat="27.82216000" lon="86.09909000">
        <ele>1707.0000</ele>
        <time>2010-01-01T02:21:08Z</time>
      </trkpt>
      <trkpt lat="27.82255000" lon="86.09912000">
        <ele>1698.0000</ele>
        <time>2010-01-01T02:21:39Z</time>
      </trkpt>
      <trkpt lat="27.82310000" lon="86.09905000">
        <ele>1704.0000</ele>
        <time>2010-01-01T02:22:23Z</time>
      </trkpt>
      <trkpt lat="27.82329000" lon="86.09884000">
        <ele>1702.0000</ele>
        <time>2010-01-01T02:22:44Z</time>
      </trkpt>
      <trkpt lat="27.82351000" lon="86.09868000">
        <ele>1702.0000</ele>
        <time>2010-01-01T02:23:05Z</time>
      </trkpt>
      <trkpt lat="27.82358000" lon="86.09862000">
        <ele>1700.0000</ele>
        <time>2010-01-01T02:23:12Z</time>
      </trkpt>
      <trkpt lat="27.82367000" lon="86.09845000">
        <ele>1695.0000</ele>
        <time>2010-01-01T02:23:26Z</time>
      </trkpt>
      <trkpt lat="27.82371000" lon="86.09840000">
        <ele>1695.0000</ele>
        <time>2010-01-01T02:23:31Z</time>
      </trkpt>
      <trkpt lat="27.82377000" lon="86.09837000">
        <ele>1696.0000</ele>
        <time>2010-01-01T02:23:36Z</time>
      </trkpt>
      <trkpt lat="27.82389000" lon="86.09824000">
        <ele>1695.0000</ele>
        <time>2010-01-01T02:23:50Z</time>
      </trkpt>
      <trkpt lat="27.82396000" lon="86.09813000">
        <ele>1695.0000</ele>
        <time>2010-01-01T02:23:59Z</time>
      </trkpt>
      <trkpt lat="27.82413000" lon="86.09773000">
        <ele>1692.0000</ele>
        <time>2010-01-01T02:24:31Z</time>
      </trkpt>
      <trkpt lat="27.82413000" lon="86.09766000">
        <ele>1690.0000</ele>
        <time>2010-01-01T02:24:36Z</time>
      </trkpt>
      <trkpt lat="27.82411000" lon="86.09762000">
        <ele>1687.0000</ele>
        <time>2010-01-01T02:24:39Z</time>
      </trkpt>
      <trkpt lat="27.82408000" lon="86.09761000">
        <ele>1685.0000</ele>
        <time>2010-01-01T02:24:41Z</time>
      </trkpt>
      <trkpt lat="27.82404000" lon="86.09762000">
        <ele>1683.0000</ele>
        <time>2010-01-01T02:24:45Z</time>
      </trkpt>
      <trkpt lat="27.82389000" lon="86.09775000">
        <ele>1679.0000</ele>
        <time>2010-01-01T02:25:00Z</time>
      </trkpt>
      <trkpt lat="27.82349000" lon="86.09794000">
        <ele>1674.0000</ele>
        <time>2010-01-01T02:25:35Z</time>
      </trkpt>
      <trkpt lat="27.82339000" lon="86.09804000">
        <ele>1675.0000</ele>
        <time>2010-01-01T02:25:45Z</time>
      </trkpt>
      <trkpt lat="27.82313000" lon="86.09821000">
        <ele>1675.0000</ele>
        <time>2010-01-01T02:26:09Z</time>
      </trkpt>
      <trkpt lat="27.82276000" lon="86.09834000">
        <ele>1674.0000</ele>
        <time>2010-01-01T02:26:40Z</time>
      </trkpt>
      <trkpt lat="27.82268000" lon="86.09832000">
        <ele>1673.0000</ele>
        <time>2010-01-01T02:26:47Z</time>
      </trkpt>
      <trkpt lat="27.82250000" lon="86.09812000">
        <ele>1669.0000</ele>
        <time>2010-01-01T02:27:07Z</time>
      </trkpt>
      <trkpt lat="27.82243000" lon="86.09810000">
        <ele>1668.0000</ele>
        <time>2010-01-01T02:27:13Z</time>
      </trkpt>
      <trkpt lat="27.82218000" lon="86.09806000">
        <ele>1665.0000</ele>
        <time>2010-01-01T02:27:33Z</time>
      </trkpt>
      <trkpt lat="27.82200000" lon="86.09808000">
        <ele>1663.0000</ele>
        <time>2010-01-01T02:27:48Z</time>
      </trkpt>
      <trkpt lat="27.82198000" lon="86.09804000">
        <ele>1661.0000</ele>
        <time>2010-01-01T02:27:51Z</time>
      </trkpt>
      <trkpt lat="27.82199000" lon="86.09798000">
        <ele>1659.0000</ele>
        <time>2010-01-01T02:27:55Z</time>
      </trkpt>
      <trkpt lat="27.82206000" lon="86.09790000">
        <ele>1657.0000</ele>
        <time>2010-01-01T02:28:03Z</time>
      </trkpt>
      <trkpt lat="27.82224000" lon="86.09788000">
        <ele>1660.0000</ele>
        <time>2010-01-01T02:28:18Z</time>
      </trkpt>
      <trkpt lat="27.82240000" lon="86.09780000">
        <ele>1656.0000</ele>
        <time>2010-01-01T02:28:32Z</time>
      </trkpt>
      <trkpt lat="27.82265000" lon="86.09780000">
        <ele>1653.0000</ele>
        <time>2010-01-01T02:28:52Z</time>
      </trkpt>
      <trkpt lat="27.82266000" lon="86.09777000">
        <ele>1651.0000</ele>
        <time>2010-01-01T02:28:54Z</time>
      </trkpt>
      <trkpt lat="27.82266000" lon="86.09774000">
        <ele>1650.0000</ele>
        <time>2010-01-01T02:28:56Z</time>
      </trkpt>
      <trkpt lat="27.82244000" lon="86.09759000">
        <ele>1647.0000</ele>
        <time>2010-01-01T02:29:17Z</time>
      </trkpt>
      <trkpt lat="27.82214000" lon="86.09752000">
        <ele>1642.0000</ele>
        <time>2010-01-01T02:29:41Z</time>
      </trkpt>
      <trkpt lat="27.82207000" lon="86.09747000">
        <ele>1637.0000</ele>
        <time>2010-01-01T02:29:48Z</time>
      </trkpt>
      <trkpt lat="27.82204000" lon="86.09742000">
        <ele>1632.0000</ele>
        <time>2010-01-01T02:29:52Z</time>
      </trkpt>
      <trkpt lat="27.82203000" lon="86.09737000">
        <ele>1627.0000</ele>
        <time>2010-01-01T02:29:56Z</time>
      </trkpt>
      <trkpt lat="27.82205000" lon="86.09732000">
        <ele>1624.0000</ele>
        <time>2010-01-01T02:30:00Z</time>
      </trkpt>
      <trkpt lat="27.82209000" lon="86.09729000">
        <ele>1624.0000</ele>
        <time>2010-01-01T02:30:03Z</time>
      </trkpt>
      <trkpt lat="27.82219000" lon="86.09726000">
        <ele>1626.0000</ele>
        <time>2010-01-01T02:30:12Z</time>
      </trkpt>
      <trkpt lat="27.82235000" lon="86.09730000">
        <ele>1634.0000</ele>
        <time>2010-01-01T02:30:25Z</time>
      </trkpt>
      <trkpt lat="27.82249000" lon="86.09727000">
        <ele>1637.0000</ele>
        <time>2010-01-01T02:30:36Z</time>
      </trkpt>
      <trkpt lat="27.82258000" lon="86.09729000">
        <ele>1635.0000</ele>
        <time>2010-01-01T02:30:44Z</time>
      </trkpt>
      <trkpt lat="27.82271000" lon="86.09740000">
        <ele>1636.0000</ele>
        <time>2010-01-01T02:30:57Z</time>
      </trkpt>
      <trkpt lat="27.82282000" lon="86.09742000">
        <ele>1635.0000</ele>
        <time>2010-01-01T02:31:05Z</time>
      </trkpt>
      <trkpt lat="27.82290000" lon="86.09736000">
        <ele>1633.0000</ele>
        <time>2010-01-01T02:31:13Z</time>
      </trkpt>
      <trkpt lat="27.82297000" lon="86.09726000">
        <ele>1628.0000</ele>
        <time>2010-01-01T02:31:22Z</time>
      </trkpt>
      <trkpt lat="27.82302000" lon="86.09710000">
        <ele>1623.0000</ele>
        <time>2010-01-01T02:31:34Z</time>
      </trkpt>
      <trkpt lat="27.82299000" lon="86.09701000">
        <ele>1619.0000</ele>
        <time>2010-01-01T02:31:41Z</time>
      </trkpt>
      <trkpt lat="27.82289000" lon="86.09691000">
        <ele>1612.0000</ele>
        <time>2010-01-01T02:31:52Z</time>
      </trkpt>
      <trkpt lat="27.82290000" lon="86.09685000">
        <ele>1609.0000</ele>
        <time>2010-01-01T02:31:56Z</time>
      </trkpt>
      <trkpt lat="27.82306000" lon="86.09685000">
        <ele>1613.0000</ele>
        <time>2010-01-01T02:32:09Z</time>
      </trkpt>
      <trkpt lat="27.82317000" lon="86.09678000">
        <ele>1611.0000</ele>
        <time>2010-01-01T02:32:19Z</time>
      </trkpt>
      <trkpt lat="27.82345000" lon="86.09649000">
        <ele>1602.0000</ele>
        <time>2010-01-01T02:32:49Z</time>
      </trkpt>
      <trkpt lat="27.82356000" lon="86.09644000">
        <ele>1600.0000</ele>
        <time>2010-01-01T02:32:59Z</time>
      </trkpt>
      <trkpt lat="27.82366000" lon="86.09644000">
        <ele>1602.0000</ele>
        <time>2010-01-01T02:33:07Z</time>
      </trkpt>
      <trkpt lat="27.82385000" lon="86.09650000">
        <ele>1610.0000</ele>
        <time>2010-01-01T02:33:23Z</time>
      </trkpt>
      <trkpt lat="27.82394000" lon="86.09646000">
        <ele>1613.0000</ele>
        <time>2010-01-01T02:33:30Z</time>
      </trkpt>
      <trkpt lat="27.82417000" lon="86.09630000">
        <ele>1620.0000</ele>
        <time>2010-01-01T02:33:52Z</time>
      </trkpt>
      <trkpt lat="27.82444000" lon="86.09605000">
        <ele>1613.0000</ele>
        <time>2010-01-01T02:34:20Z</time>
      </trkpt>
      <trkpt lat="27.82465000" lon="86.09577000">
        <ele>1604.0000</ele>
        <time>2010-01-01T02:34:46Z</time>
      </trkpt>
      <trkpt lat="27.82471000" lon="86.09564000">
        <ele>1600.0000</ele>
        <time>2010-01-01T02:34:56Z</time>
      </trkpt>
      <trkpt lat="27.82472000" lon="86.09549000">
        <ele>1597.0000</ele>
        <time>2010-01-01T02:35:07Z</time>
      </trkpt>
      <trkpt lat="27.82466000" lon="86.09528000">
        <ele>1593.0000</ele>
        <time>2010-01-01T02:35:23Z</time>
      </trkpt>
      <trkpt lat="27.82461000" lon="86.09498000">
        <ele>1590.0000</ele>
        <time>2010-01-01T02:35:44Z</time>
      </trkpt>
      <trkpt lat="27.82455000" lon="86.09481000">
        <ele>1592.0000</ele>
        <time>2010-01-01T02:35:57Z</time>
      </trkpt>
      <trkpt lat="27.82460284" lon="86.09487533">
        <ele>1592.0000</ele>
        <time>2010-01-01T00:00:00Z</time>
      </trkpt>
      <trkpt lat="27.82457000" lon="86.09488000">
        <ele>1591.0000</ele>
        <time>2010-01-01T00:00:01Z</time>
      </trkpt>
      <trkpt lat="27.82450000" lon="86.09467000">
        <ele>1594.0000</ele>
        <time>2010-01-01T00:00:09Z</time>
      </trkpt>
      <trkpt lat="27.82455000" lon="86.09465000">
        <ele>1595.0000</ele>
        <time>2010-01-01T00:00:11Z</time>
      </trkpt>
      <trkpt lat="27.82478000" lon="86.09462000">
        <ele>1598.0000</ele>
        <time>2010-01-01T00:00:20Z</time>
      </trkpt>
      <trkpt lat="27.82495000" lon="86.09462000">
        <ele>1600.0000</ele>
        <time>2010-01-01T00:00:27Z</time>
      </trkpt>
      <trkpt lat="27.82524000" lon="86.09471000">
        <ele>1600.0000</ele>
        <time>2010-01-01T00:00:39Z</time>
      </trkpt>
      <trkpt lat="27.82533000" lon="86.09469000">
        <ele>1603.0000</ele>
        <time>2010-01-01T00:00:43Z</time>
      </trkpt>
      <trkpt lat="27.82538000" lon="86.09465000">
        <ele>1606.0000</ele>
        <time>2010-01-01T00:00:45Z</time>
      </trkpt>
      <trkpt lat="27.82545000" lon="86.09465000">
        <ele>1608.0000</ele>
        <time>2010-01-01T00:00:48Z</time>
      </trkpt>
      <trkpt lat="27.82577000" lon="86.09458000">
        <ele>1622.0000</ele>
        <time>2010-01-01T00:01:01Z</time>
      </trkpt>
      <trkpt lat="27.82597000" lon="86.09452000">
        <ele>1631.0000</ele>
        <time>2010-01-01T00:01:09Z</time>
      </trkpt>
      <trkpt lat="27.82603000" lon="86.09452000">
        <ele>1632.0000</ele>
        <time>2010-01-01T00:01:12Z</time>
      </trkpt>
      <trkpt lat="27.82614000" lon="86.09457000">
        <ele>1630.0000</ele>
        <time>2010-01-01T00:01:16Z</time>
      </trkpt>
      <trkpt lat="27.82624000" lon="86.09459000">
        <ele>1628.0000</ele>
        <time>2010-01-01T00:01:20Z</time>
      </trkpt>
      <trkpt lat="27.82642000" lon="86.09452000">
        <ele>1633.0000</ele>
        <time>2010-01-01T00:01:28Z</time>
      </trkpt>
      <trkpt lat="27.82657000" lon="86.09444000">
        <ele>1640.0000</ele>
        <time>2010-01-01T00:01:35Z</time>
      </trkpt>
      <trkpt lat="27.82663000" lon="86.09443000">
        <ele>1640.0000</ele>
        <time>2010-01-01T00:01:37Z</time>
      </trkpt>
      <trkpt lat="27.82673000" lon="86.09445000">
        <ele>1637.0000</ele>
        <time>2010-01-01T00:01:41Z</time>
      </trkpt>
      <trkpt lat="27.82693000" lon="86.09441000">
        <ele>1635.0000</ele>
        <time>2010-01-01T00:01:49Z</time>
      </trkpt>
      <trkpt lat="27.82698000" lon="86.09441000">
        <ele>1634.0000</ele>
        <time>2010-01-01T00:01:51Z</time>
      </trkpt>
      <trkpt lat="27.82738000" lon="86.09460000">
        <ele>1623.0000</ele>
        <time>2010-01-01T00:02:09Z</time>
      </trkpt>
      <trkpt lat="27.82761000" lon="86.09481000">
        <ele>1618.0000</ele>
        <time>2010-01-01T00:02:21Z</time>
      </trkpt>
      <trkpt lat="27.82768000" lon="86.09489000">
        <ele>1618.0000</ele>
        <time>2010-01-01T00:02:25Z</time>
      </trkpt>
      <trkpt lat="27.82786000" lon="86.09524000">
        <ele>1616.0000</ele>
        <time>2010-01-01T00:02:39Z</time>
      </trkpt>
      <trkpt lat="27.82805000" lon="86.09572000">
        <ele>1618.0000</ele>
        <time>2010-01-01T00:02:57Z</time>
      </trkpt>
      <trkpt lat="27.82809000" lon="86.09576000">
        <ele>1619.0000</ele>
        <time>2010-01-01T00:03:00Z</time>
      </trkpt>
      <trkpt lat="27.82816000" lon="86.09576000">
        <ele>1621.0000</ele>
        <time>2010-01-01T00:03:02Z</time>
      </trkpt>
      <trkpt lat="27.82819000" lon="86.09577000">
        <ele>1621.0000</ele>
        <time>2010-01-01T00:03:04Z</time>
      </trkpt>
      <trkpt lat="27.82826000" lon="86.09588000">
        <ele>1623.0000</ele>
        <time>2010-01-01T00:03:08Z</time>
      </trkpt>
      <trkpt lat="27.82831000" lon="86.09591000">
        <ele>1624.0000</ele>
        <time>2010-01-01T00:03:11Z</time>
      </trkpt>
      <trkpt lat="27.82848000" lon="86.09598000">
        <ele>1628.0000</ele>
        <time>2010-01-01T00:03:18Z</time>
      </trkpt>
      <trkpt lat="27.82864000" lon="86.09607000">
        <ele>1632.0000</ele>
        <time>2010-01-01T00:03:25Z</time>
      </trkpt>
      <trkpt lat="27.82863000" lon="86.09607000">
        <ele>1632.0000</ele>
        <time>2010-01-01T00:03:26Z</time>
      </trkpt>
      <trkpt lat="27.82891000" lon="86.09611000">
        <ele>1634.0000</ele>
        <time>2010-01-01T00:03:37Z</time>
      </trkpt>
      <trkpt lat="27.82899000" lon="86.09611000">
        <ele>1634.0000</ele>
        <time>2010-01-01T00:03:40Z</time>
      </trkpt>
      <trkpt lat="27.82915000" lon="86.09603000">
        <ele>1634.0000</ele>
        <time>2010-01-01T00:03:47Z</time>
      </trkpt>
      <trkpt lat="27.82931000" lon="86.09597000">
        <ele>1635.0000</ele>
        <time>2010-01-01T00:03:54Z</time>
      </trkpt>
      <trkpt lat="27.82943000" lon="86.09594000">
        <ele>1636.0000</ele>
        <time>2010-01-01T00:03:59Z</time>
      </trkpt>
      <trkpt lat="27.82949000" lon="86.09596000">
        <ele>1636.0000</ele>
        <time>2010-01-01T00:04:01Z</time>
      </trkpt>
      <trkpt lat="27.82955000" lon="86.09595000">
        <ele>1636.0000</ele>
        <time>2010-01-01T00:04:04Z</time>
      </trkpt>
      <trkpt lat="27.82988000" lon="86.09570000">
        <ele>1650.0000</ele>
        <time>2010-01-01T00:04:20Z</time>
      </trkpt>
      <trkpt lat="27.83011000" lon="86.09542000">
        <ele>1672.0000</ele>
        <time>2010-01-01T00:04:33Z</time>
      </trkpt>
      <trkpt lat="27.83049000" lon="86.09533000">
        <ele>1667.0000</ele>
        <time>2010-01-01T00:04:49Z</time>
      </trkpt>
      <trkpt lat="27.83143000" lon="86.09500000">
        <ele>1683.0000</ele>
        <time>2010-01-01T00:05:28Z</time>
      </trkpt>
      <trkpt lat="27.83177000" lon="86.09494000">
        <ele>1674.0000</ele>
        <time>2010-01-01T00:05:42Z</time>
      </trkpt>
      <trkpt lat="27.83184000" lon="86.09488000">
        <ele>1672.0000</ele>
        <time>2010-01-01T00:05:45Z</time>
      </trkpt>
      <trkpt lat="27.83188000" lon="86.09481000">
        <ele>1671.0000</ele>
        <time>2010-01-01T00:05:48Z</time>
      </trkpt>
      <trkpt lat="27.83192000" lon="86.09461000">
        <ele>1670.0000</ele>
        <time>2010-01-01T00:05:56Z</time>
      </trkpt>
      <trkpt lat="27.83187000" lon="86.09463000">
        <ele>1673.0000</ele>
        <time>2010-01-01T00:05:58Z</time>
      </trkpt>
      <trkpt lat="27.83189000" lon="86.09456000">
        <ele>1672.0000</ele>
        <time>2010-01-01T00:06:00Z</time>
      </trkpt>
      <trkpt lat="27.83231000" lon="86.09453000">
        <ele>1666.0000</ele>
        <time>2010-01-01T00:06:17Z</time>
      </trkpt>
      <trkpt lat="27.83237000" lon="86.09459000">
        <ele>1668.0000</ele>
        <time>2010-01-01T00:06:20Z</time>
      </trkpt>
      <trkpt lat="27.83258000" lon="86.09448000">
        <ele>1675.0000</ele>
        <time>2010-01-01T00:06:30Z</time>
      </trkpt>
      <trkpt lat="27.83269000" lon="86.09447000">
        <ele>1678.0000</ele>
        <time>2010-01-01T00:06:34Z</time>
      </trkpt>
      <trkpt lat="27.83274000" lon="86.09442000">
        <ele>1680.0000</ele>
        <time>2010-01-01T00:06:37Z</time>
      </trkpt>
      <trkpt lat="27.83279000" lon="86.09423000">
        <ele>1685.0000</ele>
        <time>2010-01-01T00:06:44Z</time>
      </trkpt>
      <trkpt lat="27.83278000" lon="86.09417000">
        <ele>1686.0000</ele>
        <time>2010-01-01T00:06:46Z</time>
      </trkpt>
      <trkpt lat="27.83284000" lon="86.09413000">
        <ele>1689.0000</ele>
        <time>2010-01-01T00:06:49Z</time>
      </trkpt>
      <trkpt lat="27.83297000" lon="86.09403000">
        <ele>1697.0000</ele>
        <time>2010-01-01T00:06:55Z</time>
      </trkpt>
      <trkpt lat="27.83316000" lon="86.09356000">
        <ele>1720.0000</ele>
        <time>2010-01-01T00:07:13Z</time>
      </trkpt>
      <trkpt lat="27.83332000" lon="86.09328000">
        <ele>1740.0000</ele>
        <time>2010-01-01T00:07:25Z</time>
      </trkpt>
      <trkpt lat="27.83366000" lon="86.09305000">
        <ele>1756.0000</ele>
        <time>2010-01-01T00:07:41Z</time>
      </trkpt>
      <trkpt lat="27.83383000" lon="86.09296000">
        <ele>1759.0000</ele>
        <time>2010-01-01T00:07:48Z</time>
      </trkpt>
      <trkpt lat="27.83396000" lon="86.09260000">
        <ele>1764.0000</ele>
        <time>2010-01-01T00:08:02Z</time>
      </trkpt>
      <trkpt lat="27.83405000" lon="86.09246000">
        <ele>1766.0000</ele>
        <time>2010-01-01T00:08:08Z</time>
      </trkpt>
      <trkpt lat="27.83542000" lon="86.09177000">
        <ele>1835.0000</ele>
        <time>2010-01-01T00:09:08Z</time>
      </trkpt>
      <trkpt lat="27.83545000" lon="86.09184000">
        <ele>1833.0000</ele>
        <time>2010-01-01T00:09:11Z</time>
      </trkpt>
      <trkpt lat="27.83547000" lon="86.09186000">
        <ele>1833.0000</ele>
        <time>2010-01-01T00:09:12Z</time>
      </trkpt>
      <trkpt lat="27.83552000" lon="86.09175000">
        <ele>1843.0000</ele>
        <time>2010-01-01T00:09:17Z</time>
      </trkpt>
      <trkpt lat="27.83556000" lon="86.09172000">
        <ele>1847.0000</ele>
        <time>2010-01-01T00:09:18Z</time>
      </trkpt>
      <trkpt lat="27.83558000" lon="86.09176000">
        <ele>1846.0000</ele>
        <time>2010-01-01T00:09:20Z</time>
      </trkpt>
      <trkpt lat="27.83568000" lon="86.09158000">
        <ele>1859.0000</ele>
        <time>2010-01-01T00:09:28Z</time>
      </trkpt>
      <trkpt lat="27.83571000" lon="86.09163000">
        <ele>1859.0000</ele>
        <time>2010-01-01T00:09:30Z</time>
      </trkpt>
      <trkpt lat="27.83576000" lon="86.09164000">
        <ele>1861.0000</ele>
        <time>2010-01-01T00:09:32Z</time>
      </trkpt>
      <trkpt lat="27.83571000" lon="86.09155000">
        <ele>1860.0000</ele>
        <time>2010-01-01T00:09:36Z</time>
      </trkpt>
      <trkpt lat="27.83571000" lon="86.09151000">
        <ele>1861.0000</ele>
        <time>2010-01-01T00:09:37Z</time>
      </trkpt>
      <trkpt lat="27.83580000" lon="86.09159000">
        <ele>1864.0000</ele>
        <time>2010-01-01T00:09:42Z</time>
      </trkpt>
      <trkpt lat="27.83581000" lon="86.09153000">
        <ele>1865.0000</ele>
        <time>2010-01-01T00:09:44Z</time>
      </trkpt>
      <trkpt lat="27.83586000" lon="86.09157000">
        <ele>1867.0000</ele>
        <time>2010-01-01T00:09:46Z</time>
      </trkpt>
      <trkpt lat="27.83590000" lon="86.09155000">
        <ele>1869.0000</ele>
        <time>2010-01-01T00:09:48Z</time>
      </trkpt>
      <trkpt lat="27.83594000" lon="86.09147000">
        <ele>1873.0000</ele>
        <time>2010-01-01T00:09:51Z</time>
      </trkpt>
      <trkpt lat="27.83601000" lon="86.09154000">
        <ele>1876.0000</ele>
        <time>2010-01-01T00:09:55Z</time>
      </trkpt>
      <trkpt lat="27.83599000" lon="86.09149000">
        <ele>1876.0000</ele>
        <time>2010-01-01T00:09:57Z</time>
      </trkpt>
      <trkpt lat="27.83606000" lon="86.09145000">
        <ele>1881.0000</ele>
        <time>2010-01-01T00:10:00Z</time>
      </trkpt>
      <trkpt lat="27.83614000" lon="86.09121000">
        <ele>1890.0000</ele>
        <time>2010-01-01T00:10:09Z</time>
      </trkpt>
      <trkpt lat="27.83616000" lon="86.09124000">
        <ele>1891.0000</ele>
        <time>2010-01-01T00:10:10Z</time>
      </trkpt>
      <trkpt lat="27.83617000" lon="86.09117000">
        <ele>1892.0000</ele>
        <time>2010-01-01T00:10:13Z</time>
      </trkpt>
      <trkpt lat="27.83619000" lon="86.09121000">
        <ele>1892.0000</ele>
        <time>2010-01-01T00:10:14Z</time>
      </trkpt>
      <trkpt lat="27.83620000" lon="86.09117000">
        <ele>1893.0000</ele>
        <time>2010-01-01T00:10:16Z</time>
      </trkpt>
      <trkpt lat="27.83622000" lon="86.09119000">
        <ele>1894.0000</ele>
        <time>2010-01-01T00:10:17Z</time>
      </trkpt>
      <trkpt lat="27.83622000" lon="86.09116000">
        <ele>1894.0000</ele>
        <time>2010-01-01T00:10:18Z</time>
      </trkpt>
      <trkpt lat="27.83625000" lon="86.09116000">
        <ele>1896.0000</ele>
        <time>2010-01-01T00:10:19Z</time>
      </trkpt>
      <trkpt lat="27.83628000" lon="86.09105000">
        <ele>1899.0000</ele>
        <time>2010-01-01T00:10:23Z</time>
      </trkpt>
      <trkpt lat="27.83631000" lon="86.09099000">
        <ele>1902.0000</ele>
        <time>2010-01-01T00:10:26Z</time>
      </trkpt>
      <trkpt lat="27.83633000" lon="86.09089000">
        <ele>1906.0000</ele>
        <time>2010-01-01T00:10:29Z</time>
      </trkpt>
      <trkpt lat="27.83641000" lon="86.09070000">
        <ele>1915.0000</ele>
        <time>2010-01-01T00:10:37Z</time>
      </trkpt>
      <trkpt lat="27.83641000" lon="86.09068000">
        <ele>1916.0000</ele>
        <time>2010-01-01T00:10:38Z</time>
      </trkpt>
      <trkpt lat="27.83644000" lon="86.09068000">
        <ele>1918.0000</ele>
        <time>2010-01-01T00:10:39Z</time>
      </trkpt>
      <trkpt lat="27.83645000" lon="86.09063000">
        <ele>1920.0000</ele>
        <time>2010-01-01T00:10:41Z</time>
      </trkpt>
      <trkpt lat="27.83650000" lon="86.09056000">
        <ele>1927.0000</ele>
        <time>2010-01-01T00:10:44Z</time>
      </trkpt>
      <trkpt lat="27.83650000" lon="86.09048000">
        <ele>1930.0000</ele>
        <time>2010-01-01T00:10:47Z</time>
      </trkpt>
      <trkpt lat="27.83645000" lon="86.09045000">
        <ele>1926.0000</ele>
        <time>2010-01-01T00:10:49Z</time>
      </trkpt>
      <trkpt lat="27.83641000" lon="86.09037000">
        <ele>1926.0000</ele>
        <time>2010-01-01T00:10:52Z</time>
      </trkpt>
      <trkpt lat="27.83612615" lon="86.08908176">
        <ele>1931.0000</ele>
        <time>2010-01-01T00:11:39Z</time>
      </trkpt>
      <trkpt lat="27.83627795" lon="86.08822345">
        <ele>1928.0000</ele>
        <time>2010-01-01T00:12:10Z</time>
      </trkpt>
      <trkpt lat="27.83642975" lon="86.08719348">
        <ele>1967.0000</ele>
        <time>2010-01-01T00:12:47Z</time>
      </trkpt>
      <trkpt lat="27.83612615" lon="86.08667850">
        <ele>1959.0000</ele>
        <time>2010-01-01T00:13:09Z</time>
      </trkpt>
      <trkpt lat="27.83551896" lon="86.08629226">
        <ele>1960.0000</ele>
        <time>2010-01-01T00:13:37Z</time>
      </trkpt>
      <trkpt lat="27.83502561" lon="86.08612060">
        <ele>1960.0000</ele>
        <time>2010-01-01T00:13:58Z</time>
      </trkpt>
      <trkpt lat="27.83491176" lon="86.08521938">
        <ele>1992.0000</ele>
        <time>2010-01-01T00:14:30Z</time>
      </trkpt>
      <trkpt lat="27.83529126" lon="86.08496189">
        <ele>2017.0000</ele>
        <time>2010-01-01T00:14:47Z</time>
      </trkpt>
      <trkpt lat="27.83528000" lon="86.08503000">
        <ele>2016.0000</ele>
        <time>2010-01-01T00:14:50Z</time>
      </trkpt>
      <trkpt lat="27.83537000" lon="86.08505000">
        <ele>2016.0000</ele>
        <time>2010-01-01T00:14:54Z</time>
      </trkpt>
      <trkpt lat="27.83543000" lon="86.08491000">
        <ele>2020.0000</ele>
        <time>2010-01-01T00:14:59Z</time>
      </trkpt>
      <trkpt lat="27.83543000" lon="86.08392000">
        <ele>2037.0000</ele>
        <time>2010-01-01T00:15:34Z</time>
      </trkpt>
      <trkpt lat="27.83550000" lon="86.08321000">
        <ele>2045.0000</ele>
        <time>2010-01-01T00:15:59Z</time>
      </trkpt>
      <trkpt lat="27.83556000" lon="86.08241000">
        <ele>2040.0000</ele>
        <time>2010-01-01T00:16:28Z</time>
      </trkpt>
      <trkpt lat="27.83568000" lon="86.08223000">
        <ele>2046.0000</ele>
        <time>2010-01-01T00:16:36Z</time>
      </trkpt>
      <trkpt lat="27.83564000" lon="86.08207000">
        <ele>2046.0000</ele>
        <time>2010-01-01T00:16:42Z</time>
      </trkpt>
      <trkpt lat="27.83570000" lon="86.08183000">
        <ele>2050.0000</ele>
        <time>2010-01-01T00:16:51Z</time>
      </trkpt>
      <trkpt lat="27.83571000" lon="86.08162000">
        <ele>2050.0000</ele>
        <time>2010-01-01T00:16:58Z</time>
      </trkpt>
      <trkpt lat="27.83576000" lon="86.08120000">
        <ele>2051.0000</ele>
        <time>2010-01-01T00:17:13Z</time>
      </trkpt>
      <trkpt lat="27.83581000" lon="86.08100000">
        <ele>2055.0000</ele>
        <time>2010-01-01T00:17:20Z</time>
      </trkpt>
      <trkpt lat="27.83582000" lon="86.08084000">
        <ele>2058.0000</ele>
        <time>2010-01-01T00:17:26Z</time>
      </trkpt>
      <trkpt lat="27.83598000" lon="86.08055000">
        <ele>2068.0000</ele>
        <time>2010-01-01T00:17:38Z</time>
      </trkpt>
      <trkpt lat="27.83601000" lon="86.08043000">
        <ele>2068.0000</ele>
        <time>2010-01-01T00:17:43Z</time>
      </trkpt>
      <trkpt lat="27.83609000" lon="86.08033000">
        <ele>2070.0000</ele>
        <time>2010-01-01T00:17:47Z</time>
      </trkpt>
      <trkpt lat="27.83622000" lon="86.08022000">
        <ele>2074.0000</ele>
        <time>2010-01-01T00:17:54Z</time>
      </trkpt>
      <trkpt lat="27.83632000" lon="86.07980000">
        <ele>2082.0000</ele>
        <time>2010-01-01T00:18:09Z</time>
      </trkpt>
      <trkpt lat="27.83645000" lon="86.07974000">
        <ele>2089.0000</ele>
        <time>2010-01-01T00:18:15Z</time>
      </trkpt>
      <trkpt lat="27.83631000" lon="86.07960000">
        <ele>2084.0000</ele>
        <time>2010-01-01T00:18:22Z</time>
      </trkpt>
      <trkpt lat="27.83622000" lon="86.07962000">
        <ele>2079.0000</ele>
        <time>2010-01-01T00:18:26Z</time>
      </trkpt>
      <trkpt lat="27.83618000" lon="86.07927000">
        <ele>2081.0000</ele>
        <time>2010-01-01T00:18:38Z</time>
      </trkpt>
      <trkpt lat="27.83604000" lon="86.07924000">
        <ele>2075.0000</ele>
        <time>2010-01-01T00:18:44Z</time>
      </trkpt>
      <trkpt lat="27.83586000" lon="86.07847000">
        <ele>2080.0000</ele>
        <time>2010-01-01T00:19:12Z</time>
      </trkpt>
      <trkpt lat="27.83590000" lon="86.07806000">
        <ele>2092.0000</ele>
        <time>2010-01-01T00:19:27Z</time>
      </trkpt>
      <trkpt lat="27.83597000" lon="86.07776000">
        <ele>2100.0000</ele>
        <time>2010-01-01T00:19:38Z</time>
      </trkpt>
      <trkpt lat="27.83595000" lon="86.07768000">
        <ele>2100.0000</ele>
        <time>2010-01-01T00:19:41Z</time>
      </trkpt>
      <trkpt lat="27.83605000" lon="86.07756000">
        <ele>2112.0000</ele>
        <time>2010-01-01T00:19:47Z</time>
      </trkpt>
      <trkpt lat="27.83610000" lon="86.07738000">
        <ele>2118.0000</ele>
        <time>2010-01-01T00:19:53Z</time>
      </trkpt>
      <trkpt lat="27.83624000" lon="86.07723000">
        <ele>2125.0000</ele>
        <time>2010-01-01T00:20:01Z</time>
      </trkpt>
      <trkpt lat="27.83634000" lon="86.07710000">
        <ele>2130.0000</ele>
        <time>2010-01-01T00:20:07Z</time>
      </trkpt>
      <trkpt lat="27.83645000" lon="86.07686000">
        <ele>2135.0000</ele>
        <time>2010-01-01T00:20:17Z</time>
      </trkpt>
      <trkpt lat="27.83649000" lon="86.07665000">
        <ele>2135.0000</ele>
        <time>2010-01-01T00:20:24Z</time>
      </trkpt>
      <trkpt lat="27.83657000" lon="86.07651000">
        <ele>2138.0000</ele>
        <time>2010-01-01T00:20:30Z</time>
      </trkpt>
      <trkpt lat="27.83674000" lon="86.07633000">
        <ele>2144.0000</ele>
        <time>2010-01-01T00:20:40Z</time>
      </trkpt>
      <trkpt lat="27.83680000" lon="86.07621000">
        <ele>2148.0000</ele>
        <time>2010-01-01T00:20:45Z</time>
      </trkpt>
      <trkpt lat="27.83683000" lon="86.07611000">
        <ele>2150.0000</ele>
        <time>2010-01-01T00:20:48Z</time>
      </trkpt>
      <trkpt lat="27.83686000" lon="86.07606000">
        <ele>2151.0000</ele>
        <time>2010-01-01T00:20:50Z</time>
      </trkpt>
      <trkpt lat="27.83675000" lon="86.07571000">
        <ele>2148.0000</ele>
        <time>2010-01-01T00:21:04Z</time>
      </trkpt>
      <trkpt lat="27.83693000" lon="86.07554000">
        <ele>2155.0000</ele>
        <time>2010-01-01T00:21:13Z</time>
      </trkpt>
      <trkpt lat="27.83700000" lon="86.07550000">
        <ele>2157.0000</ele>
        <time>2010-01-01T00:21:16Z</time>
      </trkpt>
      <trkpt lat="27.83721000" lon="86.07519000">
        <ele>2164.0000</ele>
        <time>2010-01-01T00:21:30Z</time>
      </trkpt>
      <trkpt lat="27.83750000" lon="86.07507000">
        <ele>2174.0000</ele>
        <time>2010-01-01T00:21:42Z</time>
      </trkpt>
      <trkpt lat="27.83759000" lon="86.07496000">
        <ele>2179.0000</ele>
        <time>2010-01-01T00:21:48Z</time>
      </trkpt>
      <trkpt lat="27.83839000" lon="86.07218000">
        <ele>2218.0000</ele>
        <time>2010-01-01T00:23:31Z</time>
      </trkpt>
      <trkpt lat="27.83849000" lon="86.07168000">
        <ele>2226.0000</ele>
        <time>2010-01-01T00:23:49Z</time>
      </trkpt>
      <trkpt lat="27.83848907" lon="86.07187271">
        <ele>2224.0000</ele>
        <time>2010-01-01T00:00:00Z</time>
      </trkpt>
      <trkpt lat="27.83847000" lon="86.07187000">
        <ele>2223.0000</ele>
        <time>2010-01-01T00:00:00Z</time>
      </trkpt>
      <trkpt lat="27.83847000" lon="86.07182000">
        <ele>2224.0000</ele>
        <time>2010-01-01T00:00:02Z</time>
      </trkpt>
      <trkpt lat="27.83835000" lon="86.07116000">
        <ele>2217.0000</ele>
        <time>2010-01-01T00:00:26Z</time>
      </trkpt>
      <trkpt lat="27.83836000" lon="86.06985000">
        <ele>2206.0000</ele>
        <time>2010-01-01T00:01:12Z</time>
      </trkpt>
      <trkpt lat="27.83815000" lon="86.06932000">
        <ele>2197.0000</ele>
        <time>2010-01-01T00:01:33Z</time>
      </trkpt>
      <trkpt lat="27.83803000" lon="86.06824000">
        <ele>2200.0000</ele>
        <time>2010-01-01T00:02:11Z</time>
      </trkpt>
      <trkpt lat="27.83761000" lon="86.06727000">
        <ele>2183.0000</ele>
        <time>2010-01-01T00:02:50Z</time>
      </trkpt>
      <trkpt lat="27.83802000" lon="86.06710000">
        <ele>2192.0000</ele>
        <time>2010-01-01T00:03:07Z</time>
      </trkpt>
      <trkpt lat="27.83801000" lon="86.06671000">
        <ele>2187.0000</ele>
        <time>2010-01-01T00:03:21Z</time>
      </trkpt>
      <trkpt lat="27.83803000" lon="86.06650000">
        <ele>2184.0000</ele>
        <time>2010-01-01T00:03:28Z</time>
      </trkpt>
      <trkpt lat="27.83828000" lon="86.06620000">
        <ele>2182.0000</ele>
        <time>2010-01-01T00:03:43Z</time>
      </trkpt>
      <trkpt lat="27.83865000" lon="86.06599000">
        <ele>2190.0000</ele>
        <time>2010-01-01T00:04:00Z</time>
      </trkpt>
      <trkpt lat="27.83888000" lon="86.06591000">
        <ele>2198.0000</ele>
        <time>2010-01-01T00:04:09Z</time>
      </trkpt>
      <trkpt lat="27.83899000" lon="86.06579000">
        <ele>2200.0000</ele>
        <time>2010-01-01T00:04:15Z</time>
      </trkpt>
      <trkpt lat="27.83917000" lon="86.06565000">
        <ele>2205.0000</ele>
        <time>2010-01-01T00:04:24Z</time>
      </trkpt>
      <trkpt lat="27.83925000" lon="86.06547000">
        <ele>2205.0000</ele>
        <time>2010-01-01T00:04:31Z</time>
      </trkpt>
      <trkpt lat="27.83934000" lon="86.06536000">
        <ele>2206.0000</ele>
        <time>2010-01-01T00:04:36Z</time>
      </trkpt>
      <trkpt lat="27.83938000" lon="86.06523000">
        <ele>2207.0000</ele>
        <time>2010-01-01T00:04:41Z</time>
      </trkpt>
      <trkpt lat="27.83927000" lon="86.06499000">
        <ele>2210.0000</ele>
        <time>2010-01-01T00:04:51Z</time>
      </trkpt>
      <trkpt lat="27.83887000" lon="86.06480000">
        <ele>2210.0000</ele>
        <time>2010-01-01T00:05:08Z</time>
      </trkpt>
      <trkpt lat="27.83836000" lon="86.06473000">
        <ele>2203.0000</ele>
        <time>2010-01-01T00:05:29Z</time>
      </trkpt>
      <trkpt lat="27.83822000" lon="86.06460000">
        <ele>2201.0000</ele>
        <time>2010-01-01T00:05:36Z</time>
      </trkpt>
      <trkpt lat="27.83816000" lon="86.06442000">
        <ele>2200.0000</ele>
        <time>2010-01-01T00:05:43Z</time>
      </trkpt>
      <trkpt lat="27.83819000" lon="86.06408000">
        <ele>2208.0000</ele>
        <time>2010-01-01T00:05:55Z</time>
      </trkpt>
      <trkpt lat="27.83807000" lon="86.06389000">
        <ele>2204.0000</ele>
        <time>2010-01-01T00:06:03Z</time>
      </trkpt>
      <trkpt lat="27.83749000" lon="86.06282000">
        <ele>2217.0000</ele>
        <time>2010-01-01T00:06:48Z</time>
      </trkpt>
      <trkpt lat="27.83721000" lon="86.06250000">
        <ele>2206.0000</ele>
        <time>2010-01-01T00:07:04Z</time>
      </trkpt>
      <trkpt lat="27.83722000" lon="86.06226000">
        <ele>2217.0000</ele>
        <time>2010-01-01T00:07:12Z</time>
      </trkpt>
      <trkpt lat="27.83715000" lon="86.06215000">
        <ele>2217.0000</ele>
        <time>2010-01-01T00:07:17Z</time>
      </trkpt>
      <trkpt lat="27.83704000" lon="86.06189000">
        <ele>2205.0000</ele>
        <time>2010-01-01T00:07:27Z</time>
      </trkpt>
      <trkpt lat="27.83691000" lon="86.06170000">
        <ele>2184.0000</ele>
        <time>2010-01-01T00:07:36Z</time>
      </trkpt>
      <trkpt lat="27.83741000" lon="86.06137000">
        <ele>2205.0000</ele>
        <time>2010-01-01T00:07:59Z</time>
      </trkpt>
      <trkpt lat="27.83725000" lon="86.06095000">
        <ele>2188.0000</ele>
        <time>2010-01-01T00:08:15Z</time>
      </trkpt>
      <trkpt lat="27.83687000" lon="86.06041000">
        <ele>2164.0000</ele>
        <time>2010-01-01T00:08:39Z</time>
      </trkpt>
      <trkpt lat="27.83717000" lon="86.05964000">
        <ele>2182.0000</ele>
        <time>2010-01-01T00:09:09Z</time>
      </trkpt>
      <trkpt lat="27.83740000" lon="86.05846000">
        <ele>2216.0000</ele>
        <time>2010-01-01T00:09:52Z</time>
      </trkpt>
      <trkpt lat="27.83750000" lon="86.05719000">
        <ele>2244.0000</ele>
        <time>2010-01-01T00:10:37Z</time>
      </trkpt>
      <trkpt lat="27.83750000" lon="86.05661000">
        <ele>2218.0000</ele>
        <time>2010-01-01T00:10:58Z</time>
      </trkpt>
      <trkpt lat="27.83788000" lon="86.05616000">
        <ele>2235.0000</ele>
        <time>2010-01-01T00:11:20Z</time>
      </trkpt>
      <trkpt lat="27.83825000" lon="86.05520000">
        <ele>2240.0000</ele>
        <time>2010-01-01T00:11:57Z</time>
      </trkpt>
      <trkpt lat="27.83827000" lon="86.05449000">
        <ele>2234.0000</ele>
        <time>2010-01-01T00:12:22Z</time>
      </trkpt>
      <trkpt lat="27.83867000" lon="86.05378000">
        <ele>2240.0000</ele>
        <time>2010-01-01T00:12:52Z</time>
      </trkpt>
      <trkpt lat="27.83920000" lon="86.05331000">
        <ele>2254.0000</ele>
        <time>2010-01-01T00:13:19Z</time>
      </trkpt>
      <trkpt lat="27.83989000" lon="86.05357000">
        <ele>2265.0000</ele>
        <time>2010-01-01T00:13:48Z</time>
      </trkpt>
      <trkpt lat="27.84013000" lon="86.05374000">
        <ele>2274.0000</ele>
        <time>2010-01-01T00:13:59Z</time>
      </trkpt>
      <trkpt lat="27.83975000" lon="86.05297000">
        <ele>2291.0000</ele>
        <time>2010-01-01T00:14:30Z</time>
      </trkpt>
      <trkpt lat="27.83837000" lon="86.05189000">
        <ele>2304.0000</ele>
        <time>2010-01-01T00:15:37Z</time>
      </trkpt>
      <trkpt lat="27.83843000" lon="86.05163000">
        <ele>2317.0000</ele>
        <time>2010-01-01T00:15:47Z</time>
      </trkpt>
      <trkpt lat="27.83810000" lon="86.05136000">
        <ele>2320.0000</ele>
        <time>2010-01-01T00:16:03Z</time>
      </trkpt>
      <trkpt lat="27.83769000" lon="86.05056000">
        <ele>2377.0000</ele>
        <time>2010-01-01T00:16:36Z</time>
      </trkpt>
      <trkpt lat="27.83734000" lon="86.04951000">
        <ele>2420.0000</ele>
        <time>2010-01-01T00:17:16Z</time>
      </trkpt>
      <trkpt lat="27.83708000" lon="86.04897000">
        <ele>2430.0000</ele>
        <time>2010-01-01T00:17:37Z</time>
      </trkpt>
      <trkpt lat="27.83676000" lon="86.04818000">
        <ele>2452.0000</ele>
        <time>2010-01-01T00:18:08Z</time>
      </trkpt>
      <trkpt lat="27.83594000" lon="86.04649000">
        <ele>2392.0000</ele>
        <time>2010-01-01T00:19:16Z</time>
      </trkpt>
      <trkpt lat="27.83556000" lon="86.04458000">
        <ele>2447.0000</ele>
        <time>2010-01-01T00:20:26Z</time>
      </trkpt>
      <trkpt lat="27.83522000" lon="86.04305000">
        <ele>2456.0000</ele>
        <time>2010-01-01T00:21:22Z</time>
      </trkpt>
      <trkpt lat="27.83467000" lon="86.04209000">
        <ele>2424.0000</ele>
        <time>2010-01-01T00:22:02Z</time>
      </trkpt>
      <trkpt lat="27.83460000" lon="86.04151000">
        <ele>2428.0000</ele>
        <time>2010-01-01T00:22:23Z</time>
      </trkpt>
      <trkpt lat="27.83435000" lon="86.04108000">
        <ele>2427.0000</ele>
        <time>2010-01-01T00:22:41Z</time>
      </trkpt>
      <trkpt lat="27.83408694" lon="86.03951454">
        <ele>2493.0000</ele>
        <time>2010-01-01T00:23:37Z</time>
      </trkpt>
      <trkpt lat="27.83408694" lon="86.03779792">
        <ele>2567.0000</ele>
        <time>2010-01-01T00:24:38Z</time>
      </trkpt>
      <trkpt lat="27.83363154" lon="86.03659629">
        <ele>2588.0000</ele>
        <time>2010-01-01T00:25:25Z</time>
      </trkpt>
      <trkpt lat="27.83340384" lon="86.03462219">
        <ele>2679.0000</ele>
        <time>2010-01-01T00:26:35Z</time>
      </trkpt>
      <trkpt lat="27.83294843" lon="86.03324890">
        <ele>2750.0000</ele>
        <time>2010-01-01T00:27:27Z</time>
      </trkpt>
      <trkpt lat="27.83279663" lon="86.03101730">
        <ele>2801.0000</ele>
        <time>2010-01-01T00:28:46Z</time>
      </trkpt>
      <trkpt lat="27.83264482" lon="86.02964401">
        <ele>2759.0000</ele>
        <time>2010-01-01T00:29:35Z</time>
      </trkpt>
      <trkpt lat="27.83234122" lon="86.02887153">
        <ele>2730.0000</ele>
        <time>2010-01-01T00:30:05Z</time>
      </trkpt>
      <trkpt lat="27.83249302" lon="86.02758407">
        <ele>2774.0000</ele>
        <time>2010-01-01T00:30:51Z</time>
      </trkpt>
      <trkpt lat="27.83256892" lon="86.02689743">
        <ele>2804.0000</ele>
        <time>2010-01-01T00:31:16Z</time>
      </trkpt>
      <trkpt lat="27.83256892" lon="86.02578163">
        <ele>2861.0000</ele>
        <time>2010-01-01T00:31:55Z</time>
      </trkpt>
      <trkpt lat="27.83264482" lon="86.02500915">
        <ele>2897.0000</ele>
        <time>2010-01-01T00:32:23Z</time>
      </trkpt>
      <trkpt lat="27.83264482" lon="86.02415084">
        <ele>2931.0000</ele>
        <time>2010-01-01T00:32:53Z</time>
      </trkpt>
      <trkpt lat="27.83036776" lon="86.02423667">
        <ele>2966.0000</ele>
        <time>2010-01-01T00:34:24Z</time>
      </trkpt>
      <trkpt lat="27.83143040" lon="86.02355003">
        <ele>2988.0000</ele>
        <time>2010-01-01T00:35:13Z</time>
      </trkpt>
      <trkpt lat="27.83014005" lon="86.02329254">
        <ele>2997.0000</ele>
        <time>2010-01-01T00:36:06Z</time>
      </trkpt>
      <trkpt lat="27.83173400" lon="86.02252006">
        <ele>3020.0000</ele>
        <time>2010-01-01T00:37:15Z</time>
      </trkpt>
      <trkpt lat="27.83249302" lon="86.02071762">
        <ele>3030.0000</ele>
        <time>2010-01-01T00:38:26Z</time>
      </trkpt>
      <trkpt lat="27.83082318" lon="86.02088928">
        <ele>3054.0000</ele>
        <time>2010-01-01T00:39:33Z</time>
      </trkpt>
      <trkpt lat="27.83059547" lon="86.01925849">
        <ele>3091.0000</ele>
        <time>2010-01-01T00:40:31Z</time>
      </trkpt>
      <trkpt lat="27.83150630" lon="86.01882934">
        <ele>3099.0000</ele>
        <time>2010-01-01T00:41:11Z</time>
      </trkpt>
      <trkpt lat="27.83196171" lon="86.01728439">
        <ele>3118.0000</ele>
        <time>2010-01-01T00:42:08Z</time>
      </trkpt>
      <trkpt lat="27.83044366" lon="86.01539611">
        <ele>3142.0000</ele>
        <time>2010-01-01T00:43:39Z</time>
      </trkpt>
      <trkpt lat="27.83097498" lon="86.01488113">
        <ele>3154.0000</ele>
        <time>2010-01-01T00:44:07Z</time>
      </trkpt>
      <trkpt lat="27.83165810" lon="86.01496696">
        <ele>3164.0000</ele>
        <time>2010-01-01T00:44:34Z</time>
      </trkpt>
      <trkpt lat="27.83029186" lon="86.01333618">
        <ele>3186.0000</ele>
        <time>2010-01-01T00:45:54Z</time>
      </trkpt>
      <trkpt lat="27.83218942" lon="86.01402282">
        <ele>3206.0000</ele>
        <time>2010-01-01T00:47:14Z</time>
      </trkpt>
      <trkpt lat="27.83097498" lon="86.01213455">
        <ele>3228.0000</ele>
        <time>2010-01-01T00:48:36Z</time>
      </trkpt>
      <trkpt lat="27.83241712" lon="86.01264953">
        <ele>3241.0000</ele>
        <time>2010-01-01T00:49:37Z</time>
      </trkpt>
      <trkpt lat="27.83165810" lon="86.01136207">
        <ele>3258.0000</ele>
        <time>2010-01-01T00:50:31Z</time>
      </trkpt>
      <trkpt lat="27.83158220" lon="86.01016044">
        <ele>3267.0000</ele>
        <time>2010-01-01T00:51:14Z</time>
      </trkpt>
      <trkpt lat="27.83112679" lon="86.01024627">
        <ele>3268.0000</ele>
        <time>2010-01-01T00:51:33Z</time>
      </trkpt>
      <trkpt lat="27.83059547" lon="86.00973129">
        <ele>3280.0000</ele>
        <time>2010-01-01T00:52:01Z</time>
      </trkpt>
      <trkpt lat="27.83036776" lon="86.00964546">
        <ele>3285.0000</ele>
        <time>2010-01-01T00:00:00Z</time>
      </trkpt>
      <trkpt lat="27.83036000" lon="86.00962000">
        <ele>3285.0000</ele>
        <time>2010-01-01T00:00:00Z</time>
      </trkpt>
      <trkpt lat="27.82985000" lon="86.00980000">
        <ele>3285.0000</ele>
        <time>2010-01-01T00:00:22Z</time>
      </trkpt>
      <trkpt lat="27.82952000" lon="86.00957000">
        <ele>3289.0000</ele>
        <time>2010-01-01T00:00:37Z</time>
      </trkpt>
      <trkpt lat="27.82908000" lon="86.00942000">
        <ele>3293.0000</ele>
        <time>2010-01-01T00:00:56Z</time>
      </trkpt>
      <trkpt lat="27.82882000" lon="86.00948000">
        <ele>3293.0000</ele>
        <time>2010-01-01T00:01:06Z</time>
      </trkpt>
      <trkpt lat="27.82880000" lon="86.00937000">
        <ele>3296.0000</ele>
        <time>2010-01-01T00:01:10Z</time>
      </trkpt>
      <trkpt lat="27.82903000" lon="86.00927000">
        <ele>3296.0000</ele>
        <time>2010-01-01T00:01:20Z</time>
      </trkpt>
      <trkpt lat="27.82915000" lon="86.00930000">
        <ele>3294.0000</ele>
        <time>2010-01-01T00:01:25Z</time>
      </trkpt>
      <trkpt lat="27.82912000" lon="86.00909000">
        <ele>3297.0000</ele>
        <time>2010-01-01T00:01:33Z</time>
      </trkpt>
      <trkpt lat="27.82883000" lon="86.00907000">
        <ele>3300.0000</ele>
        <time>2010-01-01T00:01:44Z</time>
      </trkpt>
      <trkpt lat="27.82819000" lon="86.00867000">
        <ele>3308.0000</ele>
        <time>2010-01-01T00:02:14Z</time>
      </trkpt>
      <trkpt lat="27.82785000" lon="86.00831000">
        <ele>3312.0000</ele>
        <time>2010-01-01T00:02:32Z</time>
      </trkpt>
      <trkpt lat="27.82758000" lon="86.00796000">
        <ele>3316.0000</ele>
        <time>2010-01-01T00:02:49Z</time>
      </trkpt>
      <trkpt lat="27.82725000" lon="86.00772000">
        <ele>3321.0000</ele>
        <time>2010-01-01T00:03:04Z</time>
      </trkpt>
      <trkpt lat="27.82628000" lon="86.00765000">
        <ele>3327.0000</ele>
        <time>2010-01-01T00:03:43Z</time>
      </trkpt>
      <trkpt lat="27.82598000" lon="86.00754000">
        <ele>3335.0000</ele>
        <time>2010-01-01T00:03:56Z</time>
      </trkpt>
      <trkpt lat="27.82591000" lon="86.00740000">
        <ele>3339.0000</ele>
        <time>2010-01-01T00:04:02Z</time>
      </trkpt>
      <trkpt lat="27.82592000" lon="86.00730000">
        <ele>3340.0000</ele>
        <time>2010-01-01T00:04:05Z</time>
      </trkpt>
      <trkpt lat="27.82620000" lon="86.00731000">
        <ele>3338.0000</ele>
        <time>2010-01-01T00:04:16Z</time>
      </trkpt>
      <trkpt lat="27.82643000" lon="86.00723000">
        <ele>3337.0000</ele>
        <time>2010-01-01T00:04:26Z</time>
      </trkpt>
      <trkpt lat="27.82629000" lon="86.00705000">
        <ele>3342.0000</ele>
        <time>2010-01-01T00:04:34Z</time>
      </trkpt>
      <trkpt lat="27.82602000" lon="86.00697000">
        <ele>3344.0000</ele>
        <time>2010-01-01T00:04:46Z</time>
      </trkpt>
      <trkpt lat="27.82640000" lon="86.00682000">
        <ele>3346.0000</ele>
        <time>2010-01-01T00:05:02Z</time>
      </trkpt>
      <trkpt lat="27.82642000" lon="86.00671000">
        <ele>3347.0000</ele>
        <time>2010-01-01T00:05:06Z</time>
      </trkpt>
      <trkpt lat="27.82619000" lon="86.00670000">
        <ele>3349.0000</ele>
        <time>2010-01-01T00:05:15Z</time>
      </trkpt>
      <trkpt lat="27.82606000" lon="86.00660000">
        <ele>3351.0000</ele>
        <time>2010-01-01T00:05:21Z</time>
      </trkpt>
      <trkpt lat="27.82591000" lon="86.00645000">
        <ele>3353.0000</ele>
        <time>2010-01-01T00:05:29Z</time>
      </trkpt>
      <trkpt lat="27.82581000" lon="86.00621000">
        <ele>3355.0000</ele>
        <time>2010-01-01T00:05:39Z</time>
      </trkpt>
      <trkpt lat="27.82584000" lon="86.00596000">
        <ele>3355.0000</ele>
        <time>2010-01-01T00:05:48Z</time>
      </trkpt>
      <trkpt lat="27.82611000" lon="86.00571000">
        <ele>3353.0000</ele>
        <time>2010-01-01T00:06:02Z</time>
      </trkpt>
      <trkpt lat="27.82609000" lon="86.00565000">
        <ele>3353.0000</ele>
        <time>2010-01-01T00:06:04Z</time>
      </trkpt>
      <trkpt lat="27.82584000" lon="86.00578000">
        <ele>3352.0000</ele>
        <time>2010-01-01T00:06:15Z</time>
      </trkpt>
      <trkpt lat="27.82580000" lon="86.00570000">
        <ele>3345.0000</ele>
        <time>2010-01-01T00:06:18Z</time>
      </trkpt>
      <trkpt lat="27.82635000" lon="86.00516000">
        <ele>3348.0000</ele>
        <time>2010-01-01T00:06:47Z</time>
      </trkpt>
      <trkpt lat="27.82622000" lon="86.00492000">
        <ele>3332.0000</ele>
        <time>2010-01-01T00:06:57Z</time>
      </trkpt>
      <trkpt lat="27.82533000" lon="86.00551000">
        <ele>3308.0000</ele>
        <time>2010-01-01T00:07:39Z</time>
      </trkpt>
      <trkpt lat="27.82542000" lon="86.00537000">
        <ele>3306.0000</ele>
        <time>2010-01-01T00:07:45Z</time>
      </trkpt>
      <trkpt lat="27.82609000" lon="86.00458000">
        <ele>3302.0000</ele>
        <time>2010-01-01T00:08:23Z</time>
      </trkpt>
      <trkpt lat="27.82606000" lon="86.00449000">
        <ele>3294.0000</ele>
        <time>2010-01-01T00:08:27Z</time>
      </trkpt>
      <trkpt lat="27.82545000" lon="86.00493000">
        <ele>3284.0000</ele>
        <time>2010-01-01T00:08:56Z</time>
      </trkpt>
      <trkpt lat="27.82519000" lon="86.00481000">
        <ele>3264.0000</ele>
        <time>2010-01-01T00:09:07Z</time>
      </trkpt>
      <trkpt lat="27.82494000" lon="86.00512000">
        <ele>3260.0000</ele>
        <time>2010-01-01T00:09:22Z</time>
      </trkpt>
      <trkpt lat="27.82480000" lon="86.00535000">
        <ele>3257.0000</ele>
        <time>2010-01-01T00:09:32Z</time>
      </trkpt>
      <trkpt lat="27.82477000" lon="86.00586000">
        <ele>3263.0000</ele>
        <time>2010-01-01T00:09:50Z</time>
      </trkpt>
      <trkpt lat="27.82444000" lon="86.00633000">
        <ele>3266.0000</ele>
        <time>2010-01-01T00:10:11Z</time>
      </trkpt>
      <trkpt lat="27.82422000" lon="86.00636000">
        <ele>3247.0000</ele>
        <time>2010-01-01T00:10:20Z</time>
      </trkpt>
      <trkpt lat="27.82414000" lon="86.00648000">
        <ele>3252.0000</ele>
        <time>2010-01-01T00:10:25Z</time>
      </trkpt>
      <trkpt lat="27.82398000" lon="86.00657000">
        <ele>3254.0000</ele>
        <time>2010-01-01T00:10:32Z</time>
      </trkpt>
      <trkpt lat="27.82416000" lon="86.00614000">
        <ele>3233.0000</ele>
        <time>2010-01-01T00:10:49Z</time>
      </trkpt>
      <trkpt lat="27.82428000" lon="86.00580000">
        <ele>3232.0000</ele>
        <time>2010-01-01T00:11:02Z</time>
      </trkpt>
      <trkpt lat="27.82440000" lon="86.00534000">
        <ele>3225.0000</ele>
        <time>2010-01-01T00:11:19Z</time>
      </trkpt>
      <trkpt lat="27.82452000" lon="86.00469000">
        <ele>3215.0000</ele>
        <time>2010-01-01T00:11:43Z</time>
      </trkpt>
      <trkpt lat="27.82469000" lon="86.00443000">
        <ele>3227.0000</ele>
        <time>2010-01-01T00:11:54Z</time>
      </trkpt>
      <trkpt lat="27.82511000" lon="86.00421000">
        <ele>3236.0000</ele>
        <time>2010-01-01T00:12:13Z</time>
      </trkpt>
      <trkpt lat="27.82521000" lon="86.00382000">
        <ele>3221.0000</ele>
        <time>2010-01-01T00:12:27Z</time>
      </trkpt>
      <trkpt lat="27.82539000" lon="86.00363000">
        <ele>3219.0000</ele>
        <time>2010-01-01T00:12:37Z</time>
      </trkpt>
      <trkpt lat="27.82569000" lon="86.00244000">
        <ele>3186.0000</ele>
        <time>2010-01-01T00:13:21Z</time>
      </trkpt>
      <trkpt lat="27.82702798" lon="85.99960327">
        <ele>3225.0000</ele>
        <time>2010-01-01T00:15:15Z</time>
      </trkpt>
      <trkpt lat="27.82763522" lon="85.99840164">
        <ele>3233.0000</ele>
        <time>2010-01-01T00:16:04Z</time>
      </trkpt>
      <trkpt lat="27.82862198" lon="85.99702835">
        <ele>3290.0000</ele>
        <time>2010-01-01T00:17:06Z</time>
      </trkpt>
      <trkpt lat="27.82915331" lon="85.99505424">
        <ele>3297.0000</ele>
        <time>2010-01-01T00:18:19Z</time>
      </trkpt>
      <trkpt lat="27.82991234" lon="85.99342346">
        <ele>3345.0000</ele>
        <time>2010-01-01T00:19:24Z</time>
      </trkpt>
      <trkpt lat="27.83014005" lon="85.98990440">
        <ele>3268.0000</ele>
        <time>2010-01-01T00:21:29Z</time>
      </trkpt>
      <trkpt lat="27.82998824" lon="85.98698616">
        <ele>3239.0000</ele>
        <time>2010-01-01T00:23:13Z</time>
      </trkpt>
      <trkpt lat="27.82953282" lon="85.98381042">
        <ele>3305.0000</ele>
        <time>2010-01-01T00:25:07Z</time>
      </trkpt>
      <trkpt lat="27.82900150" lon="85.98226547">
        <ele>3288.0000</ele>
        <time>2010-01-01T00:26:05Z</time>
      </trkpt>
      <trkpt lat="27.82854607" lon="85.98072052">
        <ele>3287.0000</ele>
        <time>2010-01-01T00:27:03Z</time>
      </trkpt>
      <trkpt lat="27.82748341" lon="85.97874641">
        <ele>3248.0000</ele>
        <time>2010-01-01T00:28:25Z</time>
      </trkpt>
      <trkpt lat="27.82680026" lon="85.97771644">
        <ele>3242.0000</ele>
        <time>2010-01-01T00:29:10Z</time>
      </trkpt>
      <trkpt lat="27.82687617" lon="85.97608566">
        <ele>3251.0000</ele>
        <time>2010-01-01T00:30:08Z</time>
      </trkpt>
      <trkpt lat="27.82717979" lon="85.97548484">
        <ele>3230.0000</ele>
        <time>2010-01-01T00:30:33Z</time>
      </trkpt>
      <trkpt lat="27.82717979" lon="85.97411155">
        <ele>3256.0000</ele>
        <time>2010-01-01T00:31:21Z</time>
      </trkpt>
      <trkpt lat="27.82672436" lon="85.96896171">
        <ele>3257.0000</ele>
        <time>2010-01-01T00:34:25Z</time>
      </trkpt>
      <trkpt lat="27.82679018" lon="85.96745967">
        <ele>3241.0000</ele>
        <time>2010-01-01T00:35:18Z</time>
      </trkpt>
      <trkpt lat="27.82694199" lon="85.96690177">
        <ele>3239.0000</ele>
        <time>2010-01-01T00:35:39Z</time>
      </trkpt>
      <trkpt lat="27.82754923" lon="85.96612930">
        <ele>3246.0000</ele>
        <time>2010-01-01T00:36:15Z</time>
      </trkpt>
      <trkpt lat="27.82857394" lon="85.96484184">
        <ele>3220.0000</ele>
        <time>2010-01-01T00:37:16Z</time>
      </trkpt>
      <trkpt lat="27.82857394" lon="85.96346855">
        <ele>3217.0000</ele>
        <time>2010-01-01T00:38:05Z</time>
      </trkpt>
      <trkpt lat="27.82872575" lon="85.96226692">
        <ele>3224.0000</ele>
        <time>2010-01-01T00:38:48Z</time>
      </trkpt>
      <trkpt lat="27.82872575" lon="85.96170902">
        <ele>3224.0000</ele>
        <time>2010-01-01T00:39:08Z</time>
      </trkpt>
      <trkpt lat="27.82929503" lon="85.96063613">
        <ele>3235.0000</ele>
        <time>2010-01-01T00:39:52Z</time>
      </trkpt>
      <trkpt lat="27.82944684" lon="85.95964908">
        <ele>3190.0000</ele>
        <time>2010-01-01T00:40:28Z</time>
      </trkpt>
      <trkpt lat="27.82971250" lon="85.95870494">
        <ele>3151.0000</ele>
        <time>2010-01-01T00:41:03Z</time>
      </trkpt>
      <trkpt lat="27.82982636" lon="85.95793247">
        <ele>3122.0000</ele>
        <time>2010-01-01T00:41:30Z</time>
      </trkpt>
      <trkpt lat="27.83089908" lon="85.95754623">
        <ele>3119.0000</ele>
        <time>2010-01-01T00:42:15Z</time>
      </trkpt>
      <trkpt lat="27.83272073" lon="85.95737457">
        <ele>3099.0000</ele>
        <time>2010-01-01T00:43:29Z</time>
      </trkpt>
      <trkpt lat="27.83355564" lon="85.95694541">
        <ele>3091.0000</ele>
        <time>2010-01-01T00:44:05Z</time>
      </trkpt>
      <trkpt lat="27.83423874" lon="85.95643043">
        <ele>3081.0000</ele>
        <time>2010-01-01T00:44:38Z</time>
      </trkpt>
      <trkpt lat="27.83537724" lon="85.95540046">
        <ele>3043.0000</ele>
        <time>2010-01-01T00:45:36Z</time>
      </trkpt>
      <trkpt lat="27.83590853" lon="85.95437049">
        <ele>3042.0000</ele>
        <time>2010-01-01T00:46:19Z</time>
      </trkpt>
      <trkpt lat="27.83666752" lon="85.95282554">
        <ele>3018.0000</ele>
        <time>2010-01-01T00:47:21Z</time>
      </trkpt>
      <trkpt lat="27.83803369" lon="85.94982147">
        <ele>2949.0000</ele>
        <time>2010-01-01T00:49:21Z</time>
      </trkpt>
      <trkpt lat="27.83841318" lon="85.94896316">
        <ele>2949.0000</ele>
        <time>2010-01-01T00:49:55Z</time>
      </trkpt>
      <trkpt lat="27.83871676" lon="85.94767570">
        <ele>2950.0000</ele>
        <time>2010-01-01T00:50:42Z</time>
      </trkpt>
      <trkpt lat="27.83917215" lon="85.94647407">
        <ele>2915.0000</ele>
        <time>2010-01-01T00:51:28Z</time>
      </trkpt>
      <trkpt lat="27.83939984" lon="85.94647407">
        <ele>2915.0000</ele>
        <time>2010-01-01T00:00:00Z</time>
      </trkpt>
      <trkpt lat="27.83902035" lon="85.94158172">
        <ele>2951.0000</ele>
        <time>2010-01-01T00:02:53Z</time>
      </trkpt>
      <trkpt lat="27.83841318" lon="85.93917846">
        <ele>2932.0000</ele>
        <time>2010-01-01T00:04:22Z</time>
      </trkpt>
      <trkpt lat="27.83788189" lon="85.93677520">
        <ele>2914.0000</ele>
        <time>2010-01-01T00:05:50Z</time>
      </trkpt>
      <trkpt lat="27.83681932" lon="85.93420028">
        <ele>2966.0000</ele>
        <time>2010-01-01T00:07:30Z</time>
      </trkpt>
      <trkpt lat="27.83606033" lon="85.93205451">
        <ele>2942.0000</ele>
        <time>2010-01-01T00:08:52Z</time>
      </trkpt>
      <trkpt lat="27.83547330" lon="85.92990875">
        <ele>2884.0000</ele>
        <time>2010-01-01T00:10:11Z</time>
      </trkpt>
      <trkpt lat="27.83486610" lon="85.92716217">
        <ele>2819.0000</ele>
        <time>2010-01-01T00:11:52Z</time>
      </trkpt>
      <trkpt lat="27.83471430" lon="85.92458724">
        <ele>2747.0000</ele>
        <time>2010-01-01T00:13:23Z</time>
      </trkpt>
      <trkpt lat="27.83441070" lon="85.92235565">
        <ele>2754.0000</ele>
        <time>2010-01-01T00:14:43Z</time>
      </trkpt>
      <trkpt lat="27.83441070" lon="85.91960906">
        <ele>2795.0000</ele>
        <time>2010-01-01T00:16:20Z</time>
      </trkpt>
      <trkpt lat="27.83532150" lon="85.91754913">
        <ele>2718.0000</ele>
        <time>2010-01-01T00:17:42Z</time>
      </trkpt>
      <trkpt lat="27.83608049" lon="85.91583251">
        <ele>2627.0000</ele>
        <time>2010-01-01T00:18:50Z</time>
      </trkpt>
      <trkpt lat="27.83820564" lon="85.91291427">
        <ele>2498.0000</ele>
        <time>2010-01-01T00:21:03Z</time>
      </trkpt>
      <trkpt lat="27.83972358" lon="85.91171264">
        <ele>2453.0000</ele>
        <time>2010-01-01T00:22:18Z</time>
      </trkpt>
      <trkpt lat="27.83969000" lon="85.91167000">
        <ele>2454.0000</ele>
        <time>2010-01-01T00:22:20Z</time>
      </trkpt>
      <trkpt lat="27.83978000" lon="85.91159000">
        <ele>2450.0000</ele>
        <time>2010-01-01T00:22:24Z</time>
      </trkpt>
      <trkpt lat="27.83992000" lon="85.91155000">
        <ele>2445.0000</ele>
        <time>2010-01-01T00:22:30Z</time>
      </trkpt>
      <trkpt lat="27.84009000" lon="85.91144000">
        <ele>2438.0000</ele>
        <time>2010-01-01T00:22:38Z</time>
      </trkpt>
      <trkpt lat="27.84014000" lon="85.91134000">
        <ele>2436.0000</ele>
        <time>2010-01-01T00:22:42Z</time>
      </trkpt>
      <trkpt lat="27.84015000" lon="85.91123000">
        <ele>2434.0000</ele>
        <time>2010-01-01T00:22:46Z</time>
      </trkpt>
      <trkpt lat="27.84027000" lon="85.91122000">
        <ele>2431.0000</ele>
        <time>2010-01-01T00:22:51Z</time>
      </trkpt>
      <trkpt lat="27.84030000" lon="85.91115000">
        <ele>2429.0000</ele>
        <time>2010-01-01T00:22:53Z</time>
      </trkpt>
      <trkpt lat="27.84043000" lon="85.91109000">
        <ele>2422.0000</ele>
        <time>2010-01-01T00:22:59Z</time>
      </trkpt>
      <trkpt lat="27.84053000" lon="85.91106000">
        <ele>2418.0000</ele>
        <time>2010-01-01T00:23:03Z</time>
      </trkpt>
      <trkpt lat="27.84062000" lon="85.91095000">
        <ele>2414.0000</ele>
        <time>2010-01-01T00:23:08Z</time>
      </trkpt>
      <trkpt lat="27.84075000" lon="85.91092000">
        <ele>2410.0000</ele>
        <time>2010-01-01T00:23:14Z</time>
      </trkpt>
      <trkpt lat="27.84088000" lon="85.91087000">
        <ele>2406.0000</ele>
        <time>2010-01-01T00:23:19Z</time>
      </trkpt>
      <trkpt lat="27.84093000" lon="85.91090000">
        <ele>2404.0000</ele>
        <time>2010-01-01T00:23:21Z</time>
      </trkpt>
      <trkpt lat="27.84100000" lon="85.91088000">
        <ele>2403.0000</ele>
        <time>2010-01-01T00:23:24Z</time>
      </trkpt>
      <trkpt lat="27.84095000" lon="85.91074000">
        <ele>2404.0000</ele>
        <time>2010-01-01T00:23:30Z</time>
      </trkpt>
      <trkpt lat="27.84098000" lon="85.91066000">
        <ele>2403.0000</ele>
        <time>2010-01-01T00:23:33Z</time>
      </trkpt>
      <trkpt lat="27.84102000" lon="85.91061000">
        <ele>2402.0000</ele>
        <time>2010-01-01T00:23:35Z</time>
      </trkpt>
      <trkpt lat="27.84101000" lon="85.91058000">
        <ele>2402.0000</ele>
        <time>2010-01-01T00:23:36Z</time>
      </trkpt>
      <trkpt lat="27.84101000" lon="85.91048000">
        <ele>2400.0000</ele>
        <time>2010-01-01T00:23:40Z</time>
      </trkpt>
      <trkpt lat="27.84106000" lon="85.91032000">
        <ele>2399.0000</ele>
        <time>2010-01-01T00:23:46Z</time>
      </trkpt>
      <trkpt lat="27.84113000" lon="85.91021000">
        <ele>2396.0000</ele>
        <time>2010-01-01T00:23:51Z</time>
      </trkpt>
      <trkpt lat="27.84111000" lon="85.91012000">
        <ele>2394.0000</ele>
        <time>2010-01-01T00:23:54Z</time>
      </trkpt>
      <trkpt lat="27.84115000" lon="85.91001000">
        <ele>2390.0000</ele>
        <time>2010-01-01T00:23:58Z</time>
      </trkpt>
      <trkpt lat="27.84111000" lon="85.90993000">
        <ele>2387.0000</ele>
        <time>2010-01-01T00:24:01Z</time>
      </trkpt>
      <trkpt lat="27.84106000" lon="85.90972000">
        <ele>2378.0000</ele>
        <time>2010-01-01T00:24:09Z</time>
      </trkpt>
      <trkpt lat="27.84108000" lon="85.90968000">
        <ele>2377.0000</ele>
        <time>2010-01-01T00:24:11Z</time>
      </trkpt>
      <trkpt lat="27.84109000" lon="85.90960000">
        <ele>2375.0000</ele>
        <time>2010-01-01T00:24:14Z</time>
      </trkpt>
      <trkpt lat="27.84115000" lon="85.90955000">
        <ele>2374.0000</ele>
        <time>2010-01-01T00:24:17Z</time>
      </trkpt>
      <trkpt lat="27.84115000" lon="85.90949000">
        <ele>2372.0000</ele>
        <time>2010-01-01T00:24:19Z</time>
      </trkpt>
      <trkpt lat="27.84121000" lon="85.90938000">
        <ele>2369.0000</ele>
        <time>2010-01-01T00:24:23Z</time>
      </trkpt>
      <trkpt lat="27.84143000" lon="85.90926000">
        <ele>2365.0000</ele>
        <time>2010-01-01T00:24:33Z</time>
      </trkpt>
      <trkpt lat="27.84148000" lon="85.90919000">
        <ele>2362.0000</ele>
        <time>2010-01-01T00:24:36Z</time>
      </trkpt>
      <trkpt lat="27.84147000" lon="85.90913000">
        <ele>2361.0000</ele>
        <time>2010-01-01T00:24:38Z</time>
      </trkpt>
      <trkpt lat="27.84160000" lon="85.90898000">
        <ele>2357.0000</ele>
        <time>2010-01-01T00:24:46Z</time>
      </trkpt>
      <trkpt lat="27.84161000" lon="85.90892000">
        <ele>2356.0000</ele>
        <time>2010-01-01T00:24:48Z</time>
      </trkpt>
      <trkpt lat="27.84165000" lon="85.90884000">
        <ele>2354.0000</ele>
        <time>2010-01-01T00:24:51Z</time>
      </trkpt>
      <trkpt lat="27.84180000" lon="85.90879000">
        <ele>2350.0000</ele>
        <time>2010-01-01T00:24:58Z</time>
      </trkpt>
      <trkpt lat="27.84199000" lon="85.90865000">
        <ele>2343.0000</ele>
        <time>2010-01-01T00:25:07Z</time>
      </trkpt>
      <trkpt lat="27.84212000" lon="85.90861000">
        <ele>2339.0000</ele>
        <time>2010-01-01T00:25:12Z</time>
      </trkpt>
      <trkpt lat="27.84243000" lon="85.90842000">
        <ele>2327.0000</ele>
        <time>2010-01-01T00:25:26Z</time>
      </trkpt>
      <trkpt lat="27.84261000" lon="85.90835000">
        <ele>2319.0000</ele>
        <time>2010-01-01T00:25:34Z</time>
      </trkpt>
      <trkpt lat="27.84272000" lon="85.90836000">
        <ele>2314.0000</ele>
        <time>2010-01-01T00:25:38Z</time>
      </trkpt>
      <trkpt lat="27.84284000" lon="85.90828000">
        <ele>2309.0000</ele>
        <time>2010-01-01T00:25:44Z</time>
      </trkpt>
      <trkpt lat="27.84308000" lon="85.90818000">
        <ele>2304.0000</ele>
        <time>2010-01-01T00:25:54Z</time>
      </trkpt>
      <trkpt lat="27.84355000" lon="85.90787000">
        <ele>2297.0000</ele>
        <time>2010-01-01T00:26:16Z</time>
      </trkpt>
      <trkpt lat="27.84362000" lon="85.90780000">
        <ele>2296.0000</ele>
        <time>2010-01-01T00:26:19Z</time>
      </trkpt>
      <trkpt lat="27.84378000" lon="85.90759000">
        <ele>2292.0000</ele>
        <time>2010-01-01T00:26:29Z</time>
      </trkpt>
      <trkpt lat="27.84378000" lon="85.90756000">
        <ele>2291.0000</ele>
        <time>2010-01-01T00:26:30Z</time>
      </trkpt>
      <trkpt lat="27.84375000" lon="85.90747000">
        <ele>2291.0000</ele>
        <time>2010-01-01T00:26:34Z</time>
      </trkpt>
      <trkpt lat="27.84374000" lon="85.90741000">
        <ele>2290.0000</ele>
        <time>2010-01-01T00:26:36Z</time>
      </trkpt>
      <trkpt lat="27.84372000" lon="85.90737000">
        <ele>2290.0000</ele>
        <time>2010-01-01T00:26:38Z</time>
      </trkpt>
      <trkpt lat="27.84372000" lon="85.90729000">
        <ele>2288.0000</ele>
        <time>2010-01-01T00:26:40Z</time>
      </trkpt>
      <trkpt lat="27.84373000" lon="85.90716000">
        <ele>2286.0000</ele>
        <time>2010-01-01T00:26:45Z</time>
      </trkpt>
      <trkpt lat="27.84368000" lon="85.90690000">
        <ele>2281.0000</ele>
        <time>2010-01-01T00:26:54Z</time>
      </trkpt>
      <trkpt lat="27.84371000" lon="85.90680000">
        <ele>2280.0000</ele>
        <time>2010-01-01T00:26:58Z</time>
      </trkpt>
      <trkpt lat="27.84380000" lon="85.90664000">
        <ele>2279.0000</ele>
        <time>2010-01-01T00:27:05Z</time>
      </trkpt>
      <trkpt lat="27.84379000" lon="85.90658000">
        <ele>2280.0000</ele>
        <time>2010-01-01T00:27:07Z</time>
      </trkpt>
      <trkpt lat="27.84362000" lon="85.90612000">
        <ele>2280.0000</ele>
        <time>2010-01-01T00:27:25Z</time>
      </trkpt>
      <trkpt lat="27.84351000" lon="85.90601000">
        <ele>2275.0000</ele>
        <time>2010-01-01T00:27:31Z</time>
      </trkpt>
      <trkpt lat="27.84347000" lon="85.90592000">
        <ele>2274.0000</ele>
        <time>2010-01-01T00:27:34Z</time>
      </trkpt>
      <trkpt lat="27.84342000" lon="85.90588000">
        <ele>2273.0000</ele>
        <time>2010-01-01T00:27:37Z</time>
      </trkpt>
      <trkpt lat="27.84340000" lon="85.90582000">
        <ele>2273.0000</ele>
        <time>2010-01-01T00:27:39Z</time>
      </trkpt>
      <trkpt lat="27.84341000" lon="85.90573000">
        <ele>2274.0000</ele>
        <time>2010-01-01T00:27:42Z</time>
      </trkpt>
      <trkpt lat="27.84338000" lon="85.90565000">
        <ele>2274.0000</ele>
        <time>2010-01-01T00:27:45Z</time>
      </trkpt>
      <trkpt lat="27.84331000" lon="85.90556000">
        <ele>2271.0000</ele>
        <time>2010-01-01T00:27:49Z</time>
      </trkpt>
      <trkpt lat="27.84311000" lon="85.90509000">
        <ele>2259.0000</ele>
        <time>2010-01-01T00:28:08Z</time>
      </trkpt>
      <trkpt lat="27.84310000" lon="85.90490000">
        <ele>2258.0000</ele>
        <time>2010-01-01T00:28:15Z</time>
      </trkpt>
      <trkpt lat="27.84314000" lon="85.90481000">
        <ele>2260.0000</ele>
        <time>2010-01-01T00:28:18Z</time>
      </trkpt>
      <trkpt lat="27.84314000" lon="85.90467000">
        <ele>2258.0000</ele>
        <time>2010-01-01T00:28:23Z</time>
      </trkpt>
      <trkpt lat="27.84311000" lon="85.90454000">
        <ele>2253.0000</ele>
        <time>2010-01-01T00:28:28Z</time>
      </trkpt>
      <trkpt lat="27.84316000" lon="85.90424000">
        <ele>2255.0000</ele>
        <time>2010-01-01T00:28:39Z</time>
      </trkpt>
      <trkpt lat="27.84316000" lon="85.90404000">
        <ele>2253.0000</ele>
        <time>2010-01-01T00:28:46Z</time>
      </trkpt>
      <trkpt lat="27.84313000" lon="85.90390000">
        <ele>2247.0000</ele>
        <time>2010-01-01T00:28:51Z</time>
      </trkpt>
      <trkpt lat="27.84308000" lon="85.90375000">
        <ele>2243.0000</ele>
        <time>2010-01-01T00:28:56Z</time>
      </trkpt>
      <trkpt lat="27.84302000" lon="85.90366000">
        <ele>2237.0000</ele>
        <time>2010-01-01T00:29:00Z</time>
      </trkpt>
      <trkpt lat="27.84299000" lon="85.90351000">
        <ele>2234.0000</ele>
        <time>2010-01-01T00:29:06Z</time>
      </trkpt>
      <trkpt lat="27.84288000" lon="85.90329000">
        <ele>2223.0000</ele>
        <time>2010-01-01T00:29:15Z</time>
      </trkpt>
      <trkpt lat="27.84282000" lon="85.90298000">
        <ele>2223.0000</ele>
        <time>2010-01-01T00:29:26Z</time>
      </trkpt>
      <trkpt lat="27.84281000" lon="85.90279000">
        <ele>2221.0000</ele>
        <time>2010-01-01T00:29:33Z</time>
      </trkpt>
      <trkpt lat="27.84284000" lon="85.90264000">
        <ele>2226.0000</ele>
        <time>2010-01-01T00:29:38Z</time>
      </trkpt>
      <trkpt lat="27.84293000" lon="85.90254000">
        <ele>2232.0000</ele>
        <time>2010-01-01T00:29:43Z</time>
      </trkpt>
      <trkpt lat="27.84322000" lon="85.90228000">
        <ele>2238.0000</ele>
        <time>2010-01-01T00:29:58Z</time>
      </trkpt>
      <trkpt lat="27.84337000" lon="85.90217000">
        <ele>2239.0000</ele>
        <time>2010-01-01T00:30:05Z</time>
      </trkpt>
      <trkpt lat="27.84362000" lon="85.90213000">
        <ele>2246.0000</ele>
        <time>2010-01-01T00:30:15Z</time>
      </trkpt>
      <trkpt lat="27.84369000" lon="85.90218000">
        <ele>2249.0000</ele>
        <time>2010-01-01T00:30:19Z</time>
      </trkpt>
      <trkpt lat="27.84378000" lon="85.90213000">
        <ele>2248.0000</ele>
        <time>2010-01-01T00:30:23Z</time>
      </trkpt>
      <trkpt lat="27.84389000" lon="85.90216000">
        <ele>2251.0000</ele>
        <time>2010-01-01T00:30:27Z</time>
      </trkpt>
      <trkpt lat="27.84394000" lon="85.90204000">
        <ele>2245.0000</ele>
        <time>2010-01-01T00:30:32Z</time>
      </trkpt>
      <trkpt lat="27.84406000" lon="85.90188000">
        <ele>2237.0000</ele>
        <time>2010-01-01T00:30:39Z</time>
      </trkpt>
      <trkpt lat="27.84414000" lon="85.90180000">
        <ele>2232.0000</ele>
        <time>2010-01-01T00:30:44Z</time>
      </trkpt>
      <trkpt lat="27.84423000" lon="85.90167000">
        <ele>2225.0000</ele>
        <time>2010-01-01T00:30:50Z</time>
      </trkpt>
      <trkpt lat="27.84427000" lon="85.90165000">
        <ele>2224.0000</ele>
        <time>2010-01-01T00:30:51Z</time>
      </trkpt>
      <trkpt lat="27.84448000" lon="85.90159000">
        <ele>2223.0000</ele>
        <time>2010-01-01T00:31:00Z</time>
      </trkpt>
      <trkpt lat="27.84461000" lon="85.90152000">
        <ele>2225.0000</ele>
        <time>2010-01-01T00:31:06Z</time>
      </trkpt>
      <trkpt lat="27.84470000" lon="85.90139000">
        <ele>2220.0000</ele>
        <time>2010-01-01T00:31:12Z</time>
      </trkpt>
      <trkpt lat="27.84484000" lon="85.90126000">
        <ele>2217.0000</ele>
        <time>2010-01-01T00:31:19Z</time>
      </trkpt>
      <trkpt lat="27.84494000" lon="85.90110000">
        <ele>2212.0000</ele>
        <time>2010-01-01T00:31:26Z</time>
      </trkpt>
      <trkpt lat="27.84498000" lon="85.90092000">
        <ele>2204.0000</ele>
        <time>2010-01-01T00:31:32Z</time>
      </trkpt>
      <trkpt lat="27.84508000" lon="85.90082000">
        <ele>2205.0000</ele>
        <time>2010-01-01T00:31:38Z</time>
      </trkpt>
      <trkpt lat="27.84516000" lon="85.90036000">
        <ele>2186.0000</ele>
        <time>2010-01-01T00:31:54Z</time>
      </trkpt>
      <trkpt lat="27.84519000" lon="85.90000000">
        <ele>2172.0000</ele>
        <time>2010-01-01T00:32:07Z</time>
      </trkpt>
      <trkpt lat="27.84526000" lon="85.89982000">
        <ele>2171.0000</ele>
        <time>2010-01-01T00:32:14Z</time>
      </trkpt>
      <trkpt lat="27.84542000" lon="85.89897000">
        <ele>2165.0000</ele>
        <time>2010-01-01T00:32:45Z</time>
      </trkpt>
      <trkpt lat="27.84541000" lon="85.89868000">
        <ele>2158.0000</ele>
        <time>2010-01-01T00:32:55Z</time>
      </trkpt>
      <trkpt lat="27.84544000" lon="85.89845000">
        <ele>2155.0000</ele>
        <time>2010-01-01T00:33:03Z</time>
      </trkpt>
      <trkpt lat="27.84539000" lon="85.89826000">
        <ele>2147.0000</ele>
        <time>2010-01-01T00:33:10Z</time>
      </trkpt>
      <trkpt lat="27.84540000" lon="85.89818000">
        <ele>2145.0000</ele>
        <time>2010-01-01T00:33:13Z</time>
      </trkpt>
      <trkpt lat="27.84539000" lon="85.89797000">
        <ele>2136.0000</ele>
        <time>2010-01-01T00:33:21Z</time>
      </trkpt>
      <trkpt lat="27.84527000" lon="85.89805000">
        <ele>2130.0000</ele>
        <time>2010-01-01T00:33:26Z</time>
      </trkpt>
      <trkpt lat="27.84525000" lon="85.89794000">
        <ele>2124.0000</ele>
        <time>2010-01-01T00:33:30Z</time>
      </trkpt>
      <trkpt lat="27.84518000" lon="85.89799000">
        <ele>2122.0000</ele>
        <time>2010-01-01T00:33:33Z</time>
      </trkpt>
      <trkpt lat="27.84520000" lon="85.89789000">
        <ele>2119.0000</ele>
        <time>2010-01-01T00:33:37Z</time>
      </trkpt>
      <trkpt lat="27.84513000" lon="85.89796000">
        <ele>2118.0000</ele>
        <time>2010-01-01T00:33:41Z</time>
      </trkpt>
      <trkpt lat="27.84513000" lon="85.89789000">
        <ele>2116.0000</ele>
        <time>2010-01-01T00:33:43Z</time>
      </trkpt>
      <trkpt lat="27.84510000" lon="85.89791000">
        <ele>2115.0000</ele>
        <time>2010-01-01T00:33:45Z</time>
      </trkpt>
      <trkpt lat="27.84511000" lon="85.89776000">
        <ele>2109.0000</ele>
        <time>2010-01-01T00:33:50Z</time>
      </trkpt>
      <trkpt lat="27.84506000" lon="85.89782000">
        <ele>2109.0000</ele>
        <time>2010-01-01T00:33:53Z</time>
      </trkpt>
      <trkpt lat="27.84506000" lon="85.89780000">
        <ele>2108.0000</ele>
        <time>2010-01-01T00:33:54Z</time>
      </trkpt>
      <trkpt lat="27.84495000" lon="85.89790000">
        <ele>2106.0000</ele>
        <time>2010-01-01T00:33:59Z</time>
      </trkpt>
      <trkpt lat="27.84491000" lon="85.89778000">
        <ele>2099.0000</ele>
        <time>2010-01-01T00:34:04Z</time>
      </trkpt>
      <trkpt lat="27.84511000" lon="85.89739000">
        <ele>2095.0000</ele>
        <time>2010-01-01T00:34:20Z</time>
      </trkpt>
      <trkpt lat="27.84523000" lon="85.89716000">
        <ele>2097.0000</ele>
        <time>2010-01-01T00:34:29Z</time>
      </trkpt>
      <trkpt lat="27.84523000" lon="85.89680000">
        <ele>2085.0000</ele>
        <time>2010-01-01T00:34:42Z</time>
      </trkpt>
      <trkpt lat="27.84543000" lon="85.89649000">
        <ele>2085.0000</ele>
        <time>2010-01-01T00:34:56Z</time>
      </trkpt>
      <trkpt lat="27.84586000" lon="85.89602000">
        <ele>2090.0000</ele>
        <time>2010-01-01T00:35:19Z</time>
      </trkpt>
      <trkpt lat="27.84605000" lon="85.89587000">
        <ele>2089.0000</ele>
        <time>2010-01-01T00:35:29Z</time>
      </trkpt>
      <trkpt lat="27.84615000" lon="85.89573000">
        <ele>2087.0000</ele>
        <time>2010-01-01T00:35:35Z</time>
      </trkpt>
      <trkpt lat="27.84624000" lon="85.89552000">
        <ele>2082.0000</ele>
        <time>2010-01-01T00:35:43Z</time>
      </trkpt>
      <trkpt lat="27.84625000" lon="85.89525000">
        <ele>2074.0000</ele>
        <time>2010-01-01T00:35:53Z</time>
      </trkpt>
      <trkpt lat="27.84618000" lon="85.89506000">
        <ele>2065.0000</ele>
        <time>2010-01-01T00:36:00Z</time>
      </trkpt>
      <trkpt lat="27.84630000" lon="85.89493000">
        <ele>2063.0000</ele>
        <time>2010-01-01T00:36:07Z</time>
      </trkpt>
      <trkpt lat="27.84638000" lon="85.89501000">
        <ele>2069.0000</ele>
        <time>2010-01-01T00:36:11Z</time>
      </trkpt>
      <trkpt lat="27.84662000" lon="85.89510000">
        <ele>2071.0000</ele>
        <time>2010-01-01T00:36:21Z</time>
      </trkpt>
      <trkpt lat="27.84708000" lon="85.89505000">
        <ele>2063.0000</ele>
        <time>2010-01-01T00:36:40Z</time>
      </trkpt>
      <trkpt lat="27.84724000" lon="85.89508000">
        <ele>2063.0000</ele>
        <time>2010-01-01T00:36:46Z</time>
      </trkpt>
      <trkpt lat="27.84779000" lon="85.89512000">
        <ele>2058.0000</ele>
        <time>2010-01-01T00:37:08Z</time>
      </trkpt>
      <trkpt lat="27.84833000" lon="85.89510000">
        <ele>2053.0000</ele>
        <time>2010-01-01T00:37:30Z</time>
      </trkpt>
      <trkpt lat="27.84854000" lon="85.89513000">
        <ele>2053.0000</ele>
        <time>2010-01-01T00:37:38Z</time>
      </trkpt>
      <trkpt lat="27.84885000" lon="85.89503000">
        <ele>2048.0000</ele>
        <time>2010-01-01T00:37:51Z</time>
      </trkpt>
      <trkpt lat="27.85012000" lon="85.89494000">
        <ele>2030.0000</ele>
        <time>2010-01-01T00:38:42Z</time>
      </trkpt>
      <trkpt lat="27.85033000" lon="85.89483000">
        <ele>2021.0000</ele>
        <time>2010-01-01T00:38:52Z</time>
      </trkpt>
      <trkpt lat="27.85053000" lon="85.89478000">
        <ele>2024.0000</ele>
        <time>2010-01-01T00:39:00Z</time>
      </trkpt>
      <trkpt lat="27.85072000" lon="85.89478000">
        <ele>2026.0000</ele>
        <time>2010-01-01T00:39:07Z</time>
      </trkpt>
      <trkpt lat="27.85094000" lon="85.89482000">
        <ele>2028.0000</ele>
        <time>2010-01-01T00:39:16Z</time>
      </trkpt>
      <trkpt lat="27.85132000" lon="85.89471000">
        <ele>2025.0000</ele>
        <time>2010-01-01T00:39:32Z</time>
      </trkpt>
      <trkpt lat="27.85156000" lon="85.89457000">
        <ele>2021.0000</ele>
        <time>2010-01-01T00:39:43Z</time>
      </trkpt>
      <trkpt lat="27.85189000" lon="85.89457000">
        <ele>2018.0000</ele>
        <time>2010-01-01T00:39:56Z</time>
      </trkpt>
      <trkpt lat="27.85237000" lon="85.89452000">
        <ele>2010.0000</ele>
        <time>2010-01-01T00:40:15Z</time>
      </trkpt>
      <trkpt lat="27.85249000" lon="85.89462000">
        <ele>2017.0000</ele>
        <time>2010-01-01T00:40:21Z</time>
      </trkpt>
      <trkpt lat="27.85295000" lon="85.89454000">
        <ele>2008.0000</ele>
        <time>2010-01-01T00:40:40Z</time>
      </trkpt>
      <trkpt lat="27.85328000" lon="85.89452000">
        <ele>2003.0000</ele>
        <time>2010-01-01T00:40:53Z</time>
      </trkpt>
      <trkpt lat="27.85349000" lon="85.89447000">
        <ele>2000.0000</ele>
        <time>2010-01-01T00:41:02Z</time>
      </trkpt>
      <trkpt lat="27.85356000" lon="85.89447000">
        <ele>2000.0000</ele>
        <time>2010-01-01T00:41:05Z</time>
      </trkpt>
      <trkpt lat="27.85376000" lon="85.89440000">
        <ele>1993.0000</ele>
        <time>2010-01-01T00:41:13Z</time>
      </trkpt>
      <trkpt lat="27.85401000" lon="85.89423000">
        <ele>1982.0000</ele>
        <time>2010-01-01T00:41:25Z</time>
      </trkpt>
      <trkpt lat="27.85415000" lon="85.89425000">
        <ele>1983.0000</ele>
        <time>2010-01-01T00:41:30Z</time>
      </trkpt>
      <trkpt lat="27.85428000" lon="85.89425000">
        <ele>1985.0000</ele>
        <time>2010-01-01T00:41:35Z</time>
      </trkpt>
      <trkpt lat="27.85468000" lon="85.89408000">
        <ele>1972.0000</ele>
        <time>2010-01-01T00:41:53Z</time>
      </trkpt>
      <trkpt lat="27.85495000" lon="85.89408000">
        <ele>1961.0000</ele>
        <time>2010-01-01T00:42:03Z</time>
      </trkpt>
      <trkpt lat="27.85501000" lon="85.89420000">
        <ele>1966.0000</ele>
        <time>2010-01-01T00:42:08Z</time>
      </trkpt>
      <trkpt lat="27.85504000" lon="85.89434000">
        <ele>1977.0000</ele>
        <time>2010-01-01T00:42:13Z</time>
      </trkpt>
      <trkpt lat="27.85560000" lon="85.89407000">
        <ele>1964.0000</ele>
        <time>2010-01-01T00:42:38Z</time>
      </trkpt>
      <trkpt lat="27.85573000" lon="85.89388000">
        <ele>1959.0000</ele>
        <time>2010-01-01T00:42:46Z</time>
      </trkpt>
      <trkpt lat="27.85610000" lon="85.89363000">
        <ele>1963.0000</ele>
        <time>2010-01-01T00:43:03Z</time>
      </trkpt>
      <trkpt lat="27.85661000" lon="85.89338000">
        <ele>1953.0000</ele>
        <time>2010-01-01T00:43:26Z</time>
      </trkpt>
      <trkpt lat="27.85736000" lon="85.89332000">
        <ele>1958.0000</ele>
        <time>2010-01-01T00:43:56Z</time>
      </trkpt>
      <trkpt lat="27.85763000" lon="85.89327000">
        <ele>1964.0000</ele>
        <time>2010-01-01T00:44:07Z</time>
      </trkpt>
      <trkpt lat="27.85778000" lon="85.89316000">
        <ele>1960.0000</ele>
        <time>2010-01-01T00:44:14Z</time>
      </trkpt>
      <trkpt lat="27.85821000" lon="85.89246000">
        <ele>1944.0000</ele>
        <time>2010-01-01T00:44:44Z</time>
      </trkpt>
      <trkpt lat="27.85836000" lon="85.89231000">
        <ele>1945.0000</ele>
        <time>2010-01-01T00:44:52Z</time>
      </trkpt>
      <trkpt lat="27.85865000" lon="85.89222000">
        <ele>1945.0000</ele>
        <time>2010-01-01T00:45:04Z</time>
      </trkpt>
      <trkpt lat="27.85882000" lon="85.89189000">
        <ele>1922.0000</ele>
        <time>2010-01-01T00:45:18Z</time>
      </trkpt>
      <trkpt lat="27.85897000" lon="85.89179000">
        <ele>1922.0000</ele>
        <time>2010-01-01T00:45:25Z</time>
      </trkpt>
      <trkpt lat="27.85929000" lon="85.89139000">
        <ele>1916.0000</ele>
        <time>2010-01-01T00:45:44Z</time>
      </trkpt>
      <trkpt lat="27.85939000" lon="85.89123000">
        <ele>1913.0000</ele>
        <time>2010-01-01T00:45:51Z</time>
      </trkpt>
      <trkpt lat="27.85956000" lon="85.89114000">
        <ele>1914.0000</ele>
        <time>2010-01-01T00:45:58Z</time>
      </trkpt>
      <trkpt lat="27.85964000" lon="85.89114000">
        <ele>1917.0000</ele>
        <time>2010-01-01T00:46:01Z</time>
      </trkpt>
      <trkpt lat="27.85975000" lon="85.89119000">
        <ele>1921.0000</ele>
        <time>2010-01-01T00:46:06Z</time>
      </trkpt>
      <trkpt lat="27.85981000" lon="85.89144000">
        <ele>1928.0000</ele>
        <time>2010-01-01T00:46:15Z</time>
      </trkpt>
      <trkpt lat="27.85986000" lon="85.89154000">
        <ele>1930.0000</ele>
        <time>2010-01-01T00:46:19Z</time>
      </trkpt>
      <trkpt lat="27.85991000" lon="85.89102000">
        <ele>1914.0000</ele>
        <time>2010-01-01T00:46:38Z</time>
      </trkpt>
      <trkpt lat="27.85981000" lon="85.89094000">
        <ele>1912.0000</ele>
        <time>2010-01-01T00:46:43Z</time>
      </trkpt>
      <trkpt lat="27.85962000" lon="85.89092000">
        <ele>1906.0000</ele>
        <time>2010-01-01T00:46:50Z</time>
      </trkpt>
      <trkpt lat="27.85976000" lon="85.89076000">
        <ele>1904.0000</ele>
        <time>2010-01-01T00:46:58Z</time>
      </trkpt>
      <trkpt lat="27.86000000" lon="85.89062000">
        <ele>1902.0000</ele>
        <time>2010-01-01T00:47:09Z</time>
      </trkpt>
      <trkpt lat="27.86017000" lon="85.89060000">
        <ele>1900.0000</ele>
        <time>2010-01-01T00:47:16Z</time>
      </trkpt>
      <trkpt lat="27.86062000" lon="85.89074000">
        <ele>1890.0000</ele>
        <time>2010-01-01T00:47:35Z</time>
      </trkpt>
      <trkpt lat="27.86092000" lon="85.89072000">
        <ele>1872.0000</ele>
        <time>2010-01-01T00:47:47Z</time>
      </trkpt>
      <trkpt lat="27.86100000" lon="85.89052000">
        <ele>1862.0000</ele>
        <time>2010-01-01T00:47:54Z</time>
      </trkpt>
      <trkpt lat="27.86114000" lon="85.88994000">
        <ele>1849.0000</ele>
        <time>2010-01-01T00:48:16Z</time>
      </trkpt>
      <trkpt lat="27.86129000" lon="85.88967000">
        <ele>1828.0000</ele>
        <time>2010-01-01T00:48:27Z</time>
      </trkpt>
      <trkpt lat="27.86145000" lon="85.88889000">
        <ele>1803.0000</ele>
        <time>2010-01-01T00:48:55Z</time>
      </trkpt>
      <trkpt lat="27.86142000" lon="85.88877000">
        <ele>1803.0000</ele>
        <time>2010-01-01T00:49:00Z</time>
      </trkpt>
      <trkpt lat="27.86132000" lon="85.88868000">
        <ele>1801.0000</ele>
        <time>2010-01-01T00:49:05Z</time>
      </trkpt>
      <trkpt lat="27.86128000" lon="85.88860000">
        <ele>1798.0000</ele>
        <time>2010-01-01T00:49:08Z</time>
      </trkpt>
      <trkpt lat="27.86114000" lon="85.88861000">
        <ele>1795.0000</ele>
        <time>2010-01-01T00:49:14Z</time>
      </trkpt>
      <trkpt lat="27.86071000" lon="85.88896000">
        <ele>1795.0000</ele>
        <time>2010-01-01T00:49:35Z</time>
      </trkpt>
      <trkpt lat="27.86027000" lon="85.88896000">
        <ele>1791.0000</ele>
        <time>2010-01-01T00:49:53Z</time>
      </trkpt>
      <trkpt lat="27.86014000" lon="85.88895000">
        <ele>1786.0000</ele>
        <time>2010-01-01T00:49:58Z</time>
      </trkpt>
      <trkpt lat="27.85999000" lon="85.88877000">
        <ele>1774.0000</ele>
        <time>2010-01-01T00:50:07Z</time>
      </trkpt>
      <trkpt lat="27.85988000" lon="85.88869000">
        <ele>1768.0000</ele>
        <time>2010-01-01T00:50:12Z</time>
      </trkpt>
      <trkpt lat="27.85967000" lon="85.88869000">
        <ele>1762.0000</ele>
        <time>2010-01-01T00:50:20Z</time>
      </trkpt>
      <trkpt lat="27.85951000" lon="85.88867000">
        <ele>1755.0000</ele>
        <time>2010-01-01T00:50:27Z</time>
      </trkpt>
      <trkpt lat="27.85915000" lon="85.88825000">
        <ele>1713.0000</ele>
        <time>2010-01-01T00:50:47Z</time>
      </trkpt>
      <trkpt lat="27.85912000" lon="85.88806000">
        <ele>1695.0000</ele>
        <time>2010-01-01T00:50:54Z</time>
      </trkpt>
      <trkpt lat="27.85920000" lon="85.88788000">
        <ele>1688.0000</ele>
        <time>2010-01-01T00:51:01Z</time>
      </trkpt>
      <trkpt lat="27.85934000" lon="85.88779000">
        <ele>1686.0000</ele>
        <time>2010-01-01T00:51:08Z</time>
      </trkpt>
      <trkpt lat="27.85939000" lon="85.88769000">
        <ele>1683.0000</ele>
        <time>2010-01-01T00:51:12Z</time>
      </trkpt>
      <trkpt lat="27.85920000" lon="85.88765000">
        <ele>1675.0000</ele>
        <time>2010-01-01T00:51:20Z</time>
      </trkpt>
      <trkpt lat="27.85901000" lon="85.88775000">
        <ele>1672.0000</ele>
        <time>2010-01-01T00:51:28Z</time>
      </trkpt>
      <trkpt lat="27.85863000" lon="85.88782000">
        <ele>1656.0000</ele>
        <time>2010-01-01T00:51:43Z</time>
      </trkpt>
      <trkpt lat="27.85844000" lon="85.88789000">
        <ele>1650.0000</ele>
        <time>2010-01-01T00:51:51Z</time>
      </trkpt>
      <trkpt lat="27.85839000" lon="85.88779000">
        <ele>1644.0000</ele>
        <time>2010-01-01T00:51:55Z</time>
      </trkpt>
      <trkpt lat="27.85842000" lon="85.88760000">
        <ele>1638.0000</ele>
        <time>2010-01-01T00:52:02Z</time>
      </trkpt>
      <trkpt lat="27.85858000" lon="85.88742000">
        <ele>1636.0000</ele>
        <time>2010-01-01T00:52:11Z</time>
      </trkpt>
      <trkpt lat="27.85870000" lon="85.88739000">
        <ele>1638.0000</ele>
        <time>2010-01-01T00:52:16Z</time>
      </trkpt>
      <trkpt lat="27.85894000" lon="85.88703000">
        <ele>1623.0000</ele>
        <time>2010-01-01T00:52:32Z</time>
      </trkpt>
      <trkpt lat="27.85915000" lon="85.88687000">
        <ele>1620.0000</ele>
        <time>2010-01-01T00:52:42Z</time>
      </trkpt>
      <trkpt lat="27.85902000" lon="85.88683000">
        <ele>1615.0000</ele>
        <time>2010-01-01T00:52:48Z</time>
      </trkpt>
      <trkpt lat="27.85858000" lon="85.88702000">
        <ele>1613.0000</ele>
        <time>2010-01-01T00:53:07Z</time>
      </trkpt>
      <trkpt lat="27.85829000" lon="85.88698000">
        <ele>1603.0000</ele>
        <time>2010-01-01T00:53:18Z</time>
      </trkpt>
      <trkpt lat="27.85829000" lon="85.88673000">
        <ele>1590.0000</ele>
        <time>2010-01-01T00:53:27Z</time>
      </trkpt>
      <trkpt lat="27.85838000" lon="85.88658000">
        <ele>1584.0000</ele>
        <time>2010-01-01T00:53:34Z</time>
      </trkpt>
      <trkpt lat="27.85855000" lon="85.88648000">
        <ele>1583.0000</ele>
        <time>2010-01-01T00:53:41Z</time>
      </trkpt>
      <trkpt lat="27.85872000" lon="85.88642000">
        <ele>1588.0000</ele>
        <time>2010-01-01T00:53:48Z</time>
      </trkpt>
      <trkpt lat="27.85908000" lon="85.88625000">
        <ele>1588.0000</ele>
        <time>2010-01-01T00:54:04Z</time>
      </trkpt>
      <trkpt lat="27.85921000" lon="85.88620000">
        <ele>1583.0000</ele>
        <time>2010-01-01T00:54:09Z</time>
      </trkpt>
      <trkpt lat="27.85951000" lon="85.88613000">
        <ele>1574.0000</ele>
        <time>2010-01-01T00:54:22Z</time>
      </trkpt>
      <trkpt lat="27.85948000" lon="85.88607000">
        <ele>1570.0000</ele>
        <time>2010-01-01T00:54:24Z</time>
      </trkpt>
      <trkpt lat="27.85927000" lon="85.88602000">
        <ele>1566.0000</ele>
        <time>2010-01-01T00:54:33Z</time>
      </trkpt>
      <trkpt lat="27.85923000" lon="85.88590000">
        <ele>1557.0000</ele>
        <time>2010-01-01T00:54:37Z</time>
      </trkpt>
      <trkpt lat="27.85916000" lon="85.88593000">
        <ele>1559.0000</ele>
        <time>2010-01-01T00:54:40Z</time>
      </trkpt>
      <trkpt lat="27.85920000" lon="85.88583000">
        <ele>1552.0000</ele>
        <time>2010-01-01T00:54:44Z</time>
      </trkpt>
      <trkpt lat="27.85936000" lon="85.88589000">
        <ele>1556.0000</ele>
        <time>2010-01-01T00:54:51Z</time>
      </trkpt>
      <trkpt lat="27.85945000" lon="85.88521000">
        <ele>1521.0000</ele>
        <time>2010-01-01T00:55:15Z</time>
      </trkpt>
      <trkpt lat="27.85939000" lon="85.88509000">
        <ele>1507.0000</ele>
        <time>2010-01-01T00:55:20Z</time>
      </trkpt>
      <trkpt lat="27.85898000" lon="85.88511000">
        <ele>1489.0000</ele>
        <time>2010-01-01T00:55:37Z</time>
      </trkpt>
      <trkpt lat="27.85865000" lon="85.88508000">
        <ele>1481.0000</ele>
        <time>2010-01-01T00:55:50Z</time>
      </trkpt>
      <trkpt lat="27.85852000" lon="85.88511000">
        <ele>1481.0000</ele>
        <time>2010-01-01T00:55:55Z</time>
      </trkpt>
      <trkpt lat="27.85849000" lon="85.88507000">
        <ele>1479.0000</ele>
        <time>2010-01-01T00:55:57Z</time>
      </trkpt>
      <trkpt lat="27.85852000" lon="85.88500000">
        <ele>1475.0000</ele>
        <time>2010-01-01T00:56:00Z</time>
      </trkpt>
      <trkpt lat="27.85871000" lon="85.88493000">
        <ele>1475.0000</ele>
        <time>2010-01-01T00:56:08Z</time>
      </trkpt>
      <trkpt lat="27.85903000" lon="85.88477000">
        <ele>1475.0000</ele>
        <time>2010-01-01T00:56:22Z</time>
      </trkpt>
      <trkpt lat="27.85913000" lon="85.88477000">
        <ele>1477.0000</ele>
        <time>2010-01-01T00:56:26Z</time>
      </trkpt>
      <trkpt lat="27.85912000" lon="85.88477000">
        <ele>1477.0000</ele>
        <time>2010-01-01T00:56:26Z</time>
      </trkpt>
      <trkpt lat="27.85916000" lon="85.88477000">
        <ele>1478.0000</ele>
        <time>2010-01-01T00:56:28Z</time>
      </trkpt>
      <trkpt lat="27.85951000" lon="85.88433000">
        <ele>1475.0000</ele>
        <time>2010-01-01T00:56:49Z</time>
      </trkpt>
      <trkpt lat="27.85965000" lon="85.88433000">
        <ele>1480.0000</ele>
        <time>2010-01-01T00:56:54Z</time>
      </trkpt>
      <trkpt lat="27.85974000" lon="85.88428000">
        <ele>1481.0000</ele>
        <time>2010-01-01T00:56:58Z</time>
      </trkpt>
      <trkpt lat="27.85991000" lon="85.88404000">
        <ele>1477.0000</ele>
        <time>2010-01-01T00:57:09Z</time>
      </trkpt>
      <trkpt lat="27.86013000" lon="85.88381000">
        <ele>1471.0000</ele>
        <time>2010-01-01T00:57:21Z</time>
      </trkpt>
      <trkpt lat="27.86044000" lon="85.88371000">
        <ele>1473.0000</ele>
        <time>2010-01-01T00:57:34Z</time>
      </trkpt>
      <trkpt lat="27.86062000" lon="85.88357000">
        <ele>1467.0000</ele>
        <time>2010-01-01T00:57:43Z</time>
      </trkpt>
      <trkpt lat="27.86088000" lon="85.88357000">
        <ele>1464.0000</ele>
        <time>2010-01-01T00:57:53Z</time>
      </trkpt>
      <trkpt lat="27.86102000" lon="85.88360000">
        <ele>1459.0000</ele>
        <time>2010-01-01T00:57:59Z</time>
      </trkpt>
      <trkpt lat="27.86136000" lon="85.88386000">
        <ele>1473.0000</ele>
        <time>2010-01-01T00:58:15Z</time>
      </trkpt>
      <trkpt lat="27.86168000" lon="85.88392000">
        <ele>1469.0000</ele>
        <time>2010-01-01T00:58:28Z</time>
      </trkpt>
      <trkpt lat="27.86174000" lon="85.88401000">
        <ele>1471.0000</ele>
        <time>2010-01-01T00:58:32Z</time>
      </trkpt>
      <trkpt lat="27.86187000" lon="85.88413000">
        <ele>1474.0000</ele>
        <time>2010-01-01T00:58:39Z</time>
      </trkpt>
      <trkpt lat="27.86210000" lon="85.88413000">
        <ele>1470.0000</ele>
        <time>2010-01-01T00:58:48Z</time>
      </trkpt>
      <trkpt lat="27.86214000" lon="85.88417000">
        <ele>1470.0000</ele>
        <time>2010-01-01T00:58:50Z</time>
      </trkpt>
      <trkpt lat="27.86238000" lon="85.88429000">
        <ele>1463.0000</ele>
        <time>2010-01-01T00:59:01Z</time>
      </trkpt>
      <trkpt lat="27.86254000" lon="85.88434000">
        <ele>1456.0000</ele>
        <time>2010-01-01T00:59:08Z</time>
      </trkpt>
      <trkpt lat="27.86264000" lon="85.88451000">
        <ele>1462.0000</ele>
        <time>2010-01-01T00:59:15Z</time>
      </trkpt>
      <trkpt lat="27.86276000" lon="85.88457000">
        <ele>1466.0000</ele>
        <time>2010-01-01T00:59:20Z</time>
      </trkpt>
      <trkpt lat="27.86334000" lon="85.88450000">
        <ele>1463.0000</ele>
        <time>2010-01-01T00:59:43Z</time>
      </trkpt>
      <trkpt lat="27.86349000" lon="85.88439000">
        <ele>1458.0000</ele>
        <time>2010-01-01T00:59:51Z</time>
      </trkpt>
      <trkpt lat="27.86356000" lon="85.88432000">
        <ele>1454.0000</ele>
        <time>2010-01-01T00:59:54Z</time>
      </trkpt>
      <trkpt lat="27.86369000" lon="85.88429000">
        <ele>1453.0000</ele>
        <time>2010-01-01T01:00:00Z</time>
      </trkpt>
      <trkpt lat="27.86387000" lon="85.88423000">
        <ele>1452.0000</ele>
        <time>2010-01-01T01:00:07Z</time>
      </trkpt>
      <trkpt lat="27.86407000" lon="85.88424000">
        <ele>1453.0000</ele>
        <time>2010-01-01T01:00:15Z</time>
      </trkpt>
      <trkpt lat="27.86426000" lon="85.88440000">
        <ele>1457.0000</ele>
        <time>2010-01-01T01:00:25Z</time>
      </trkpt>
      <trkpt lat="27.86438000" lon="85.88452000">
        <ele>1458.0000</ele>
        <time>2010-01-01T01:00:31Z</time>
      </trkpt>
      <trkpt lat="27.86448000" lon="85.88456000">
        <ele>1458.0000</ele>
        <time>2010-01-01T01:00:35Z</time>
      </trkpt>
      <trkpt lat="27.86464000" lon="85.88451000">
        <ele>1451.0000</ele>
        <time>2010-01-01T01:00:42Z</time>
      </trkpt>
      <trkpt lat="27.86493000" lon="85.88448000">
        <ele>1441.0000</ele>
        <time>2010-01-01T01:00:54Z</time>
      </trkpt>
      <trkpt lat="27.86507000" lon="85.88461000">
        <ele>1442.0000</ele>
        <time>2010-01-01T01:01:01Z</time>
      </trkpt>
      <trkpt lat="27.86539000" lon="85.88484000">
        <ele>1444.0000</ele>
        <time>2010-01-01T01:01:16Z</time>
      </trkpt>
      <trkpt lat="27.86551000" lon="85.88487000">
        <ele>1442.0000</ele>
        <time>2010-01-01T01:01:21Z</time>
      </trkpt>
      <trkpt lat="27.86572000" lon="85.88524000">
        <ele>1455.0000</ele>
        <time>2010-01-01T01:01:36Z</time>
      </trkpt>
      <trkpt lat="27.86592000" lon="85.88538000">
        <ele>1452.0000</ele>
        <time>2010-01-01T01:01:46Z</time>
      </trkpt>
      <trkpt lat="27.86604000" lon="85.88542000">
        <ele>1446.0000</ele>
        <time>2010-01-01T01:01:51Z</time>
      </trkpt>
      <trkpt lat="27.86609000" lon="85.88560000">
        <ele>1447.0000</ele>
        <time>2010-01-01T01:01:58Z</time>
      </trkpt>
      <trkpt lat="27.86600000" lon="85.88606000">
        <ele>1466.0000</ele>
        <time>2010-01-01T01:02:14Z</time>
      </trkpt>
      <trkpt lat="27.86656000" lon="85.88617000">
        <ele>1428.0000</ele>
        <time>2010-01-01T01:02:37Z</time>
      </trkpt>
      <trkpt lat="27.86694000" lon="85.88643000">
        <ele>1428.0000</ele>
        <time>2010-01-01T01:02:55Z</time>
      </trkpt>
      <trkpt lat="27.86711000" lon="85.88652000">
        <ele>1428.0000</ele>
        <time>2010-01-01T01:03:02Z</time>
      </trkpt>
      <trkpt lat="27.86723000" lon="85.88666000">
        <ele>1427.0000</ele>
        <time>2010-01-01T01:03:09Z</time>
      </trkpt>
      <trkpt lat="27.86725000" lon="85.88673000">
        <ele>1431.0000</ele>
        <time>2010-01-01T01:03:12Z</time>
      </trkpt>
      <trkpt lat="27.86742000" lon="85.88658000">
        <ele>1413.0000</ele>
        <time>2010-01-01T01:03:20Z</time>
      </trkpt>
      <trkpt lat="27.86763000" lon="85.88652000">
        <ele>1399.0000</ele>
        <time>2010-01-01T01:03:29Z</time>
      </trkpt>
      <trkpt lat="27.86782000" lon="85.88652000">
        <ele>1390.0000</ele>
        <time>2010-01-01T01:03:37Z</time>
      </trkpt>
      <trkpt lat="27.86794000" lon="85.88657000">
        <ele>1389.0000</ele>
        <time>2010-01-01T01:03:42Z</time>
      </trkpt>
      <trkpt lat="27.86809000" lon="85.88676000">
        <ele>1391.0000</ele>
        <time>2010-01-01T01:03:51Z</time>
      </trkpt>
      <trkpt lat="27.86814000" lon="85.88669000">
        <ele>1387.0000</ele>
        <time>2010-01-01T01:03:54Z</time>
      </trkpt>
      <trkpt lat="27.86807000" lon="85.88648000">
        <ele>1385.0000</ele>
        <time>2010-01-01T01:04:02Z</time>
      </trkpt>
      <trkpt lat="27.86796000" lon="85.88638000">
        <ele>1385.0000</ele>
        <time>2010-01-01T01:04:08Z</time>
      </trkpt>
      <trkpt lat="27.86796000" lon="85.88626000">
        <ele>1384.0000</ele>
        <time>2010-01-01T01:04:12Z</time>
      </trkpt>
      <trkpt lat="27.86807000" lon="85.88624000">
        <ele>1382.0000</ele>
        <time>2010-01-01T01:04:16Z</time>
      </trkpt>
      <trkpt lat="27.86827000" lon="85.88628000">
        <ele>1376.0000</ele>
        <time>2010-01-01T01:04:24Z</time>
      </trkpt>
      <trkpt lat="27.86841000" lon="85.88640000">
        <ele>1372.0000</ele>
        <time>2010-01-01T01:04:31Z</time>
      </trkpt>
      <trkpt lat="27.86867000" lon="85.88658000">
        <ele>1365.0000</ele>
        <time>2010-01-01T01:04:44Z</time>
      </trkpt>
      <trkpt lat="27.86883000" lon="85.88676000">
        <ele>1365.0000</ele>
        <time>2010-01-01T01:04:53Z</time>
      </trkpt>
      <trkpt lat="27.86882000" lon="85.88676000">
        <ele>1365.0000</ele>
        <time>2010-01-01T01:04:53Z</time>
      </trkpt>
      <trkpt lat="27.86919000" lon="85.88732000">
        <ele>1389.0000</ele>
        <time>2010-01-01T01:05:18Z</time>
      </trkpt>
      <trkpt lat="27.86955000" lon="85.88745000">
        <ele>1380.0000</ele>
        <time>2010-01-01T01:05:33Z</time>
      </trkpt>
      <trkpt lat="27.86991000" lon="85.88770000">
        <ele>1372.0000</ele>
        <time>2010-01-01T01:05:50Z</time>
      </trkpt>
      <trkpt lat="27.87029000" lon="85.88776000">
        <ele>1349.0000</ele>
        <time>2010-01-01T01:06:05Z</time>
      </trkpt>
      <trkpt lat="27.87047000" lon="85.88783000">
        <ele>1348.0000</ele>
        <time>2010-01-01T01:06:13Z</time>
      </trkpt>
      <trkpt lat="27.87057000" lon="85.88795000">
        <ele>1349.0000</ele>
        <time>2010-01-01T01:06:19Z</time>
      </trkpt>
      <trkpt lat="27.87065000" lon="85.88816000">
        <ele>1354.0000</ele>
        <time>2010-01-01T01:06:27Z</time>
      </trkpt>
      <trkpt lat="27.87102000" lon="85.88861000">
        <ele>1351.0000</ele>
        <time>2010-01-01T01:06:49Z</time>
      </trkpt>
      <trkpt lat="27.87130000" lon="85.88903000">
        <ele>1342.0000</ele>
        <time>2010-01-01T01:07:07Z</time>
      </trkpt>
      <trkpt lat="27.87140000" lon="85.88925000">
        <ele>1337.0000</ele>
        <time>2010-01-01T01:07:16Z</time>
      </trkpt>
      <trkpt lat="27.87148000" lon="85.88935000">
        <ele>1336.0000</ele>
        <time>2010-01-01T01:07:21Z</time>
      </trkpt>
      <trkpt lat="27.87184000" lon="85.89005000">
        <ele>1334.0000</ele>
        <time>2010-01-01T01:07:49Z</time>
      </trkpt>
      <trkpt lat="27.87194000" lon="85.89044000">
        <ele>1334.0000</ele>
        <time>2010-01-01T01:08:04Z</time>
      </trkpt>
      <trkpt lat="27.87196000" lon="85.89094000">
        <ele>1336.0000</ele>
        <time>2010-01-01T01:08:21Z</time>
      </trkpt>
      <trkpt lat="27.87191000" lon="85.89107000">
        <ele>1337.0000</ele>
        <time>2010-01-01T01:08:26Z</time>
      </trkpt>
      <trkpt lat="27.87183000" lon="85.89135000">
        <ele>1339.0000</ele>
        <time>2010-01-01T01:08:37Z</time>
      </trkpt>
      <trkpt lat="27.87182000" lon="85.89155000">
        <ele>1340.0000</ele>
        <time>2010-01-01T01:08:44Z</time>
      </trkpt>
      <trkpt lat="27.87178000" lon="85.89168000">
        <ele>1341.0000</ele>
        <time>2010-01-01T01:08:49Z</time>
      </trkpt>
      <trkpt lat="27.87150000" lon="85.89187000">
        <ele>1354.0000</ele>
        <time>2010-01-01T01:09:02Z</time>
      </trkpt>
      <trkpt lat="27.87208000" lon="85.89197000">
        <ele>1333.0000</ele>
        <time>2010-01-01T01:09:25Z</time>
      </trkpt>
      <trkpt lat="27.87219000" lon="85.89197000">
        <ele>1330.0000</ele>
        <time>2010-01-01T01:09:30Z</time>
      </trkpt>
      <trkpt lat="27.87237000" lon="85.89215000">
        <ele>1329.0000</ele>
        <time>2010-01-01T01:09:39Z</time>
      </trkpt>
      <trkpt lat="27.87264000" lon="85.89232000">
        <ele>1328.0000</ele>
        <time>2010-01-01T01:09:52Z</time>
      </trkpt>
      <trkpt lat="27.87285000" lon="85.89242000">
        <ele>1324.0000</ele>
        <time>2010-01-01T01:10:01Z</time>
      </trkpt>
      <trkpt lat="27.87318000" lon="85.89248000">
        <ele>1315.0000</ele>
        <time>2010-01-01T01:10:14Z</time>
      </trkpt>
      <trkpt lat="27.87336000" lon="85.89273000">
        <ele>1313.0000</ele>
        <time>2010-01-01T01:10:26Z</time>
      </trkpt>
      <trkpt lat="27.87351000" lon="85.89288000">
        <ele>1309.0000</ele>
        <time>2010-01-01T01:10:34Z</time>
      </trkpt>
      <trkpt lat="27.87359000" lon="85.89301000">
        <ele>1308.0000</ele>
        <time>2010-01-01T01:10:39Z</time>
      </trkpt>
      <trkpt lat="27.87356000" lon="85.89341000">
        <ele>1311.0000</ele>
        <time>2010-01-01T01:10:53Z</time>
      </trkpt>
      <trkpt lat="27.87364000" lon="85.89358000">
        <ele>1308.0000</ele>
        <time>2010-01-01T01:11:00Z</time>
      </trkpt>
      <trkpt lat="27.87362000" lon="85.89375000">
        <ele>1311.0000</ele>
        <time>2010-01-01T01:11:06Z</time>
      </trkpt>
      <trkpt lat="27.87359000" lon="85.89385000">
        <ele>1314.0000</ele>
        <time>2010-01-01T01:11:10Z</time>
      </trkpt>
      <trkpt lat="27.87371000" lon="85.89403000">
        <ele>1314.0000</ele>
        <time>2010-01-01T01:11:18Z</time>
      </trkpt>
      <trkpt lat="27.87422000" lon="85.89465000">
        <ele>1310.0000</ele>
        <time>2010-01-01T01:11:48Z</time>
      </trkpt>
      <trkpt lat="27.87484000" lon="85.89525000">
        <ele>1280.0000</ele>
        <time>2010-01-01T01:12:21Z</time>
      </trkpt>
      <trkpt lat="27.87492000" lon="85.89545000">
        <ele>1273.0000</ele>
        <time>2010-01-01T01:12:28Z</time>
      </trkpt>
      <trkpt lat="27.87487000" lon="85.89569000">
        <ele>1276.0000</ele>
        <time>2010-01-01T01:12:37Z</time>
      </trkpt>
      <trkpt lat="27.87474000" lon="85.89583000">
        <ele>1286.0000</ele>
        <time>2010-01-01T01:12:44Z</time>
      </trkpt>
      <trkpt lat="27.87479000" lon="85.89606000">
        <ele>1281.0000</ele>
        <time>2010-01-01T01:12:53Z</time>
      </trkpt>
      <trkpt lat="27.87480000" lon="85.89624000">
        <ele>1276.0000</ele>
        <time>2010-01-01T01:12:59Z</time>
      </trkpt>
      <trkpt lat="27.87471000" lon="85.89662000">
        <ele>1275.0000</ele>
        <time>2010-01-01T01:13:13Z</time>
      </trkpt>
      <trkpt lat="27.87473000" lon="85.89686000">
        <ele>1269.0000</ele>
        <time>2010-01-01T01:13:22Z</time>
      </trkpt>
      <trkpt lat="27.87464000" lon="85.89719000">
        <ele>1273.0000</ele>
        <time>2010-01-01T01:13:34Z</time>
      </trkpt>
      <trkpt lat="27.87458000" lon="85.89734000">
        <ele>1278.0000</ele>
        <time>2010-01-01T01:13:40Z</time>
      </trkpt>
      <trkpt lat="27.87466000" lon="85.89741000">
        <ele>1274.0000</ele>
        <time>2010-01-01T01:13:44Z</time>
      </trkpt>
      <trkpt lat="27.87476000" lon="85.89741000">
        <ele>1267.0000</ele>
        <time>2010-01-01T01:13:48Z</time>
      </trkpt>
      <trkpt lat="27.87486000" lon="85.89733000">
        <ele>1260.0000</ele>
        <time>2010-01-01T01:13:53Z</time>
      </trkpt>
      <trkpt lat="27.87489000" lon="85.89723000">
        <ele>1257.0000</ele>
        <time>2010-01-01T01:13:56Z</time>
      </trkpt>
      <trkpt lat="27.87524000" lon="85.89649000">
        <ele>1238.0000</ele>
        <time>2010-01-01T01:14:26Z</time>
      </trkpt>
      <trkpt lat="27.87527000" lon="85.89626000">
        <ele>1238.0000</ele>
        <time>2010-01-01T01:14:34Z</time>
      </trkpt>
      <trkpt lat="27.87538000" lon="85.89608000">
        <ele>1235.0000</ele>
        <time>2010-01-01T01:14:42Z</time>
      </trkpt>
      <trkpt lat="27.87570000" lon="85.89653000">
        <ele>1213.0000</ele>
        <time>2010-01-01T01:15:02Z</time>
      </trkpt>
      <trkpt lat="27.87575000" lon="85.89670000">
        <ele>1209.0000</ele>
        <time>2010-01-01T01:15:09Z</time>
      </trkpt>
      <trkpt lat="27.87574000" lon="85.89689000">
        <ele>1206.0000</ele>
        <time>2010-01-01T01:15:15Z</time>
      </trkpt>
      <trkpt lat="27.87546000" lon="85.89749000">
        <ele>1221.0000</ele>
        <time>2010-01-01T01:15:40Z</time>
      </trkpt>
      <trkpt lat="27.87535000" lon="85.89765000">
        <ele>1226.0000</ele>
        <time>2010-01-01T01:15:47Z</time>
      </trkpt>
      <trkpt lat="27.87548000" lon="85.89765000">
        <ele>1218.0000</ele>
        <time>2010-01-01T01:15:52Z</time>
      </trkpt>
      <trkpt lat="27.87560000" lon="85.89760000">
        <ele>1211.0000</ele>
        <time>2010-01-01T01:15:57Z</time>
      </trkpt>
      <trkpt lat="27.87576000" lon="85.89740000">
        <ele>1202.0000</ele>
        <time>2010-01-01T01:16:07Z</time>
      </trkpt>
      <trkpt lat="27.87592000" lon="85.89731000">
        <ele>1194.0000</ele>
        <time>2010-01-01T01:16:14Z</time>
      </trkpt>
      <trkpt lat="27.87608000" lon="85.89763000">
        <ele>1182.0000</ele>
        <time>2010-01-01T01:16:27Z</time>
      </trkpt>
      <trkpt lat="27.87595000" lon="85.89797000">
        <ele>1187.0000</ele>
        <time>2010-01-01T01:16:40Z</time>
      </trkpt>
      <trkpt lat="27.87572000" lon="85.89832000">
        <ele>1212.0000</ele>
        <time>2010-01-01T01:16:55Z</time>
      </trkpt>
      <trkpt lat="27.87577000" lon="85.89854000">
        <ele>1219.0000</ele>
        <time>2010-01-01T01:17:03Z</time>
      </trkpt>
      <trkpt lat="27.87601000" lon="85.89858000">
        <ele>1202.0000</ele>
        <time>2010-01-01T01:17:13Z</time>
      </trkpt>
      <trkpt lat="27.87643000" lon="85.89880000">
        <ele>1170.0000</ele>
        <time>2010-01-01T01:17:32Z</time>
      </trkpt>
      <trkpt lat="27.87661000" lon="85.89893000">
        <ele>1165.0000</ele>
        <time>2010-01-01T01:17:40Z</time>
      </trkpt>
      <trkpt lat="27.87673000" lon="85.89910000">
        <ele>1167.0000</ele>
        <time>2010-01-01T01:17:48Z</time>
      </trkpt>
      <trkpt lat="27.87685000" lon="85.89945000">
        <ele>1166.0000</ele>
        <time>2010-01-01T01:18:01Z</time>
      </trkpt>
      <trkpt lat="27.87689000" lon="85.89986000">
        <ele>1168.0000</ele>
        <time>2010-01-01T01:18:16Z</time>
      </trkpt>
      <trkpt lat="27.87696000" lon="85.90011000">
        <ele>1165.0000</ele>
        <time>2010-01-01T01:18:25Z</time>
      </trkpt>
      <trkpt lat="27.87707000" lon="85.90066000">
        <ele>1167.0000</ele>
        <time>2010-01-01T01:18:45Z</time>
      </trkpt>
      <trkpt lat="27.87725000" lon="85.90105000">
        <ele>1160.0000</ele>
        <time>2010-01-01T01:19:00Z</time>
      </trkpt>
      <trkpt lat="27.87761000" lon="85.90151000">
        <ele>1151.0000</ele>
        <time>2010-01-01T01:19:22Z</time>
      </trkpt>
      <trkpt lat="27.87790000" lon="85.90197000">
        <ele>1162.0000</ele>
        <time>2010-01-01T01:19:42Z</time>
      </trkpt>
      <trkpt lat="27.87811000" lon="85.90235000">
        <ele>1160.0000</ele>
        <time>2010-01-01T01:19:58Z</time>
      </trkpt>
      <trkpt lat="27.87854000" lon="85.90342000">
        <ele>1135.0000</ele>
        <time>2010-01-01T01:20:40Z</time>
      </trkpt>
      <trkpt lat="27.87864000" lon="85.90382000">
        <ele>1135.0000</ele>
        <time>2010-01-01T01:20:54Z</time>
      </trkpt>
      <trkpt lat="27.87876000" lon="85.90453000">
        <ele>1160.0000</ele>
        <time>2010-01-01T01:21:20Z</time>
      </trkpt>
      <trkpt lat="27.87848000" lon="85.90534000">
        <ele>1198.0000</ele>
        <time>2010-01-01T01:21:51Z</time>
      </trkpt>
      <trkpt lat="27.87897000" lon="85.90610000">
        <ele>1174.0000</ele>
        <time>2010-01-01T01:22:24Z</time>
      </trkpt>
      <trkpt lat="27.87924000" lon="85.90634000">
        <ele>1164.0000</ele>
        <time>2010-01-01T01:22:38Z</time>
      </trkpt>
      <trkpt lat="27.87945000" lon="85.90665000">
        <ele>1162.0000</ele>
        <time>2010-01-01T01:22:52Z</time>
      </trkpt>
      <trkpt lat="27.87957000" lon="85.90638000">
        <ele>1153.0000</ele>
        <time>2010-01-01T01:23:02Z</time>
      </trkpt>
      <trkpt lat="27.87949000" lon="85.90615000">
        <ele>1151.0000</ele>
        <time>2010-01-01T01:23:11Z</time>
      </trkpt>
      <trkpt lat="27.87956000" lon="85.90610000">
        <ele>1148.0000</ele>
        <time>2010-01-01T01:23:14Z</time>
      </trkpt>
      <trkpt lat="27.87969000" lon="85.90624000">
        <ele>1147.0000</ele>
        <time>2010-01-01T01:23:21Z</time>
      </trkpt>
      <trkpt lat="27.87980000" lon="85.90628000">
        <ele>1146.0000</ele>
        <time>2010-01-01T01:23:26Z</time>
      </trkpt>
      <trkpt lat="27.88007000" lon="85.90659000">
        <ele>1149.0000</ele>
        <time>2010-01-01T01:23:42Z</time>
      </trkpt>
      <trkpt lat="27.88012000" lon="85.90691000">
        <ele>1154.0000</ele>
        <time>2010-01-01T01:23:53Z</time>
      </trkpt>
      <trkpt lat="27.88020000" lon="85.90705000">
        <ele>1152.0000</ele>
        <time>2010-01-01T01:23:59Z</time>
      </trkpt>
      <trkpt lat="27.88035000" lon="85.90700000">
        <ele>1147.0000</ele>
        <time>2010-01-01T01:24:05Z</time>
      </trkpt>
      <trkpt lat="27.88060000" lon="85.90679000">
        <ele>1148.0000</ele>
        <time>2010-01-01T01:24:18Z</time>
      </trkpt>
      <trkpt lat="27.88069000" lon="85.90677000">
        <ele>1149.0000</ele>
        <time>2010-01-01T01:24:21Z</time>
      </trkpt>
      <trkpt lat="27.88075000" lon="85.90680000">
        <ele>1151.0000</ele>
        <time>2010-01-01T01:24:24Z</time>
      </trkpt>
      <trkpt lat="27.88079000" lon="85.90698000">
        <ele>1153.0000</ele>
        <time>2010-01-01T01:24:30Z</time>
      </trkpt>
      <trkpt lat="27.88087000" lon="85.90715000">
        <ele>1156.0000</ele>
        <time>2010-01-01T01:24:37Z</time>
      </trkpt>
      <trkpt lat="27.88106000" lon="85.90747000">
        <ele>1153.0000</ele>
        <time>2010-01-01T01:24:51Z</time>
      </trkpt>
      <trkpt lat="27.88121000" lon="85.90758000">
        <ele>1155.0000</ele>
        <time>2010-01-01T01:24:58Z</time>
      </trkpt>
      <trkpt lat="27.88135000" lon="85.90767000">
        <ele>1153.0000</ele>
        <time>2010-01-01T01:25:05Z</time>
      </trkpt>
      <trkpt lat="27.88158000" lon="85.90770000">
        <ele>1168.0000</ele>
        <time>2010-01-01T01:25:14Z</time>
      </trkpt>
      <trkpt lat="27.88187000" lon="85.90802000">
        <ele>1165.0000</ele>
        <time>2010-01-01T01:25:30Z</time>
      </trkpt>
      <trkpt lat="27.88168000" lon="85.90821000">
        <ele>1150.0000</ele>
        <time>2010-01-01T01:25:40Z</time>
      </trkpt>
      <trkpt lat="27.88150422" lon="85.90836524">
        <ele>1151.0000</ele>
        <time>2010-01-01T00:00:00Z</time>
      </trkpt>
      <trkpt lat="27.88195942" lon="85.90780735">
        <ele>1195.0000</ele>
        <time>2010-01-01T00:00:53Z</time>
      </trkpt>
      <trkpt lat="27.88150422" lon="85.90694904">
        <ele>1202.0000</ele>
        <time>2010-01-01T00:02:04Z</time>
      </trkpt>
      <trkpt lat="27.88139042" lon="85.90587615">
        <ele>1200.0000</ele>
        <time>2010-01-01T00:03:21Z</time>
      </trkpt>
      <trkpt lat="27.88188356" lon="85.90488910">
        <ele>1263.0000</ele>
        <time>2010-01-01T00:04:41Z</time>
      </trkpt>
      <trkpt lat="27.88233876" lon="85.90424537">
        <ele>1293.0000</ele>
        <time>2010-01-01T00:05:39Z</time>
      </trkpt>
      <trkpt lat="27.88294569" lon="85.90291500">
        <ele>1431.0000</ele>
        <time>2010-01-01T00:07:25Z</time>
      </trkpt>
      <trkpt lat="27.88321122" lon="85.90171337">
        <ele>1542.0000</ele>
        <time>2010-01-01T00:08:53Z</time>
      </trkpt>
      <trkpt lat="27.88359055" lon="85.90034008">
        <ele>1646.0000</ele>
        <time>2010-01-01T00:10:35Z</time>
      </trkpt>
      <trkpt lat="27.88412161" lon="85.89862346">
        <ele>1732.0000</ele>
        <time>2010-01-01T00:12:43Z</time>
      </trkpt>
      <trkpt lat="27.88461473" lon="85.89767932">
        <ele>1772.0000</ele>
        <time>2010-01-01T00:14:01Z</time>
      </trkpt>
      <trkpt lat="27.88460000" lon="85.89767000">
        <ele>1772.0000</ele>
        <time>2010-01-01T00:14:02Z</time>
      </trkpt>
      <trkpt lat="27.88462000" lon="85.89763000">
        <ele>1773.0000</ele>
        <time>2010-01-01T00:14:05Z</time>
      </trkpt>
      <trkpt lat="27.88451000" lon="85.89744000">
        <ele>1775.0000</ele>
        <time>2010-01-01T00:14:22Z</time>
      </trkpt>
      <trkpt lat="27.88449000" lon="85.89733000">
        <ele>1777.0000</ele>
        <time>2010-01-01T00:14:29Z</time>
      </trkpt>
      <trkpt lat="27.88456000" lon="85.89730000">
        <ele>1778.0000</ele>
        <time>2010-01-01T00:14:35Z</time>
      </trkpt>
      <trkpt lat="27.88453000" lon="85.89720000">
        <ele>1780.0000</ele>
        <time>2010-01-01T00:14:43Z</time>
      </trkpt>
      <trkpt lat="27.88456000" lon="85.89701000">
        <ele>1783.0000</ele>
        <time>2010-01-01T00:14:57Z</time>
      </trkpt>
      <trkpt lat="27.88465000" lon="85.89698000">
        <ele>1784.0000</ele>
        <time>2010-01-01T00:15:04Z</time>
      </trkpt>
      <trkpt lat="27.88478000" lon="85.89699000">
        <ele>1783.0000</ele>
        <time>2010-01-01T00:15:15Z</time>
      </trkpt>
      <trkpt lat="27.88501000" lon="85.89677000">
        <ele>1786.0000</ele>
        <time>2010-01-01T00:15:39Z</time>
      </trkpt>
      <trkpt lat="27.88503000" lon="85.89663000">
        <ele>1790.0000</ele>
        <time>2010-01-01T00:15:49Z</time>
      </trkpt>
      <trkpt lat="27.88496000" lon="85.89649000">
        <ele>1793.0000</ele>
        <time>2010-01-01T00:16:00Z</time>
      </trkpt>
      <trkpt lat="27.88495000" lon="85.89630000">
        <ele>1796.0000</ele>
        <time>2010-01-01T00:16:14Z</time>
      </trkpt>
      <trkpt lat="27.88510000" lon="85.89572000">
        <ele>1803.0000</ele>
        <time>2010-01-01T00:16:56Z</time>
      </trkpt>
      <trkpt lat="27.88510000" lon="85.89545000">
        <ele>1810.0000</ele>
        <time>2010-01-01T00:17:15Z</time>
      </trkpt>
      <trkpt lat="27.88521000" lon="85.89514000">
        <ele>1812.0000</ele>
        <time>2010-01-01T00:17:39Z</time>
      </trkpt>
      <trkpt lat="27.88518000" lon="85.89461000">
        <ele>1826.0000</ele>
        <time>2010-01-01T00:18:17Z</time>
      </trkpt>
      <trkpt lat="27.88530000" lon="85.89446000">
        <ele>1824.0000</ele>
        <time>2010-01-01T00:18:31Z</time>
      </trkpt>
      <trkpt lat="27.88536000" lon="85.89419000">
        <ele>1829.0000</ele>
        <time>2010-01-01T00:18:51Z</time>
      </trkpt>
      <trkpt lat="27.88563000" lon="85.89393000">
        <ele>1833.0000</ele>
        <time>2010-01-01T00:19:19Z</time>
      </trkpt>
      <trkpt lat="27.88585000" lon="85.89344000">
        <ele>1838.0000</ele>
        <time>2010-01-01T00:19:58Z</time>
      </trkpt>
      <trkpt lat="27.88597000" lon="85.89326000">
        <ele>1839.0000</ele>
        <time>2010-01-01T00:20:14Z</time>
      </trkpt>
      <trkpt lat="27.88615000" lon="85.89318000">
        <ele>1834.0000</ele>
        <time>2010-01-01T00:20:29Z</time>
      </trkpt>
      <trkpt lat="27.88635000" lon="85.89305000">
        <ele>1827.0000</ele>
        <time>2010-01-01T00:20:48Z</time>
      </trkpt>
      <trkpt lat="27.88634000" lon="85.89275000">
        <ele>1835.0000</ele>
        <time>2010-01-01T00:21:09Z</time>
      </trkpt>
      <trkpt lat="27.88627000" lon="85.89249000">
        <ele>1845.0000</ele>
        <time>2010-01-01T00:21:28Z</time>
      </trkpt>
      <trkpt lat="27.88635000" lon="85.89228000">
        <ele>1844.0000</ele>
        <time>2010-01-01T00:21:44Z</time>
      </trkpt>
      <trkpt lat="27.88654000" lon="85.89205000">
        <ele>1840.0000</ele>
        <time>2010-01-01T00:22:07Z</time>
      </trkpt>
      <trkpt lat="27.88662000" lon="85.89189000">
        <ele>1839.0000</ele>
        <time>2010-01-01T00:22:20Z</time>
      </trkpt>
      <trkpt lat="27.88662000" lon="85.89168000">
        <ele>1845.0000</ele>
        <time>2010-01-01T00:22:35Z</time>
      </trkpt>
      <trkpt lat="27.88652000" lon="85.89148000">
        <ele>1855.0000</ele>
        <time>2010-01-01T00:22:51Z</time>
      </trkpt>
      <trkpt lat="27.88643000" lon="85.89121000">
        <ele>1867.0000</ele>
        <time>2010-01-01T00:23:11Z</time>
      </trkpt>
      <trkpt lat="27.88647000" lon="85.89114000">
        <ele>1867.0000</ele>
        <time>2010-01-01T00:23:17Z</time>
      </trkpt>
      <trkpt lat="27.88662000" lon="85.89099000">
        <ele>1861.0000</ele>
        <time>2010-01-01T00:23:33Z</time>
      </trkpt>
      <trkpt lat="27.88647000" lon="85.89114000">
        <ele>1867.0000</ele>
        <time>2010-01-01T00:23:49Z</time>
      </trkpt>
      <trkpt lat="27.88643000" lon="85.89121000">
        <ele>1867.0000</ele>
        <time>2010-01-01T00:23:55Z</time>
      </trkpt>
      <trkpt lat="27.88652000" lon="85.89148000">
        <ele>1855.0000</ele>
        <time>2010-01-01T00:24:16Z</time>
      </trkpt>
      <trkpt lat="27.88662000" lon="85.89168000">
        <ele>1845.0000</ele>
        <time>2010-01-01T00:24:32Z</time>
      </trkpt>
      <trkpt lat="27.88662000" lon="85.89189000">
        <ele>1839.0000</ele>
        <time>2010-01-01T00:24:47Z</time>
      </trkpt>
      <trkpt lat="27.88654000" lon="85.89205000">
        <ele>1840.0000</ele>
        <time>2010-01-01T00:25:00Z</time>
      </trkpt>
      <trkpt lat="27.88635000" lon="85.89228000">
        <ele>1844.0000</ele>
        <time>2010-01-01T00:25:22Z</time>
      </trkpt>
      <trkpt lat="27.88627000" lon="85.89249000">
        <ele>1845.0000</ele>
        <time>2010-01-01T00:25:38Z</time>
      </trkpt>
      <trkpt lat="27.88634000" lon="85.89275000">
        <ele>1835.0000</ele>
        <time>2010-01-01T00:25:57Z</time>
      </trkpt>
      <trkpt lat="27.88635000" lon="85.89305000">
        <ele>1827.0000</ele>
        <time>2010-01-01T00:26:19Z</time>
      </trkpt>
      <trkpt lat="27.88617000" lon="85.89299000">
        <ele>1837.0000</ele>
        <time>2010-01-01T00:26:34Z</time>
      </trkpt>
      <trkpt lat="27.88611000" lon="85.89293000">
        <ele>1842.0000</ele>
        <time>2010-01-01T00:26:40Z</time>
      </trkpt>
      <trkpt lat="27.88599000" lon="85.89287000">
        <ele>1849.0000</ele>
        <time>2010-01-01T00:26:51Z</time>
      </trkpt>
      <trkpt lat="27.88559000" lon="85.89276000">
        <ele>1869.0000</ele>
        <time>2010-01-01T00:27:24Z</time>
      </trkpt>
      <trkpt lat="27.88543000" lon="85.89253000">
        <ele>1879.0000</ele>
        <time>2010-01-01T00:27:44Z</time>
      </trkpt>
      <trkpt lat="27.88545000" lon="85.89249000">
        <ele>1879.0000</ele>
        <time>2010-01-01T00:27:47Z</time>
      </trkpt>
      <trkpt lat="27.88540000" lon="85.89238000">
        <ele>1882.0000</ele>
        <time>2010-01-01T00:27:56Z</time>
      </trkpt>
      <trkpt lat="27.88532000" lon="85.89232000">
        <ele>1885.0000</ele>
        <time>2010-01-01T00:28:04Z</time>
      </trkpt>
      <trkpt lat="27.88540000" lon="85.89223000">
        <ele>1886.0000</ele>
        <time>2010-01-01T00:28:13Z</time>
      </trkpt>
      <trkpt lat="27.88541000" lon="85.89218000">
        <ele>1886.0000</ele>
        <time>2010-01-01T00:28:17Z</time>
      </trkpt>
      <trkpt lat="27.88535000" lon="85.89215000">
        <ele>1888.0000</ele>
        <time>2010-01-01T00:28:22Z</time>
      </trkpt>
      <trkpt lat="27.88530000" lon="85.89210000">
        <ele>1889.0000</ele>
        <time>2010-01-01T00:28:27Z</time>
      </trkpt>
      <trkpt lat="27.88522000" lon="85.89194000">
        <ele>1890.0000</ele>
        <time>2010-01-01T00:28:40Z</time>
      </trkpt>
      <trkpt lat="27.88502000" lon="85.89178000">
        <ele>1889.0000</ele>
        <time>2010-01-01T00:29:00Z</time>
      </trkpt>
      <trkpt lat="27.88522000" lon="85.89160000">
        <ele>1898.0000</ele>
        <time>2010-01-01T00:29:20Z</time>
      </trkpt>
      <trkpt lat="27.88527000" lon="85.89148000">
        <ele>1901.0000</ele>
        <time>2010-01-01T00:29:30Z</time>
      </trkpt>
      <trkpt lat="27.88525000" lon="85.89144000">
        <ele>1902.0000</ele>
        <time>2010-01-01T00:29:33Z</time>
      </trkpt>
      <trkpt lat="27.88522000" lon="85.89141000">
        <ele>1902.0000</ele>
        <time>2010-01-01T00:29:36Z</time>
      </trkpt>
      <trkpt lat="27.88516000" lon="85.89140000">
        <ele>1903.0000</ele>
        <time>2010-01-01T00:29:41Z</time>
      </trkpt>
      <trkpt lat="27.88508000" lon="85.89143000">
        <ele>1902.0000</ele>
        <time>2010-01-01T00:29:48Z</time>
      </trkpt>
      <trkpt lat="27.88497000" lon="85.89153000">
        <ele>1898.0000</ele>
        <time>2010-01-01T00:29:59Z</time>
      </trkpt>
      <trkpt lat="27.88493000" lon="85.89151000">
        <ele>1899.0000</ele>
        <time>2010-01-01T00:30:03Z</time>
      </trkpt>
      <trkpt lat="27.88490000" lon="85.89145000">
        <ele>1903.0000</ele>
        <time>2010-01-01T00:30:07Z</time>
      </trkpt>
      <trkpt lat="27.88491000" lon="85.89135000">
        <ele>1907.0000</ele>
        <time>2010-01-01T00:30:15Z</time>
      </trkpt>
      <trkpt lat="27.88493000" lon="85.89131000">
        <ele>1908.0000</ele>
        <time>2010-01-01T00:30:18Z</time>
      </trkpt>
      <trkpt lat="27.88485000" lon="85.89124000">
        <ele>1911.0000</ele>
        <time>2010-01-01T00:30:26Z</time>
      </trkpt>
      <trkpt lat="27.88483000" lon="85.89104000">
        <ele>1915.0000</ele>
        <time>2010-01-01T00:30:40Z</time>
      </trkpt>
      <trkpt lat="27.88489000" lon="85.89068000">
        <ele>1924.0000</ele>
        <time>2010-01-01T00:31:06Z</time>
      </trkpt>
      <trkpt lat="27.88481000" lon="85.89051000">
        <ele>1924.0000</ele>
        <time>2010-01-01T00:31:20Z</time>
      </trkpt>
      <trkpt lat="27.88480000" lon="85.89036000">
        <ele>1918.0000</ele>
        <time>2010-01-01T00:31:30Z</time>
      </trkpt>
      <trkpt lat="27.88486000" lon="85.89026000">
        <ele>1919.0000</ele>
        <time>2010-01-01T00:31:39Z</time>
      </trkpt>
      <trkpt lat="27.88488000" lon="85.89007000">
        <ele>1927.0000</ele>
        <time>2010-01-01T00:31:52Z</time>
      </trkpt>
      <trkpt lat="27.88492000" lon="85.89002000">
        <ele>1931.0000</ele>
        <time>2010-01-01T00:31:57Z</time>
      </trkpt>
      <trkpt lat="27.88494000" lon="85.88991000">
        <ele>1935.0000</ele>
        <time>2010-01-01T00:32:05Z</time>
      </trkpt>
      <trkpt lat="27.88487000" lon="85.88948000">
        <ele>1940.0000</ele>
        <time>2010-01-01T00:32:36Z</time>
      </trkpt>
      <trkpt lat="27.88487000" lon="85.88887000">
        <ele>1946.0000</ele>
        <time>2010-01-01T00:33:19Z</time>
      </trkpt>
      <trkpt lat="27.88481000" lon="85.88852000">
        <ele>1946.0000</ele>
        <time>2010-01-01T00:33:44Z</time>
      </trkpt>
      <trkpt lat="27.88487000" lon="85.88841000">
        <ele>1949.0000</ele>
        <time>2010-01-01T00:33:54Z</time>
      </trkpt>
      <trkpt lat="27.88501000" lon="85.88847000">
        <ele>1951.0000</ele>
        <time>2010-01-01T00:34:06Z</time>
      </trkpt>
      <trkpt lat="27.88510000" lon="85.88833000">
        <ele>1953.0000</ele>
        <time>2010-01-01T00:34:18Z</time>
      </trkpt>
      <trkpt lat="27.88508000" lon="85.88811000">
        <ele>1954.0000</ele>
        <time>2010-01-01T00:34:33Z</time>
      </trkpt>
      <trkpt lat="27.88501000" lon="85.88771000">
        <ele>1950.0000</ele>
        <time>2010-01-01T00:35:02Z</time>
      </trkpt>
      <trkpt lat="27.88498000" lon="85.88734000">
        <ele>1947.0000</ele>
        <time>2010-01-01T00:35:29Z</time>
      </trkpt>
      <trkpt lat="27.88504000" lon="85.88697000">
        <ele>1947.0000</ele>
        <time>2010-01-01T00:35:55Z</time>
      </trkpt>
      <trkpt lat="27.88521000" lon="85.88661000">
        <ele>1949.0000</ele>
        <time>2010-01-01T00:36:24Z</time>
      </trkpt>
      <trkpt lat="27.88535000" lon="85.88579000">
        <ele>1957.0000</ele>
        <time>2010-01-01T00:37:23Z</time>
      </trkpt>
      <trkpt lat="27.88549000" lon="85.88540000">
        <ele>1960.0000</ele>
        <time>2010-01-01T00:37:53Z</time>
      </trkpt>
      <trkpt lat="27.88553000" lon="85.88512000">
        <ele>1959.0000</ele>
        <time>2010-01-01T00:38:13Z</time>
      </trkpt>
      <trkpt lat="27.88549000" lon="85.88483000">
        <ele>1949.0000</ele>
        <time>2010-01-01T00:38:34Z</time>
      </trkpt>
      <trkpt lat="27.88552000" lon="85.88432000">
        <ele>1946.0000</ele>
        <time>2010-01-01T00:39:10Z</time>
      </trkpt>
      <trkpt lat="27.88552000" lon="85.88399000">
        <ele>1944.0000</ele>
        <time>2010-01-01T00:39:33Z</time>
      </trkpt>
      <trkpt lat="27.88540000" lon="85.88314000">
        <ele>1945.0000</ele>
        <time>2010-01-01T00:40:34Z</time>
      </trkpt>
      <trkpt lat="27.88531000" lon="85.88269000">
        <ele>1937.0000</ele>
        <time>2010-01-01T00:41:07Z</time>
      </trkpt>
      <trkpt lat="27.88531000" lon="85.88268000">
        <ele>1937.0000</ele>
        <time>2010-01-01T00:41:08Z</time>
      </trkpt>
      <trkpt lat="27.88494000" lon="85.88187000">
        <ele>1925.0000</ele>
        <time>2010-01-01T00:42:12Z</time>
      </trkpt>
      <trkpt lat="27.88483000" lon="85.88145000">
        <ele>1924.0000</ele>
        <time>2010-01-01T00:42:43Z</time>
      </trkpt>
      <trkpt lat="27.88488000" lon="85.88106000">
        <ele>1925.0000</ele>
        <time>2010-01-01T00:43:11Z</time>
      </trkpt>
      <trkpt lat="27.88497000" lon="85.88086000">
        <ele>1930.0000</ele>
        <time>2010-01-01T00:43:27Z</time>
      </trkpt>
      <trkpt lat="27.88498000" lon="85.88065000">
        <ele>1929.0000</ele>
        <time>2010-01-01T00:43:42Z</time>
      </trkpt>
      <trkpt lat="27.88494000" lon="85.88047000">
        <ele>1926.0000</ele>
        <time>2010-01-01T00:43:55Z</time>
      </trkpt>
      <trkpt lat="27.88486000" lon="85.88025000">
        <ele>1922.0000</ele>
        <time>2010-01-01T00:44:12Z</time>
      </trkpt>
      <trkpt lat="27.88483000" lon="85.88002000">
        <ele>1920.0000</ele>
        <time>2010-01-01T00:44:28Z</time>
      </trkpt>
      <trkpt lat="27.88494000" lon="85.87996000">
        <ele>1926.0000</ele>
        <time>2010-01-01T00:44:38Z</time>
      </trkpt>
      <trkpt lat="27.88495000" lon="85.87987000">
        <ele>1926.0000</ele>
        <time>2010-01-01T00:44:44Z</time>
      </trkpt>
      <trkpt lat="27.88503000" lon="85.87985000">
        <ele>1930.0000</ele>
        <time>2010-01-01T00:44:51Z</time>
      </trkpt>
      <trkpt lat="27.88521000" lon="85.88005000">
        <ele>1941.0000</ele>
        <time>2010-01-01T00:45:11Z</time>
      </trkpt>
      <trkpt lat="27.88532000" lon="85.88006000">
        <ele>1946.0000</ele>
        <time>2010-01-01T00:45:20Z</time>
      </trkpt>
      <trkpt lat="27.88539000" lon="85.87995000">
        <ele>1948.0000</ele>
        <time>2010-01-01T00:45:30Z</time>
      </trkpt>
      <trkpt lat="27.88539000" lon="85.88010000">
        <ele>1949.0000</ele>
        <time>2010-01-01T00:45:40Z</time>
      </trkpt>
      <trkpt lat="27.88546000" lon="85.88002000">
        <ele>1951.0000</ele>
        <time>2010-01-01T00:45:48Z</time>
      </trkpt>
      <trkpt lat="27.88546000" lon="85.88010000">
        <ele>1952.0000</ele>
        <time>2010-01-01T00:45:54Z</time>
      </trkpt>
      <trkpt lat="27.88553000" lon="85.88004000">
        <ele>1954.0000</ele>
        <time>2010-01-01T00:46:01Z</time>
      </trkpt>
      <trkpt lat="27.88563000" lon="85.88004000">
        <ele>1961.0000</ele>
        <time>2010-01-01T00:46:09Z</time>
      </trkpt>
      <trkpt lat="27.88596000" lon="85.87969000">
        <ele>1975.0000</ele>
        <time>2010-01-01T00:46:45Z</time>
      </trkpt>
      <trkpt lat="27.88632000" lon="85.87952000">
        <ele>1991.0000</ele>
        <time>2010-01-01T00:47:16Z</time>
      </trkpt>
      <trkpt lat="27.88654000" lon="85.87903000">
        <ele>1984.0000</ele>
        <time>2010-01-01T00:47:55Z</time>
      </trkpt>
      <trkpt lat="27.88667000" lon="85.87859000">
        <ele>1984.0000</ele>
        <time>2010-01-01T00:48:28Z</time>
      </trkpt>
      <trkpt lat="27.88672000" lon="85.87836000">
        <ele>1988.0000</ele>
        <time>2010-01-01T00:48:45Z</time>
      </trkpt>
      <trkpt lat="27.88676000" lon="85.87823000">
        <ele>1992.0000</ele>
        <time>2010-01-01T00:48:55Z</time>
      </trkpt>
      <trkpt lat="27.88677000" lon="85.87794000">
        <ele>1994.0000</ele>
        <time>2010-01-01T00:49:15Z</time>
      </trkpt>
      <trkpt lat="27.88685000" lon="85.87765000">
        <ele>1998.0000</ele>
        <time>2010-01-01T00:49:37Z</time>
      </trkpt>
      <trkpt lat="27.88712000" lon="85.87756000">
        <ele>2012.0000</ele>
        <time>2010-01-01T00:49:59Z</time>
      </trkpt>
      <trkpt lat="27.88727000" lon="85.87729000">
        <ele>2015.0000</ele>
        <time>2010-01-01T00:50:22Z</time>
      </trkpt>
      <trkpt lat="27.88755000" lon="85.87711000">
        <ele>2029.0000</ele>
        <time>2010-01-01T00:50:47Z</time>
      </trkpt>
      <trkpt lat="27.88802000" lon="85.87701000">
        <ele>2045.0000</ele>
        <time>2010-01-01T00:51:26Z</time>
      </trkpt>
      <trkpt lat="27.88813000" lon="85.87707000">
        <ele>2045.0000</ele>
        <time>2010-01-01T00:51:36Z</time>
      </trkpt>
      <trkpt lat="27.88832000" lon="85.87708000">
        <ele>2045.0000</ele>
        <time>2010-01-01T00:51:51Z</time>
      </trkpt>
      <trkpt lat="27.88849000" lon="85.87701000">
        <ele>2050.0000</ele>
        <time>2010-01-01T00:52:05Z</time>
      </trkpt>
      <trkpt lat="27.88871000" lon="85.87697000">
        <ele>2062.0000</ele>
        <time>2010-01-01T00:52:23Z</time>
      </trkpt>
      <trkpt lat="27.88885000" lon="85.87705000">
        <ele>2074.0000</ele>
        <time>2010-01-01T00:52:36Z</time>
      </trkpt>
      <trkpt lat="27.88889000" lon="85.87698000">
        <ele>2075.0000</ele>
        <time>2010-01-01T00:52:42Z</time>
      </trkpt>
      <trkpt lat="27.88891000" lon="85.87703000">
        <ele>2078.0000</ele>
        <time>2010-01-01T00:52:45Z</time>
      </trkpt>
      <trkpt lat="27.88891000" lon="85.87702000">
        <ele>2077.0000</ele>
        <time>2010-01-01T00:52:46Z</time>
      </trkpt>
      <trkpt lat="27.88891000" lon="85.87703000">
        <ele>2078.0000</ele>
        <time>2010-01-01T00:52:47Z</time>
      </trkpt>
      <trkpt lat="27.88894000" lon="85.87698000">
        <ele>2079.0000</ele>
        <time>2010-01-01T00:52:51Z</time>
      </trkpt>
      <trkpt lat="27.88899000" lon="85.87702000">
        <ele>2083.0000</ele>
        <time>2010-01-01T00:52:56Z</time>
      </trkpt>
      <trkpt lat="27.88909000" lon="85.87690000">
        <ele>2089.0000</ele>
        <time>2010-01-01T00:53:08Z</time>
      </trkpt>
      <trkpt lat="27.88924000" lon="85.87666000">
        <ele>2095.0000</ele>
        <time>2010-01-01T00:53:29Z</time>
      </trkpt>
      <trkpt lat="27.88933000" lon="85.87663000">
        <ele>2098.0000</ele>
        <time>2010-01-01T00:53:36Z</time>
      </trkpt>
      <trkpt lat="27.88947000" lon="85.87646000">
        <ele>2101.0000</ele>
        <time>2010-01-01T00:53:52Z</time>
      </trkpt>
      <trkpt lat="27.88955000" lon="85.87657000">
        <ele>2108.0000</ele>
        <time>2010-01-01T00:54:03Z</time>
      </trkpt>
      <trkpt lat="27.88967000" lon="85.87646000">
        <ele>2109.0000</ele>
        <time>2010-01-01T00:54:15Z</time>
      </trkpt>
      <trkpt lat="27.88966000" lon="85.87625000">
        <ele>2104.0000</ele>
        <time>2010-01-01T00:54:30Z</time>
      </trkpt>
      <trkpt lat="27.88973000" lon="85.87613000">
        <ele>2105.0000</ele>
        <time>2010-01-01T00:54:40Z</time>
      </trkpt>
      <trkpt lat="27.88987000" lon="85.87620000">
        <ele>2113.0000</ele>
        <time>2010-01-01T00:54:52Z</time>
      </trkpt>
      <trkpt lat="27.88999000" lon="85.87612000">
        <ele>2118.0000</ele>
        <time>2010-01-01T00:55:03Z</time>
      </trkpt>
      <trkpt lat="27.89012000" lon="85.87631000">
        <ele>2131.0000</ele>
        <time>2010-01-01T00:55:20Z</time>
      </trkpt>
      <trkpt lat="27.89020000" lon="85.87653000">
        <ele>2145.0000</ele>
        <time>2010-01-01T00:55:37Z</time>
      </trkpt>
      <trkpt lat="27.89030000" lon="85.87638000">
        <ele>2146.0000</ele>
        <time>2010-01-01T00:55:51Z</time>
      </trkpt>
      <trkpt lat="27.89038000" lon="85.87630000">
        <ele>2147.0000</ele>
        <time>2010-01-01T00:55:59Z</time>
      </trkpt>
      <trkpt lat="27.89038000" lon="85.87636000">
        <ele>2150.0000</ele>
        <time>2010-01-01T00:56:03Z</time>
      </trkpt>
      <trkpt lat="27.89045000" lon="85.87639000">
        <ele>2155.0000</ele>
        <time>2010-01-01T00:56:09Z</time>
      </trkpt>
      <trkpt lat="27.89048000" lon="85.87646000">
        <ele>2159.0000</ele>
        <time>2010-01-01T00:56:15Z</time>
      </trkpt>
      <trkpt lat="27.89057000" lon="85.87636000">
        <ele>2160.0000</ele>
        <time>2010-01-01T00:56:25Z</time>
      </trkpt>
      <trkpt lat="27.89066000" lon="85.87646000">
        <ele>2168.0000</ele>
        <time>2010-01-01T00:56:35Z</time>
      </trkpt>
      <trkpt lat="27.89071000" lon="85.87645000">
        <ele>2170.0000</ele>
        <time>2010-01-01T00:56:39Z</time>
      </trkpt>
      <trkpt lat="27.89076000" lon="85.87649000">
        <ele>2173.0000</ele>
        <time>2010-01-01T00:56:44Z</time>
      </trkpt>
      <trkpt lat="27.89071000" lon="85.87660000">
        <ele>2176.0000</ele>
        <time>2010-01-01T00:56:53Z</time>
      </trkpt>
      <trkpt lat="27.89072000" lon="85.87668000">
        <ele>2179.0000</ele>
        <time>2010-01-01T00:56:58Z</time>
      </trkpt>
      <trkpt lat="27.89087000" lon="85.87675000">
        <ele>2188.0000</ele>
        <time>2010-01-01T00:57:11Z</time>
      </trkpt>
      <trkpt lat="27.89097000" lon="85.87674000">
        <ele>2194.0000</ele>
        <time>2010-01-01T00:57:19Z</time>
      </trkpt>
      <trkpt lat="27.89107000" lon="85.87678000">
        <ele>2201.0000</ele>
        <time>2010-01-01T00:57:28Z</time>
      </trkpt>
      <trkpt lat="27.89114000" lon="85.87672000">
        <ele>2201.0000</ele>
        <time>2010-01-01T00:57:35Z</time>
      </trkpt>
      <trkpt lat="27.89124000" lon="85.87673000">
        <ele>2206.0000</ele>
        <time>2010-01-01T00:57:43Z</time>
      </trkpt>
      <trkpt lat="27.89130000" lon="85.87668000">
        <ele>2207.0000</ele>
        <time>2010-01-01T00:57:49Z</time>
      </trkpt>
      <trkpt lat="27.89142000" lon="85.87674000">
        <ele>2214.0000</ele>
        <time>2010-01-01T00:57:59Z</time>
      </trkpt>
      <trkpt lat="27.89147000" lon="85.87660000">
        <ele>2213.0000</ele>
        <time>2010-01-01T00:58:10Z</time>
      </trkpt>
      <trkpt lat="27.89159000" lon="85.87641000">
        <ele>2215.0000</ele>
        <time>2010-01-01T00:58:27Z</time>
      </trkpt>
      <trkpt lat="27.89171000" lon="85.87633000">
        <ele>2218.0000</ele>
        <time>2010-01-01T00:58:38Z</time>
      </trkpt>
      <trkpt lat="27.89176000" lon="85.87623000">
        <ele>2218.0000</ele>
        <time>2010-01-01T00:58:46Z</time>
      </trkpt>
      <trkpt lat="27.89198000" lon="85.87613000">
        <ele>2226.0000</ele>
        <time>2010-01-01T00:59:05Z</time>
      </trkpt>
      <trkpt lat="27.89199000" lon="85.87622000">
        <ele>2226.0000</ele>
        <time>2010-01-01T00:59:11Z</time>
      </trkpt>
      <trkpt lat="27.89216000" lon="85.87614000">
        <ele>2228.0000</ele>
        <time>2010-01-01T00:59:26Z</time>
      </trkpt>
      <trkpt lat="27.89219000" lon="85.87608000">
        <ele>2229.0000</ele>
        <time>2010-01-01T00:59:31Z</time>
      </trkpt>
      <trkpt lat="27.89228000" lon="85.87586000">
        <ele>2233.0000</ele>
        <time>2010-01-01T00:59:48Z</time>
      </trkpt>
      <trkpt lat="27.89276000" lon="85.87556000">
        <ele>2239.0000</ele>
        <time>2010-01-01T01:00:32Z</time>
      </trkpt>
      <trkpt lat="27.89283000" lon="85.87536000">
        <ele>2243.0000</ele>
        <time>2010-01-01T01:00:47Z</time>
      </trkpt>
      <trkpt lat="27.89288000" lon="85.87499000">
        <ele>2246.0000</ele>
        <time>2010-01-01T01:01:14Z</time>
      </trkpt>
      <trkpt lat="27.89288000" lon="85.87474000">
        <ele>2248.0000</ele>
        <time>2010-01-01T01:01:31Z</time>
      </trkpt>
      <trkpt lat="27.89300000" lon="85.87452000">
        <ele>2251.0000</ele>
        <time>2010-01-01T01:01:50Z</time>
      </trkpt>
      <trkpt lat="27.89300000" lon="85.87421000">
        <ele>2258.0000</ele>
        <time>2010-01-01T01:02:12Z</time>
      </trkpt>
      <trkpt lat="27.89307000" lon="85.87390000">
        <ele>2266.0000</ele>
        <time>2010-01-01T01:02:34Z</time>
      </trkpt>
      <trkpt lat="27.89316000" lon="85.87364000">
        <ele>2269.0000</ele>
        <time>2010-01-01T01:02:54Z</time>
      </trkpt>
      <trkpt lat="27.89332000" lon="85.87332000">
        <ele>2270.0000</ele>
        <time>2010-01-01T01:03:20Z</time>
      </trkpt>
      <trkpt lat="27.89371000" lon="85.87301000">
        <ele>2276.0000</ele>
        <time>2010-01-01T01:03:58Z</time>
      </trkpt>
      <trkpt lat="27.89369000" lon="85.87293000">
        <ele>2277.0000</ele>
        <time>2010-01-01T01:04:04Z</time>
      </trkpt>
      <trkpt lat="27.89372000" lon="85.87288000">
        <ele>2278.0000</ele>
        <time>2010-01-01T01:04:08Z</time>
      </trkpt>
      <trkpt lat="27.89377000" lon="85.87286000">
        <ele>2279.0000</ele>
        <time>2010-01-01T01:04:13Z</time>
      </trkpt>
      <trkpt lat="27.89385000" lon="85.87286000">
        <ele>2279.0000</ele>
        <time>2010-01-01T01:04:19Z</time>
      </trkpt>
      <trkpt lat="27.89411000" lon="85.87292000">
        <ele>2281.0000</ele>
        <time>2010-01-01T01:04:40Z</time>
      </trkpt>
      <trkpt lat="27.89414000" lon="85.87290000">
        <ele>2281.0000</ele>
        <time>2010-01-01T01:04:43Z</time>
      </trkpt>
      <trkpt lat="27.89416000" lon="85.87286000">
        <ele>2282.0000</ele>
        <time>2010-01-01T01:04:46Z</time>
      </trkpt>
      <trkpt lat="27.89413000" lon="85.87275000">
        <ele>2283.0000</ele>
        <time>2010-01-01T01:04:54Z</time>
      </trkpt>
      <trkpt lat="27.89407000" lon="85.87267000">
        <ele>2284.0000</ele>
        <time>2010-01-01T01:05:02Z</time>
      </trkpt>
      <trkpt lat="27.89396000" lon="85.87261000">
        <ele>2284.0000</ele>
        <time>2010-01-01T01:05:12Z</time>
      </trkpt>
      <trkpt lat="27.89378000" lon="85.87245000">
        <ele>2286.0000</ele>
        <time>2010-01-01T01:05:30Z</time>
      </trkpt>
      <trkpt lat="27.89377000" lon="85.87230000">
        <ele>2289.0000</ele>
        <time>2010-01-01T01:05:41Z</time>
      </trkpt>
      <trkpt lat="27.89381000" lon="85.87217000">
        <ele>2292.0000</ele>
        <time>2010-01-01T01:05:50Z</time>
      </trkpt>
      <trkpt lat="27.89387000" lon="85.87194000">
        <ele>2296.0000</ele>
        <time>2010-01-01T01:06:07Z</time>
      </trkpt>
      <trkpt lat="27.89400000" lon="85.87190000">
        <ele>2296.0000</ele>
        <time>2010-01-01T01:06:18Z</time>
      </trkpt>
      <trkpt lat="27.89412000" lon="85.87190000">
        <ele>2295.0000</ele>
        <time>2010-01-01T01:06:28Z</time>
      </trkpt>
      <trkpt lat="27.89423000" lon="85.87204000">
        <ele>2293.0000</ele>
        <time>2010-01-01T01:06:41Z</time>
      </trkpt>
      <trkpt lat="27.89434000" lon="85.87207000">
        <ele>2293.0000</ele>
        <time>2010-01-01T01:06:50Z</time>
      </trkpt>
      <trkpt lat="27.89448000" lon="85.87214000">
        <ele>2293.0000</ele>
        <time>2010-01-01T01:07:02Z</time>
      </trkpt>
      <trkpt lat="27.89462000" lon="85.87224000">
        <ele>2294.0000</ele>
        <time>2010-01-01T01:07:16Z</time>
      </trkpt>
      <trkpt lat="27.89474000" lon="85.87237000">
        <ele>2295.0000</ele>
        <time>2010-01-01T01:07:29Z</time>
      </trkpt>
      <trkpt lat="27.89500000" lon="85.87247000">
        <ele>2295.0000</ele>
        <time>2010-01-01T01:07:51Z</time>
      </trkpt>
      <trkpt lat="27.89537000" lon="85.87254000">
        <ele>2294.0000</ele>
        <time>2010-01-01T01:08:21Z</time>
      </trkpt>
      <trkpt lat="27.89566000" lon="85.87265000">
        <ele>2293.0000</ele>
        <time>2010-01-01T01:08:45Z</time>
      </trkpt>
      <trkpt lat="27.89631000" lon="85.87266000">
        <ele>2294.0000</ele>
        <time>2010-01-01T01:09:37Z</time>
      </trkpt>
      <trkpt lat="27.89653000" lon="85.87256000">
        <ele>2296.0000</ele>
        <time>2010-01-01T01:09:56Z</time>
      </trkpt>
      <trkpt lat="27.89671000" lon="85.87254000">
        <ele>2296.0000</ele>
        <time>2010-01-01T01:10:11Z</time>
      </trkpt>
      <trkpt lat="27.89689000" lon="85.87248000">
        <ele>2298.0000</ele>
        <time>2010-01-01T01:10:26Z</time>
      </trkpt>
      <trkpt lat="27.89704000" lon="85.87245000">
        <ele>2298.0000</ele>
        <time>2010-01-01T01:10:38Z</time>
      </trkpt>
      <trkpt lat="27.89743000" lon="85.87239000">
        <ele>2302.0000</ele>
        <time>2010-01-01T01:11:10Z</time>
      </trkpt>
      <trkpt lat="27.89757000" lon="85.87239000">
        <ele>2304.0000</ele>
        <time>2010-01-01T01:11:21Z</time>
      </trkpt>
      <trkpt lat="27.89794000" lon="85.87259000">
        <ele>2305.0000</ele>
        <time>2010-01-01T01:11:54Z</time>
      </trkpt>
      <trkpt lat="27.89808000" lon="85.87275000">
        <ele>2307.0000</ele>
        <time>2010-01-01T01:12:10Z</time>
      </trkpt>
      <trkpt lat="27.89818000" lon="85.87302000">
        <ele>2305.0000</ele>
        <time>2010-01-01T01:12:30Z</time>
      </trkpt>
      <trkpt lat="27.89836000" lon="85.87318000">
        <ele>2307.0000</ele>
        <time>2010-01-01T01:12:49Z</time>
      </trkpt>
      <trkpt lat="27.89841000" lon="85.87330000">
        <ele>2307.0000</ele>
        <time>2010-01-01T01:12:58Z</time>
      </trkpt>
      <trkpt lat="27.89846000" lon="85.87380000">
        <ele>2301.0000</ele>
        <time>2010-01-01T01:13:34Z</time>
      </trkpt>
      <trkpt lat="27.89854000" lon="85.87394000">
        <ele>2304.0000</ele>
        <time>2010-01-01T01:13:45Z</time>
      </trkpt>
      <trkpt lat="27.89867000" lon="85.87394000">
        <ele>2313.0000</ele>
        <time>2010-01-01T01:13:56Z</time>
      </trkpt>
      <trkpt lat="27.89883000" lon="85.87389000">
        <ele>2327.0000</ele>
        <time>2010-01-01T01:14:09Z</time>
      </trkpt>
      <trkpt lat="27.89896000" lon="85.87375000">
        <ele>2336.0000</ele>
        <time>2010-01-01T01:14:23Z</time>
      </trkpt>
      <trkpt lat="27.89906000" lon="85.87375000">
        <ele>2340.0000</ele>
        <time>2010-01-01T01:14:31Z</time>
      </trkpt>
      <trkpt lat="27.89913000" lon="85.87384000">
        <ele>2341.0000</ele>
        <time>2010-01-01T01:14:40Z</time>
      </trkpt>
      <trkpt lat="27.89913000" lon="85.87408000">
        <ele>2342.0000</ele>
        <time>2010-01-01T01:14:57Z</time>
      </trkpt>
      <trkpt lat="27.89906000" lon="85.87421000">
        <ele>2338.0000</ele>
        <time>2010-01-01T01:15:08Z</time>
      </trkpt>
      <trkpt lat="27.89903000" lon="85.87434000">
        <ele>2334.0000</ele>
        <time>2010-01-01T01:15:17Z</time>
      </trkpt>
      <trkpt lat="27.89910000" lon="85.87510000">
        <ele>2317.0000</ele>
        <time>2010-01-01T01:16:11Z</time>
      </trkpt>
      <trkpt lat="27.89921000" lon="85.87524000">
        <ele>2315.0000</ele>
        <time>2010-01-01T01:16:25Z</time>
      </trkpt>
      <trkpt lat="27.89930000" lon="85.87529000">
        <ele>2317.0000</ele>
        <time>2010-01-01T01:16:33Z</time>
      </trkpt>
      <trkpt lat="27.89941000" lon="85.87523000">
        <ele>2327.0000</ele>
        <time>2010-01-01T01:16:42Z</time>
      </trkpt>
      <trkpt lat="27.89952000" lon="85.87503000">
        <ele>2340.0000</ele>
        <time>2010-01-01T01:16:59Z</time>
      </trkpt>
      <trkpt lat="27.89962000" lon="85.87497000">
        <ele>2344.0000</ele>
        <time>2010-01-01T01:17:08Z</time>
      </trkpt>
      <trkpt lat="27.89995000" lon="85.87495000">
        <ele>2357.0000</ele>
        <time>2010-01-01T01:17:35Z</time>
      </trkpt>
      <trkpt lat="27.90011000" lon="85.87490000">
        <ele>2369.0000</ele>
        <time>2010-01-01T01:17:48Z</time>
      </trkpt>
      <trkpt lat="27.90018000" lon="85.87490000">
        <ele>2375.0000</ele>
        <time>2010-01-01T01:17:53Z</time>
      </trkpt>
      <trkpt lat="27.90028000" lon="85.87527000">
        <ele>2377.0000</ele>
        <time>2010-01-01T01:18:21Z</time>
      </trkpt>
      <trkpt lat="27.90043000" lon="85.87540000">
        <ele>2384.0000</ele>
        <time>2010-01-01T01:18:36Z</time>
      </trkpt>
      <trkpt lat="27.90061000" lon="85.87551000">
        <ele>2397.0000</ele>
        <time>2010-01-01T01:18:52Z</time>
      </trkpt>
      <trkpt lat="27.90083000" lon="85.87558000">
        <ele>2405.0000</ele>
        <time>2010-01-01T01:19:11Z</time>
      </trkpt>
      <trkpt lat="27.90103000" lon="85.87567000">
        <ele>2405.0000</ele>
        <time>2010-01-01T01:19:28Z</time>
      </trkpt>
      <trkpt lat="27.90125000" lon="85.87572000">
        <ele>2406.0000</ele>
        <time>2010-01-01T01:19:46Z</time>
      </trkpt>
      <trkpt lat="27.90136000" lon="85.87582000">
        <ele>2399.0000</ele>
        <time>2010-01-01T01:19:57Z</time>
      </trkpt>
      <trkpt lat="27.90149000" lon="85.87599000">
        <ele>2398.0000</ele>
        <time>2010-01-01T01:20:13Z</time>
      </trkpt>
      <trkpt lat="27.90161000" lon="85.87607000">
        <ele>2396.0000</ele>
        <time>2010-01-01T01:20:24Z</time>
      </trkpt>
      <trkpt lat="27.90176000" lon="85.87622000">
        <ele>2396.0000</ele>
        <time>2010-01-01T01:20:40Z</time>
      </trkpt>
      <trkpt lat="27.90170000" lon="85.87637000">
        <ele>2396.0000</ele>
        <time>2010-01-01T01:20:52Z</time>
      </trkpt>
      <trkpt lat="27.90154000" lon="85.87654000">
        <ele>2392.0000</ele>
        <time>2010-01-01T01:21:09Z</time>
      </trkpt>
      <trkpt lat="27.90134000" lon="85.87693000">
        <ele>2384.0000</ele>
        <time>2010-01-01T01:21:41Z</time>
      </trkpt>
      <trkpt lat="27.90129000" lon="85.87744000">
        <ele>2381.0000</ele>
        <time>2010-01-01T01:22:18Z</time>
      </trkpt>
      <trkpt lat="27.90134000" lon="85.87763000">
        <ele>2380.0000</ele>
        <time>2010-01-01T01:22:32Z</time>
      </trkpt>
      <trkpt lat="27.90150000" lon="85.87779000">
        <ele>2386.0000</ele>
        <time>2010-01-01T01:22:49Z</time>
      </trkpt>
      <trkpt lat="27.90165000" lon="85.87791000">
        <ele>2396.0000</ele>
        <time>2010-01-01T01:23:03Z</time>
      </trkpt>
      <trkpt lat="27.90185000" lon="85.87818000">
        <ele>2402.0000</ele>
        <time>2010-01-01T01:23:28Z</time>
      </trkpt>
      <trkpt lat="27.90200000" lon="85.87825000">
        <ele>2405.0000</ele>
        <time>2010-01-01T01:23:41Z</time>
      </trkpt>
      <trkpt lat="27.90216000" lon="85.87828000">
        <ele>2408.0000</ele>
        <time>2010-01-01T01:23:54Z</time>
      </trkpt>
      <trkpt lat="27.90215000" lon="85.87828000">
        <ele>2407.0000</ele>
        <time>2010-01-01T01:23:55Z</time>
      </trkpt>
      <trkpt lat="27.90244000" lon="85.87833000">
        <ele>2414.0000</ele>
        <time>2010-01-01T01:24:19Z</time>
      </trkpt>
      <trkpt lat="27.90253000" lon="85.87816000">
        <ele>2419.0000</ele>
        <time>2010-01-01T01:24:33Z</time>
      </trkpt>
      <trkpt lat="27.90254000" lon="85.87811000">
        <ele>2420.0000</ele>
        <time>2010-01-01T01:24:36Z</time>
      </trkpt>
      <trkpt lat="27.90253000" lon="85.87804000">
        <ele>2421.0000</ele>
        <time>2010-01-01T01:24:41Z</time>
      </trkpt>
      <trkpt lat="27.90260000" lon="85.87797000">
        <ele>2427.0000</ele>
        <time>2010-01-01T01:24:49Z</time>
      </trkpt>
      <trkpt lat="27.90272000" lon="85.87792000">
        <ele>2433.0000</ele>
        <time>2010-01-01T01:24:59Z</time>
      </trkpt>
      <trkpt lat="27.90276000" lon="85.87786000">
        <ele>2438.0000</ele>
        <time>2010-01-01T01:25:04Z</time>
      </trkpt>
      <trkpt lat="27.90279000" lon="85.87779000">
        <ele>2443.0000</ele>
        <time>2010-01-01T01:25:10Z</time>
      </trkpt>
      <trkpt lat="27.90282000" lon="85.87757000">
        <ele>2450.0000</ele>
        <time>2010-01-01T01:25:26Z</time>
      </trkpt>
      <trkpt lat="27.90288000" lon="85.87750000">
        <ele>2453.0000</ele>
        <time>2010-01-01T01:25:32Z</time>
      </trkpt>
      <trkpt lat="27.90306000" lon="85.87744000">
        <ele>2457.0000</ele>
        <time>2010-01-01T01:25:48Z</time>
      </trkpt>
      <trkpt lat="27.90318000" lon="85.87743000">
        <ele>2457.0000</ele>
        <time>2010-01-01T01:25:57Z</time>
      </trkpt>
      <trkpt lat="27.90324000" lon="85.87740000">
        <ele>2458.0000</ele>
        <time>2010-01-01T01:26:02Z</time>
      </trkpt>
      <trkpt lat="27.90328000" lon="85.87747000">
        <ele>2456.0000</ele>
        <time>2010-01-01T01:26:08Z</time>
      </trkpt>
      <trkpt lat="27.90339000" lon="85.87742000">
        <ele>2457.0000</ele>
        <time>2010-01-01T01:26:18Z</time>
      </trkpt>
      <trkpt lat="27.90348000" lon="85.87727000">
        <ele>2459.0000</ele>
        <time>2010-01-01T01:26:31Z</time>
      </trkpt>
      <trkpt lat="27.90353000" lon="85.87724000">
        <ele>2460.0000</ele>
        <time>2010-01-01T01:26:35Z</time>
      </trkpt>
      <trkpt lat="27.90371000" lon="85.87702000">
        <ele>2461.0000</ele>
        <time>2010-01-01T01:26:56Z</time>
      </trkpt>
      <trkpt lat="27.90378000" lon="85.87688000">
        <ele>2460.0000</ele>
        <time>2010-01-01T01:27:08Z</time>
      </trkpt>
      <trkpt lat="27.90380000" lon="85.87680000">
        <ele>2460.0000</ele>
        <time>2010-01-01T01:27:14Z</time>
      </trkpt>
      <trkpt lat="27.90398000" lon="85.87663000">
        <ele>2470.0000</ele>
        <time>2010-01-01T01:27:32Z</time>
      </trkpt>
      <trkpt lat="27.90418000" lon="85.87649000">
        <ele>2483.0000</ele>
        <time>2010-01-01T01:27:51Z</time>
      </trkpt>
      <trkpt lat="27.90424000" lon="85.87639000">
        <ele>2493.0000</ele>
        <time>2010-01-01T01:28:00Z</time>
      </trkpt>
      <trkpt lat="27.90429000" lon="85.87624000">
        <ele>2513.0000</ele>
        <time>2010-01-01T01:28:11Z</time>
      </trkpt>
      <trkpt lat="27.90437000" lon="85.87615000">
        <ele>2524.0000</ele>
        <time>2010-01-01T01:28:20Z</time>
      </trkpt>
      <trkpt lat="27.90441000" lon="85.87605000">
        <ele>2532.0000</ele>
        <time>2010-01-01T01:28:28Z</time>
      </trkpt>
      <trkpt lat="27.90443000" lon="85.87593000">
        <ele>2543.0000</ele>
        <time>2010-01-01T01:28:37Z</time>
      </trkpt>
      <trkpt lat="27.90448000" lon="85.87557000">
        <ele>2561.0000</ele>
        <time>2010-01-01T01:29:02Z</time>
      </trkpt>
      <trkpt lat="27.90444000" lon="85.87536000">
        <ele>2564.0000</ele>
        <time>2010-01-01T01:29:18Z</time>
      </trkpt>
      <trkpt lat="27.90444000" lon="85.87527000">
        <ele>2566.0000</ele>
        <time>2010-01-01T01:29:24Z</time>
      </trkpt>
      <trkpt lat="27.90452000" lon="85.87519000">
        <ele>2575.0000</ele>
        <time>2010-01-01T01:29:32Z</time>
      </trkpt>
      <trkpt lat="27.90498000" lon="85.87501000">
        <ele>2609.0000</ele>
        <time>2010-01-01T01:30:11Z</time>
      </trkpt>
      <trkpt lat="27.90508000" lon="85.87485000">
        <ele>2623.0000</ele>
        <time>2010-01-01T01:30:25Z</time>
      </trkpt>
      <trkpt lat="27.90519000" lon="85.87486000">
        <ele>2629.0000</ele>
        <time>2010-01-01T01:30:34Z</time>
      </trkpt>
      <trkpt lat="27.90530000" lon="85.87490000">
        <ele>2634.0000</ele>
        <time>2010-01-01T01:30:43Z</time>
      </trkpt>
      <trkpt lat="27.90539000" lon="85.87485000">
        <ele>2644.0000</ele>
        <time>2010-01-01T01:30:51Z</time>
      </trkpt>
      <trkpt lat="27.90549000" lon="85.87476000">
        <ele>2654.0000</ele>
        <time>2010-01-01T01:31:02Z</time>
      </trkpt>
      <trkpt lat="27.90557000" lon="85.87483000">
        <ele>2657.0000</ele>
        <time>2010-01-01T01:31:10Z</time>
      </trkpt>
      <trkpt lat="27.90560000" lon="85.87475000">
        <ele>2661.0000</ele>
        <time>2010-01-01T01:31:16Z</time>
      </trkpt>
      <trkpt lat="27.90576000" lon="85.87474000">
        <ele>2673.0000</ele>
        <time>2010-01-01T01:31:29Z</time>
      </trkpt>
      <trkpt lat="27.90595000" lon="85.87453000">
        <ele>2687.0000</ele>
        <time>2010-01-01T01:31:50Z</time>
      </trkpt>
      <trkpt lat="27.90619000" lon="85.87454000">
        <ele>2698.0000</ele>
        <time>2010-01-01T01:32:09Z</time>
      </trkpt>
      <trkpt lat="27.90651000" lon="85.87439000">
        <ele>2722.0000</ele>
        <time>2010-01-01T01:32:37Z</time>
      </trkpt>
      <trkpt lat="27.90738000" lon="85.87434000">
        <ele>2762.0000</ele>
        <time>2010-01-01T01:33:47Z</time>
      </trkpt>
      <trkpt lat="27.90749000" lon="85.87420000">
        <ele>2765.0000</ele>
        <time>2010-01-01T01:34:00Z</time>
      </trkpt>
      <trkpt lat="27.90767000" lon="85.87407000">
        <ele>2760.0000</ele>
        <time>2010-01-01T01:34:17Z</time>
      </trkpt>
      <trkpt lat="27.90837000" lon="85.87379000">
        <ele>2742.0000</ele>
        <time>2010-01-01T01:35:16Z</time>
      </trkpt>
      <trkpt lat="27.90846000" lon="85.87374000">
        <ele>2742.0000</ele>
        <time>2010-01-01T01:35:24Z</time>
      </trkpt>
      <trkpt lat="27.90863000" lon="85.87381000">
        <ele>2745.0000</ele>
        <time>2010-01-01T01:35:39Z</time>
      </trkpt>
      <trkpt lat="27.90876000" lon="85.87380000">
        <ele>2746.0000</ele>
        <time>2010-01-01T01:35:49Z</time>
      </trkpt>
      <trkpt lat="27.90897000" lon="85.87369000">
        <ele>2739.0000</ele>
        <time>2010-01-01T01:36:08Z</time>
      </trkpt>
      <trkpt lat="27.90924000" lon="85.87362000">
        <ele>2734.0000</ele>
        <time>2010-01-01T01:36:30Z</time>
      </trkpt>
      <trkpt lat="27.90959000" lon="85.87360000">
        <ele>2735.0000</ele>
        <time>2010-01-01T01:36:58Z</time>
      </trkpt>
      <trkpt lat="27.90993000" lon="85.87346000">
        <ele>2732.0000</ele>
        <time>2010-01-01T01:37:27Z</time>
      </trkpt>
      <trkpt lat="27.91020000" lon="85.87333000">
        <ele>2728.0000</ele>
        <time>2010-01-01T01:37:51Z</time>
      </trkpt>
      <trkpt lat="27.91035000" lon="85.87333000">
        <ele>2727.0000</ele>
        <time>2010-01-01T01:38:03Z</time>
      </trkpt>
      <trkpt lat="27.91062000" lon="85.87341000">
        <ele>2727.0000</ele>
        <time>2010-01-01T01:38:25Z</time>
      </trkpt>
      <trkpt lat="27.91070000" lon="85.87345000">
        <ele>2726.0000</ele>
        <time>2010-01-01T01:38:32Z</time>
      </trkpt>
      <trkpt lat="27.91086000" lon="85.87336000">
        <ele>2719.0000</ele>
        <time>2010-01-01T01:38:46Z</time>
      </trkpt>
      <trkpt lat="27.91101000" lon="85.87324000">
        <ele>2715.0000</ele>
        <time>2010-01-01T01:39:01Z</time>
      </trkpt>
      <trkpt lat="27.91112000" lon="85.87322000">
        <ele>2714.0000</ele>
        <time>2010-01-01T01:39:10Z</time>
      </trkpt>
      <trkpt lat="27.91124000" lon="85.87322000">
        <ele>2714.0000</ele>
        <time>2010-01-01T01:39:20Z</time>
      </trkpt>
      <trkpt lat="27.91132000" lon="85.87331000">
        <ele>2717.0000</ele>
        <time>2010-01-01T01:39:29Z</time>
      </trkpt>
      <trkpt lat="27.91145000" lon="85.87317000">
        <ele>2713.0000</ele>
        <time>2010-01-01T01:39:43Z</time>
      </trkpt>
      <trkpt lat="27.91158000" lon="85.87314000">
        <ele>2711.0000</ele>
        <time>2010-01-01T01:39:54Z</time>
      </trkpt>
      <trkpt lat="27.91179000" lon="85.87315000">
        <ele>2710.0000</ele>
        <time>2010-01-01T01:40:10Z</time>
      </trkpt>
      <trkpt lat="27.91225000" lon="85.87299000">
        <ele>2707.0000</ele>
        <time>2010-01-01T01:40:49Z</time>
      </trkpt>
      <trkpt lat="27.91249000" lon="85.87298000">
        <ele>2710.0000</ele>
        <time>2010-01-01T01:41:08Z</time>
      </trkpt>
      <trkpt lat="27.91276000" lon="85.87285000">
        <ele>2705.0000</ele>
        <time>2010-01-01T01:41:32Z</time>
      </trkpt>
      <trkpt lat="27.91303000" lon="85.87288000">
        <ele>2702.0000</ele>
        <time>2010-01-01T01:41:53Z</time>
      </trkpt>
      <trkpt lat="27.91333000" lon="85.87280000">
        <ele>2699.0000</ele>
        <time>2010-01-01T01:42:18Z</time>
      </trkpt>
      <trkpt lat="27.91370000" lon="85.87286000">
        <ele>2698.0000</ele>
        <time>2010-01-01T01:42:48Z</time>
      </trkpt>
      <trkpt lat="27.91435000" lon="85.87275000">
        <ele>2700.0000</ele>
        <time>2010-01-01T01:43:41Z</time>
      </trkpt>
      <trkpt lat="27.91460000" lon="85.87264000">
        <ele>2694.0000</ele>
        <time>2010-01-01T01:44:02Z</time>
      </trkpt>
      <trkpt lat="27.91474000" lon="85.87260000">
        <ele>2691.0000</ele>
        <time>2010-01-01T01:44:14Z</time>
      </trkpt>
      <trkpt lat="27.91492000" lon="85.87261000">
        <ele>2695.0000</ele>
        <time>2010-01-01T01:44:28Z</time>
      </trkpt>
      <trkpt lat="27.91514000" lon="85.87254000">
        <ele>2693.0000</ele>
        <time>2010-01-01T01:44:46Z</time>
      </trkpt>
      <trkpt lat="27.91534000" lon="85.87253000">
        <ele>2698.0000</ele>
        <time>2010-01-01T01:45:02Z</time>
      </trkpt>
      <trkpt lat="27.91550000" lon="85.87262000">
        <ele>2719.0000</ele>
        <time>2010-01-01T01:45:17Z</time>
      </trkpt>
      <trkpt lat="27.91567000" lon="85.87259000">
        <ele>2731.0000</ele>
        <time>2010-01-01T01:45:30Z</time>
      </trkpt>
      <trkpt lat="27.91588000" lon="85.87244000">
        <ele>2740.0000</ele>
        <time>2010-01-01T01:45:50Z</time>
      </trkpt>
      <trkpt lat="27.91621000" lon="85.87211000">
        <ele>2726.0000</ele>
        <time>2010-01-01T01:46:26Z</time>
      </trkpt>
      <trkpt lat="27.91670000" lon="85.87193000">
        <ele>2742.0000</ele>
        <time>2010-01-01T01:47:07Z</time>
      </trkpt>
      <trkpt lat="27.91693000" lon="85.87190000">
        <ele>2747.0000</ele>
        <time>2010-01-01T01:47:25Z</time>
      </trkpt>
      <trkpt lat="27.91725000" lon="85.87177000">
        <ele>2752.0000</ele>
        <time>2010-01-01T01:47:53Z</time>
      </trkpt>
      <trkpt lat="27.91736000" lon="85.87164000">
        <ele>2746.0000</ele>
        <time>2010-01-01T01:48:05Z</time>
      </trkpt>
      <trkpt lat="27.91766000" lon="85.87139000">
        <ele>2752.0000</ele>
        <time>2010-01-01T01:48:35Z</time>
      </trkpt>
      <trkpt lat="27.91777000" lon="85.87124000">
        <ele>2755.0000</ele>
        <time>2010-01-01T01:48:49Z</time>
      </trkpt>
      <trkpt lat="27.91781000" lon="85.87112000">
        <ele>2752.0000</ele>
        <time>2010-01-01T01:48:58Z</time>
      </trkpt>
      <trkpt lat="27.91793000" lon="85.87107000">
        <ele>2756.0000</ele>
        <time>2010-01-01T01:49:08Z</time>
      </trkpt>
      <trkpt lat="27.91801000" lon="85.87097000">
        <ele>2756.0000</ele>
        <time>2010-01-01T01:49:18Z</time>
      </trkpt>
      <trkpt lat="27.91809000" lon="85.87079000">
        <ele>2752.0000</ele>
        <time>2010-01-01T01:49:32Z</time>
      </trkpt>
      <trkpt lat="27.91813000" lon="85.87077000">
        <ele>2754.0000</ele>
        <time>2010-01-01T01:49:36Z</time>
      </trkpt>
      <trkpt lat="27.91839000" lon="85.87062000">
        <ele>2758.0000</ele>
        <time>2010-01-01T01:49:59Z</time>
      </trkpt>
      <trkpt lat="27.91919000" lon="85.87077000">
        <ele>2757.0000</ele>
        <time>2010-01-01T01:51:04Z</time>
      </trkpt>
      <trkpt lat="27.91949000" lon="85.87090000">
        <ele>2750.0000</ele>
        <time>2010-01-01T01:51:30Z</time>
      </trkpt>
      <trkpt lat="27.91972000" lon="85.87128000">
        <ele>2743.0000</ele>
        <time>2010-01-01T01:52:02Z</time>
      </trkpt>
      <trkpt lat="27.91987000" lon="85.87142000">
        <ele>2742.0000</ele>
        <time>2010-01-01T01:52:18Z</time>
      </trkpt>
      <trkpt lat="27.92021000" lon="85.87155000">
        <ele>2738.0000</ele>
        <time>2010-01-01T01:52:46Z</time>
      </trkpt>
      <trkpt lat="27.92046000" lon="85.87145000">
        <ele>2735.0000</ele>
        <time>2010-01-01T01:53:08Z</time>
      </trkpt>
      <trkpt lat="27.92076000" lon="85.87155000">
        <ele>2730.0000</ele>
        <time>2010-01-01T01:53:33Z</time>
      </trkpt>
      <trkpt lat="27.92085000" lon="85.87135000">
        <ele>2737.0000</ele>
        <time>2010-01-01T01:53:49Z</time>
      </trkpt>
      <trkpt lat="27.92088000" lon="85.87121000">
        <ele>2742.0000</ele>
        <time>2010-01-01T01:53:59Z</time>
      </trkpt>
      <trkpt lat="27.92133000" lon="85.87101000">
        <ele>2746.0000</ele>
        <time>2010-01-01T01:54:37Z</time>
      </trkpt>
      <trkpt lat="27.92116000" lon="85.87090000">
        <ele>2753.0000</ele>
        <time>2010-01-01T01:54:53Z</time>
      </trkpt>
      <trkpt lat="27.92102000" lon="85.87085000">
        <ele>2755.0000</ele>
        <time>2010-01-01T01:55:05Z</time>
      </trkpt>
      <trkpt lat="27.92089000" lon="85.87085000">
        <ele>2756.0000</ele>
        <time>2010-01-01T01:55:15Z</time>
      </trkpt>
      <trkpt lat="27.92109000" lon="85.87075000">
        <ele>2759.0000</ele>
        <time>2010-01-01T01:55:33Z</time>
      </trkpt>
      <trkpt lat="27.92140000" lon="85.87082000">
        <ele>2756.0000</ele>
        <time>2010-01-01T01:55:58Z</time>
      </trkpt>
      <trkpt lat="27.92191000" lon="85.87091000">
        <ele>2764.0000</ele>
        <time>2010-01-01T01:56:39Z</time>
      </trkpt>
      <trkpt lat="27.92218000" lon="85.87101000">
        <ele>2757.0000</ele>
        <time>2010-01-01T01:57:02Z</time>
      </trkpt>
      <trkpt lat="27.92229000" lon="85.87100000">
        <ele>2760.0000</ele>
        <time>2010-01-01T01:57:11Z</time>
      </trkpt>
      <trkpt lat="27.92236000" lon="85.87083000">
        <ele>2775.0000</ele>
        <time>2010-01-01T01:57:24Z</time>
      </trkpt>
      <trkpt lat="27.92252000" lon="85.87086000">
        <ele>2775.0000</ele>
        <time>2010-01-01T01:57:37Z</time>
      </trkpt>
      <trkpt lat="27.92265000" lon="85.87118000">
        <ele>2761.0000</ele>
        <time>2010-01-01T01:58:02Z</time>
      </trkpt>
      <trkpt lat="27.92276000" lon="85.87133000">
        <ele>2757.0000</ele>
        <time>2010-01-01T01:58:16Z</time>
      </trkpt>
      <trkpt lat="27.92293000" lon="85.87148000">
        <ele>2754.0000</ele>
        <time>2010-01-01T01:58:33Z</time>
      </trkpt>
      <trkpt lat="27.92308000" lon="85.87150000">
        <ele>2754.0000</ele>
        <time>2010-01-01T01:58:45Z</time>
      </trkpt>
      <trkpt lat="27.92328000" lon="85.87146000">
        <ele>2759.0000</ele>
        <time>2010-01-01T01:59:02Z</time>
      </trkpt>
      <trkpt lat="27.92331000" lon="85.87154000">
        <ele>2756.0000</ele>
        <time>2010-01-01T01:59:08Z</time>
      </trkpt>
      <trkpt lat="27.92626667" lon="85.87205886">
        <ele>2921.0000</ele>
        <time>2010-01-01T02:03:07Z</time>
      </trkpt>
      <trkpt lat="27.92876922" lon="85.87205886">
        <ele>2891.0000</ele>
        <time>2010-01-01T02:06:28Z</time>
      </trkpt>
      <trkpt lat="27.93513910" lon="85.87360382">
        <ele>3102.0000</ele>
        <time>2010-01-01T02:15:09Z</time>
      </trkpt>
      <trkpt lat="27.93673150" lon="85.87343215">
        <ele>3148.0000</ele>
        <time>2010-01-01T02:17:17Z</time>
      </trkpt>
      <trkpt lat="27.93794475" lon="85.87265968">
        <ele>3206.0000</ele>
        <time>2010-01-01T02:19:09Z</time>
      </trkpt>
      <trkpt lat="27.93976460" lon="85.87214469">
        <ele>3319.0000</ele>
        <time>2010-01-01T02:21:39Z</time>
      </trkpt>
      <trkpt lat="27.94090199" lon="85.87137222">
        <ele>3362.0000</ele>
        <time>2010-01-01T02:23:25Z</time>
      </trkpt>
      <trkpt lat="27.94135694" lon="85.86991310">
        <ele>3358.0000</ele>
        <time>2010-01-01T02:25:14Z</time>
      </trkpt>
      <trkpt lat="27.94188772" lon="85.86896896">
        <ele>3371.0000</ele>
        <time>2010-01-01T02:26:34Z</time>
      </trkpt>
      <trkpt lat="27.94211519" lon="85.86742401">
        <ele>3374.0000</ele>
        <time>2010-01-01T02:28:24Z</time>
      </trkpt>
      <trkpt lat="27.94363167" lon="85.86673736">
        <ele>3413.0000</ele>
        <time>2010-01-01T02:30:35Z</time>
      </trkpt>
      <trkpt lat="27.94469320" lon="85.86605072">
        <ele>3415.0000</ele>
        <time>2010-01-01T02:32:13Z</time>
      </trkpt>
      <trkpt lat="27.94545142" lon="85.86502075">
        <ele>3449.0000</ele>
        <time>2010-01-01T02:33:48Z</time>
      </trkpt>
      <trkpt lat="27.94529978" lon="85.86502075">
        <ele>3446.0000</ele>
        <time>2010-01-01T00:00:00Z</time>
      </trkpt>
      <trkpt lat="27.94775391" lon="85.86562156">
        <ele>3514.0000</ele>
        <time>2010-01-01T00:03:21Z</time>
      </trkpt>
      <trkpt lat="27.94919449" lon="85.86553573">
        <ele>3561.0000</ele>
        <time>2010-01-01T00:05:16Z</time>
      </trkpt>
      <trkpt lat="27.95055924" lon="85.86579322">
        <ele>3632.0000</ele>
        <time>2010-01-01T00:07:07Z</time>
      </trkpt>
      <trkpt lat="27.95150697" lon="85.86562156">
        <ele>3652.0000</ele>
        <time>2010-01-01T00:08:24Z</time>
      </trkpt>
      <trkpt lat="27.95298541" lon="85.86639404">
        <ele>3656.0000</ele>
        <time>2010-01-01T00:10:34Z</time>
      </trkpt>
      <trkpt lat="27.95529781" lon="85.86497783">
        <ele>3703.0000</ele>
        <time>2010-01-01T00:14:04Z</time>
      </trkpt>
      <trkpt lat="27.95705162" lon="85.86424827">
        <ele>3719.0000</ele>
        <time>2010-01-01T00:16:34Z</time>
      </trkpt>
      <trkpt lat="27.95856789" lon="85.86416244">
        <ele>3715.0000</ele>
        <time>2010-01-01T00:18:36Z</time>
      </trkpt>
      <trkpt lat="27.96008414" lon="85.86441993">
        <ele>3734.0000</ele>
        <time>2010-01-01T00:20:38Z</time>
      </trkpt>
      <trkpt lat="27.96137294" lon="85.86433410">
        <ele>3759.0000</ele>
        <time>2010-01-01T00:22:22Z</time>
      </trkpt>
      <trkpt lat="27.96235848" lon="85.86373329">
        <ele>3800.0000</ele>
        <time>2010-01-01T00:23:51Z</time>
      </trkpt>
      <trkpt lat="27.96341982" lon="85.86278915">
        <ele>3796.0000</ele>
        <time>2010-01-01T00:25:39Z</time>
      </trkpt>
      <trkpt lat="27.96478439" lon="85.86227416">
        <ele>3793.0000</ele>
        <time>2010-01-01T00:27:35Z</time>
      </trkpt>
      <trkpt lat="27.96614894" lon="85.86210250">
        <ele>3778.0000</ele>
        <time>2010-01-01T00:29:24Z</time>
      </trkpt>
      <trkpt lat="27.96751347" lon="85.86167335">
        <ele>3775.0000</ele>
        <time>2010-01-01T00:31:18Z</time>
      </trkpt>
      <trkpt lat="27.96925701" lon="85.86107254">
        <ele>3780.0000</ele>
        <time>2010-01-01T00:33:44Z</time>
      </trkpt>
      <trkpt lat="27.97031828" lon="85.86004257">
        <ele>3767.0000</ele>
        <time>2010-01-01T00:35:36Z</time>
      </trkpt>
      <trkpt lat="27.97122794" lon="85.85884094">
        <ele>3804.0000</ele>
        <time>2010-01-01T00:37:28Z</time>
      </trkpt>
      <trkpt lat="27.97221339" lon="85.85763931">
        <ele>3788.0000</ele>
        <time>2010-01-01T00:39:24Z</time>
      </trkpt>
      <trkpt lat="27.97221339" lon="85.85643768">
        <ele>3763.0000</ele>
        <time>2010-01-01T00:40:48Z</time>
      </trkpt>
      <trkpt lat="27.97266821" lon="85.85463523">
        <ele>3793.0000</ele>
        <time>2010-01-01T00:43:01Z</time>
      </trkpt>
      <trkpt lat="27.97365365" lon="85.85309028">
        <ele>3802.0000</ele>
        <time>2010-01-01T00:45:16Z</time>
      </trkpt>
      <trkpt lat="27.97433587" lon="85.85223197">
        <ele>3797.0000</ele>
        <time>2010-01-01T00:46:37Z</time>
      </trkpt>
      <trkpt lat="27.97516969" lon="85.85137367">
        <ele>3803.0000</ele>
        <time>2010-01-01T00:48:08Z</time>
      </trkpt>
      <trkpt lat="27.97562449" lon="85.85042953">
        <ele>3795.0000</ele>
        <time>2010-01-01T00:49:24Z</time>
      </trkpt>
      <trkpt lat="27.97577610" lon="85.84794044">
        <ele>3702.0000</ele>
        <time>2010-01-01T00:52:20Z</time>
      </trkpt>
      <trkpt lat="27.97592770" lon="85.84545135">
        <ele>3595.0000</ele>
        <time>2010-01-01T00:55:17Z</time>
      </trkpt>
      <trkpt lat="27.97691311" lon="85.84090232">
        <ele>3509.0000</ele>
        <time>2010-01-01T01:00:48Z</time>
      </trkpt>
      <trkpt lat="27.97714051" lon="85.83875656">
        <ele>3459.0000</ele>
        <time>2010-01-01T01:03:20Z</time>
      </trkpt>
      <trkpt lat="27.97623090" lon="85.83558082">
        <ele>3288.0000</ele>
        <time>2010-01-01T01:07:17Z</time>
      </trkpt>
      <trkpt lat="27.97539709" lon="85.83274841">
        <ele>3137.0000</ele>
        <time>2010-01-01T01:10:48Z</time>
      </trkpt>
      <trkpt lat="27.97486648" lon="85.83034515">
        <ele>3024.0000</ele>
        <time>2010-01-01T01:13:43Z</time>
      </trkpt>
      <trkpt lat="27.97456327" lon="85.82862854">
        <ele>2977.0000</ele>
        <time>2010-01-01T01:15:47Z</time>
      </trkpt>
      <trkpt lat="27.97441167" lon="85.82596778">
        <ele>2892.0000</ele>
        <time>2010-01-01T01:18:55Z</time>
      </trkpt>
      <trkpt lat="27.97441167" lon="85.82442283">
        <ele>2851.0000</ele>
        <time>2010-01-01T01:20:44Z</time>
      </trkpt>
      <trkpt lat="27.97395686" lon="85.82356452">
        <ele>2750.0000</ele>
        <time>2010-01-01T01:21:55Z</time>
      </trkpt>
      <trkpt lat="27.97327463" lon="85.82296371">
        <ele>2628.0000</ele>
        <time>2010-01-01T01:23:04Z</time>
      </trkpt>
      <trkpt lat="27.97251660" lon="85.82244873">
        <ele>2585.0000</ele>
        <time>2010-01-01T01:24:15Z</time>
      </trkpt>
      <trkpt lat="27.97122794" lon="85.82201957">
        <ele>2519.0000</ele>
        <time>2010-01-01T01:26:03Z</time>
      </trkpt>
      <trkpt lat="27.97137955" lon="85.82201957">
        <ele>2524.0000</ele>
        <time>2010-01-01T00:00:00Z</time>
      </trkpt>
      <trkpt lat="27.97213759" lon="85.82056045">
        <ele>2495.0000</ele>
        <time>2010-01-01T00:00:59Z</time>
      </trkpt>
      <trkpt lat="27.97206178" lon="85.81970214">
        <ele>2464.0000</ele>
        <time>2010-01-01T00:01:30Z</time>
      </trkpt>
      <trkpt lat="27.97206178" lon="85.81867218">
        <ele>2436.0000</ele>
        <time>2010-01-01T00:02:06Z</time>
      </trkpt>
      <trkpt lat="27.97327463" lon="85.81704139">
        <ele>2430.0000</ele>
        <time>2010-01-01T00:03:22Z</time>
      </trkpt>
      <trkpt lat="27.97312303" lon="85.81515312">
        <ele>2416.0000</ele>
        <time>2010-01-01T00:04:29Z</time>
      </trkpt>
      <trkpt lat="27.97350204" lon="85.81386566">
        <ele>2421.0000</ele>
        <time>2010-01-01T00:05:17Z</time>
      </trkpt>
      <trkpt lat="27.97486648" lon="85.81274986">
        <ele>2448.0000</ele>
        <time>2010-01-01T00:06:24Z</time>
      </trkpt>
      <trkpt lat="27.97562449" lon="85.81034660">
        <ele>2407.0000</ele>
        <time>2010-01-01T00:07:54Z</time>
      </trkpt>
      <trkpt lat="27.97653410" lon="85.81180572">
        <ele>2410.0000</ele>
        <time>2010-01-01T00:08:57Z</time>
      </trkpt>
      <trkpt lat="27.97774690" lon="85.81129074">
        <ele>2333.0000</ele>
        <time>2010-01-01T00:09:49Z</time>
      </trkpt>
      <trkpt lat="27.97888389" lon="85.81163406">
        <ele>2285.0000</ele>
        <time>2010-01-01T00:10:36Z</time>
      </trkpt>
      <trkpt lat="27.97979348" lon="85.81103324">
        <ele>2222.0000</ele>
        <time>2010-01-01T00:11:18Z</time>
      </trkpt>
      <trkpt lat="27.98077885" lon="85.81120491">
        <ele>2170.0000</ele>
        <time>2010-01-01T00:11:58Z</time>
      </trkpt>
      <trkpt lat="27.98100624" lon="85.81051826">
        <ele>2125.0000</ele>
        <time>2010-01-01T00:12:24Z</time>
      </trkpt>
      <trkpt lat="27.98100624" lon="85.80983161">
        <ele>2098.0000</ele>
        <time>2010-01-01T00:12:49Z</time>
      </trkpt>
      <trkpt lat="27.98199160" lon="85.81008911">
        <ele>2055.0000</ele>
        <time>2010-01-01T00:13:29Z</time>
      </trkpt>
      <trkpt lat="27.98229479" lon="85.80931663">
        <ele>2003.0000</ele>
        <time>2010-01-01T00:13:59Z</time>
      </trkpt>
      <trkpt lat="27.98305275" lon="85.80974578">
        <ele>1978.0000</ele>
        <time>2010-01-01T00:14:33Z</time>
      </trkpt>
      <trkpt lat="27.98426548" lon="85.80965995">
        <ele>1897.0000</ele>
        <time>2010-01-01T00:15:22Z</time>
      </trkpt>
      <trkpt lat="27.98608454" lon="85.81008911">
        <ele>1861.0000</ele>
        <time>2010-01-01T00:16:36Z</time>
      </trkpt>
      <trkpt lat="27.98631192" lon="85.80880165">
        <ele>1858.0000</ele>
        <time>2010-01-01T00:17:22Z</time>
      </trkpt>
      <trkpt lat="27.98616034" lon="85.80734252">
        <ele>1866.0000</ele>
        <time>2010-01-01T00:18:14Z</time>
      </trkpt>
      <trkpt lat="27.98661510" lon="85.80614089">
        <ele>1946.0000</ele>
        <time>2010-01-01T00:19:00Z</time>
      </trkpt>
      <trkpt lat="27.98691827" lon="85.80485343">
        <ele>1989.0000</ele>
        <time>2010-01-01T00:19:48Z</time>
      </trkpt>
      <trkpt lat="27.98752462" lon="85.80390930">
        <ele>2035.0000</ele>
        <time>2010-01-01T00:20:29Z</time>
      </trkpt>
      <trkpt lat="27.98904046" lon="85.80270767">
        <ele>2135.0000</ele>
        <time>2010-01-01T00:21:43Z</time>
      </trkpt>
      <trkpt lat="27.98911625" lon="85.80176353">
        <ele>2139.0000</ele>
        <time>2010-01-01T00:22:16Z</time>
      </trkpt>
      <trkpt lat="27.98987417" lon="85.80116271">
        <ele>2183.0000</ele>
        <time>2010-01-01T00:22:53Z</time>
      </trkpt>
      <trkpt lat="27.99085945" lon="85.80150604">
        <ele>2244.0000</ele>
        <time>2010-01-01T00:23:35Z</time>
      </trkpt>
      <trkpt lat="27.99275419" lon="85.79918861">
        <ele>2277.0000</ele>
        <time>2010-01-01T00:25:26Z</time>
      </trkpt>
      <trkpt lat="27.99495205" lon="85.79730033">
        <ele>2346.0000</ele>
        <time>2010-01-01T00:27:17Z</time>
      </trkpt>
      <trkpt lat="27.99813508" lon="85.79584121">
        <ele>2337.0000</ele>
        <time>2010-01-01T00:29:34Z</time>
      </trkpt>
      <trkpt lat="28.00040862" lon="85.79463958">
        <ele>2330.0000</ele>
        <time>2010-01-01T00:31:15Z</time>
      </trkpt>
      <trkpt lat="28.00260632" lon="85.79481124">
        <ele>2361.0000</ele>
        <time>2010-01-01T00:32:43Z</time>
      </trkpt>
      <trkpt lat="28.00669848" lon="85.79197883">
        <ele>2284.0000</ele>
        <time>2010-01-01T00:35:55Z</time>
      </trkpt>
      <trkpt lat="28.00897184" lon="85.79146385">
        <ele>2308.0000</ele>
        <time>2010-01-01T00:37:28Z</time>
      </trkpt>
      <trkpt lat="28.01162402" lon="85.78923225">
        <ele>2253.0000</ele>
        <time>2010-01-01T00:39:40Z</time>
      </trkpt>
      <trkpt lat="28.01435192" lon="85.78674316">
        <ele>2175.0000</ele>
        <time>2010-01-01T00:42:00Z</time>
      </trkpt>
      <trkpt lat="28.01609470" lon="85.78554153">
        <ele>2161.0000</ele>
        <time>2010-01-01T00:43:22Z</time>
      </trkpt>
      <trkpt lat="28.01745860" lon="85.78511238">
        <ele>2176.0000</ele>
        <time>2010-01-01T00:44:18Z</time>
      </trkpt>
      <trkpt lat="28.01958019" lon="85.78391075">
        <ele>2218.0000</ele>
        <time>2010-01-01T00:45:53Z</time>
      </trkpt>
    </trkseg>
  </trk>
</gpx>
